[[{"header":{"parameterUnit":"m.s-1","parameterCategory":1,"la1":30.6,"la2":28.766,"lo1":-90.7593,"lo2":-88.6598,"dy":0.0162,"dx":0.0183,"nx":116,"ny":114,"refTime":"2024-04-24T12:00:00:Z","depth":0,"parameterNumber":2,"parameterNumberName":"U-component_of_WINDS"},"data":[0.0,0.0,0.0,0.0,0.0,0.0,0.0,0.0,0.0,0.0,0.0,0.0,0.0,0.0,0.0,0.0,0.0,0.0,0.0,0.0,0.0,0.0,0.0,0.0,0.0,0.0,0.0,0.0,0.0,0.0,0.0,0.0,0.0,0.0,0.0,0.0,0.0,0.0,0.0,0.0,0.0,0.0,0.0,0.0,0.0,0.0,0.0,0.0,0.0,0.0,0.0,0.0,0.0,0.0,0.0,0.0,0.0,0.0,0.0,0.0,0.0,0.0,0.0,0.0,0.0,0.0,0.0,0.0,0.0,0.0,0.0,0.0,0.0,0.0,0.0,0.0,0.0,0.0,0.0,0.0,0.0,0.0,0.0,0.0,0.0,0.0,0.0,0.0,0.0,0.0,0.0,0.0,0.0,0.0,0.0,0.0,0.0,0.0,0.0,0.0,0.0,0.0,0.0,0.0,0.0,0.0,0.0,0.0,0.0,0.0,0.0,0.0,0.0,0.0,0.0,0.0,0.0,0.0,0.0,0.0,0.0,0.0,0.0,0.0,0.0,0.0,0.0,0.0,0.0,0.0,0.0,0.0,0.0,0.0,0.0,0.0,0.0,0.0,0.0,0.0,0.0,0.0,0.0,0.0,0.0,0.0,0.0,0.0,0.0,0.0,0.0,0.0,0.0,0.0,0.0,0.0,0.0,0.0,0.0,0.0,0.0,0.0,0.0,0.0,0.0,0.0,0.0,0.0,0.0,0.0,0.0,0.0,0.0,0.0,0.0,0.0,0.0,0.0,0.0,0.0,0.0,0.0,0.0,0.0,0.0,0.0,0.0,0.0,0.0,0.0,0.0,0.0,0.0,0.0,0.0,0.0,0.0,0.0,0.0,0.0,0.0,0.0,0.0,0.0,0.0,0.0,0.0,0.0,0.0,0.0,0.0,0.0,0.0,0.0,0.0,0.0,0.0,0.0,0.0,0.0,0.0,0.0,0.0,0.0,0.0,0.0,0.0,0.0,0.0,0.0,0.0,0.0,0.0,0.0,0.0,0.0,0.0,0.0,0.0,0.0,0.0,0.0,0.0,0.0,0.0,0.0,0.0,0.0,0.0,0.0,0.0,0.0,0.0,0.0,0.0,0.0,0.0,0.0,0.0,0.0,0.0,0.0,0.0,0.0,0.0,0.0,0.0,0.0,0.0,0.0,0.0,0.0,0.0,0.0,0.0,0.0,0.0,0.0,0.0,0.0,0.0,0.0,0.0,0.0,0.0,0.0,0.0,0.0,0.0,0.0,0.0,0.0,0.0,0.0,0.0,0.0,0.0,0.0,0.0,0.0,0.0,0.0,0.0,0.0,0.0,0.0,0.0,0.0,0.0,0.0,0.0,0.0,0.0,0.0,0.0,0.0,0.0,0.0,0.0,0.0,0.0,0.0,0.0,0.0,0.0,0.0,0.0,0.0,0.0,0.0,0.0,0.0,0.0,0.0,0.0,0.0,0.0,0.0,0.0,0.0,0.0,0.0,0.0,0.0,0.0,0.0,0.0,0.0,0.0,0.0,0.0,0.0,0.0,0.0,0.0,0.0,0.0,0.0,0.0,0.0,0.0,0.0,0.0,0.0,0.0,0.0,0.0,0.0,0.0,0.0,0.0,0.0,0.0,0.0,0.0,0.0,0.0,0.0,0.0,0.0,0.0,0.0,0.0,0.0,0.0,0.0,0.0,0.0,0.0,0.0,0.0,0.0,0.0,0.0,0.0,0.0,0.0,0.0,0.0,0.0,0.0,0.0,0.0,0.0,0.0,0.0,0.0,0.0,0.0,0.0,0.0,0.0,0.0,0.0,0.0,0.0,0.0,0.0,0.0,0.0,0.0,0.0,0.0,0.0,0.0,0.0,0.0,0.0,0.0,0.0,0.0,0.0,0.0,0.0,0.0,0.0,0.0,0.0,0.0,0.0,0.0,0.0,0.0,0.0,0.0,0.0,0.0,0.0,0.0,0.0,0.0,0.0,0.0,0.0,0.0,0.0,0.0,0.0,0.0,0.0,0.0,0.0,0.0,0.0,0.0,0.0,0.0,0.0,0.0,0.0,0.0,0.0,0.0,0.0,0.0,0.0,0.0,0.0,0.0,0.0,0.0,0.0,0.0,0.0,0.0,0.0,0.0,0.0,0.0,0.0,0.0,0.0,0.0,0.0,0.0,0.0,0.0,0.0,0.0,0.0,0.0,0.0,0.0,0.0,0.0,0.0,0.0,0.0,0.0,0.0,0.0,0.0,0.0,0.0,0.0,0.0,0.0,0.0,0.0,0.0,0.0,0.0,0.0,0.0,0.0,0.0,0.0,0.0,0.0,0.0,0.0,0.0,0.0,0.0,0.0,0.0,0.0,0.0,0.0,0.0,0.0,0.0,0.0,0.0,0.0,0.0,0.0,0.0,0.0,0.0,0.0,0.0,0.0,0.0,0.0,0.0,0.0,0.0,0.0,0.0,0.0,0.0,0.0,0.0,0.0,0.0,0.0,0.0,0.0,0.0,0.0,0.0,0.0,0.0,0.0,0.0,0.0,0.0,0.0,0.0,0.0,0.0,0.0,0.0,0.0,0.0,0.0,0.0,0.0,0.0,0.0,0.0,0.0,0.0,0.0,0.0,0.0,0.0,0.0,0.0,0.0,0.0,0.0,0.0,0.0,0.0,0.0,0.0,0.0,0.0,0.0,0.0,0.0,0.0,0.0,0.0,0.0,0.0,0.0,0.0,0.0,0.0,0.0,0.0,0.0,0.0,0.0,0.0,0.0,0.0,0.0,0.0,0.0,0.0,0.0,0.0,0.0,0.0,0.0,0.0,0.0,0.0,0.0,0.0,0.0,0.0,0.0,0.0,0.0,0.0,0.0,0.0,0.0,0.0,0.0,0.0,0.0,0.0,0.0,0.0,0.0,0.0,0.0,0.0,0.0,0.0,0.0,0.0,0.0,0.0,0.0,0.0,0.0,0.0,0.0,0.0,0.0,0.0,0.0,0.0,0.0,0.0,0.0,0.0,0.0,0.0,0.0,0.0,0.0,0.0,0.0,0.0,0.0,0.0,0.0,0.0,0.0,0.0,0.0,0.0,0.0,0.0,0.0,0.0,0.0,0.0,0.0,0.0,0.0,0.0,0.0,0.0,0.0,0.0,0.0,0.0,0.0,0.0,0.0,0.0,0.0,0.0,0.0,0.0,0.0,0.0,0.0,0.0,0.0,0.0,0.0,0.0,0.0,0.0,0.0,0.0,0.0,0.0,0.0,0.0,0.0,0.0,0.0,0.0,0.0,0.0,0.0,0.0,0.0,0.0,0.0,0.0,0.0,0.0,0.0,0.0,0.0,0.0,0.0,0.0,0.0,0.0,0.0,0.0,0.0,0.0,0.0,0.0,0.0,0.0,0.0,0.0,0.0,0.0,0.0,0.0,0.0,0.0,0.0,0.0,0.0,0.0,0.0,0.0,0.0,0.0,0.0,0.0,0.0,0.0,0.0,0.0,0.0,0.0,0.0,0.0,0.0,0.0,0.0,0.0,0.0,0.0,0.0,0.0,0.0,0.0,0.0,0.0,0.0,0.0,0.0,0.0,0.0,0.0,0.0,0.0,0.0,0.0,0.0,0.0,0.0,0.0,0.0,0.0,0.0,0.0,0.0,0.0,0.0,0.0,0.0,0.0,0.0,0.0,0.0,0.0,0.0,0.0,0.0,0.0,0.0,0.0,0.0,0.0,0.0,0.0,0.0,0.0,0.0,0.0,0.0,0.0,0.0,0.0,0.0,0.0,0.0,0.0,0.0,0.0,0.0,0.0,0.0,0.0,0.0,0.0,0.0,0.0,0.0,0.0,0.0,0.0,0.0,0.0,0.0,0.0,0.0,0.0,0.0,0.0,0.0,0.0,0.0,0.0,0.0,0.0,0.0,0.0,0.0,0.0,0.0,0.0,0.0,0.0,0.0,0.0,0.0,0.0,0.0,0.0,0.0,0.0,0.0,0.0,0.0,0.0,0.0,0.0,0.0,0.0,0.0,0.0,0.0,0.0,0.0,0.0,0.0,0.0,0.0,0.0,0.0,0.0,0.0,0.0,0.0,0.0,0.0,0.0,0.0,0.0,0.0,0.0,0.0,0.0,0.0,0.0,0.0,0.0,0.0,0.0,0.0,0.0,0.0,0.0,0.0,0.0,0.0,0.0,0.0,0.0,0.0,0.0,0.0,0.0,0.0,0.0,0.0,0.0,0.0,0.0,0.0,0.0,0.0,0.0,0.0,0.0,0.0,0.0,0.0,0.0,0.0,0.0,0.0,0.0,0.0,0.0,0.0,0.0,0.0,0.0,0.0,0.0,0.0,0.0,0.0,0.0,0.0,0.0,0.0,0.0,0.0,0.0,0.0,0.0,0.0,0.0,0.0,0.0,0.0,0.0,0.0,0.0,0.0,0.0,0.0,0.0,0.0,0.0,0.0,0.0,0.0,0.0,0.0,0.0,0.0,0.0,0.0,0.0,0.0,0.0,0.0,0.0,0.0,0.0,0.0,0.0,0.0,0.0,0.0,0.0,0.0,0.0,0.0,0.0,0.0,0.0,0.0,0.0,0.0,0.0,0.0,0.0,0.0,0.0,0.0,0.0,0.0,0.0,0.0,0.0,0.0,0.0,0.0,0.0,0.0,0.0,0.0,0.0,0.0,0.0,0.0,0.0,0.0,0.0,0.0,0.0,0.0,0.0,0.0,0.0,0.0,0.0,0.0,0.0,0.0,0.0,0.0,0.0,0.0,0.0,0.0,0.0,0.0,0.0,0.0,0.0,0.0,0.0,0.0,0.0,0.0,0.0,0.0,0.0,0.0,0.0,0.0,0.0,0.0,0.0,0.0,0.0,0.0,0.0,0.0,0.0,0.0,0.0,0.0,0.0,0.0,0.0,0.0,0.0,0.0,0.0,0.0,0.0,0.0,0.0,0.0,0.0,0.0,0.0,0.0,0.0,0.0,0.0,0.0,0.0,0.0,0.0,0.0,0.0,0.0,0.0,0.0,0.0,0.0,0.0,0.0,0.0,0.0,0.0,0.0,0.0,0.0,0.0,0.0,0.0,0.0,0.0,0.0,0.0,0.0,0.0,0.0,0.0,0.0,0.0,0.0,0.0,0.0,0.0,0.0,0.0,0.0,0.0,0.0,0.0,0.0,0.0,0.0,0.0,0.0,0.0,0.0,0.0,0.0,0.0,0.0,0.0,0.0,0.0,0.0,0.0,0.0,0.0,0.0,0.0,0.0,0.0,0.0,0.0,0.0,0.0,0.0,0.0,0.0,0.0,0.0,0.0,0.0,0.0,0.0,0.0,0.0,0.0,0.0,0.0,0.0,0.0,0.0,0.0,0.0,0.0,0.0,0.0,0.0,0.0,0.0,0.0,0.0,0.0,0.0,0.0,0.0,0.0,0.0,0.0,0.0,0.0,0.0,0.0,0.0,0.0,0.0,0.0,0.0,0.0,0.0,0.0,0.0,0.0,0.0,0.0,0.0,0.0,0.0,0.0,0.0,0.0,0.0,0.0,0.0,0.0,0.0,0.0,0.0,0.0,0.0,0.0,0.0,0.0,0.0,0.0,0.0,0.0,0.0,0.0,0.0,0.0,0.0,0.0,0.0,0.0,0.0,0.0,0.0,0.0,0.0,0.0,0.0,0.0,0.0,0.0,0.0,0.0,0.0,0.0,0.0,0.0,0.0,0.0,0.0,0.0,0.0,0.0,0.0,0.0,0.0,0.0,0.0,0.0,0.0,0.0,0.0,0.0,0.0,0.0,0.0,0.0,0.0,0.0,0.0,0.0,0.0,0.0,0.0,0.0,0.0,0.0,0.0,0.0,0.0,0.0,0.0,0.0,0.0,0.0,0.0,0.0,0.0,0.0,0.0,0.0,0.0,0.0,0.0,0.0,0.0,0.0,0.0,0.0,0.0,0.0,0.0,0.0,0.0,0.0,0.0,0.0,0.0,0.0,0.0,0.0,0.0,0.0,0.0,0.0,0.0,0.0,0.0,0.0,0.0,0.0,0.0,0.0,0.0,0.0,0.0,0.0,0.0,0.0,0.0,0.0,0.0,0.0,0.0,0.0,-4.0226,-3.9233,0.0,0.0,0.0,0.0,0.0,0.0,0.0,0.0,0.0,0.0,0.0,0.0,0.0,0.0,0.0,0.0,0.0,0.0,0.0,0.0,0.0,0.0,0.0,-4.8087,-4.8536,-4.9164,-4.9807,-5.0196,-5.0212,-5.084,0.0,0.0,0.0,0.0,-4.7643,-4.7829,-4.6892,-4.4722,-4.4917,-4.534,-4.595,-4.5637,-4.3964,-4.1246,0.0,0.0,0.0,0.0,0.0,0.0,0.0,0.0,0.0,0.0,0.0,0.0,0.0,0.0,0.0,0.0,0.0,0.0,0.0,0.0,0.0,0.0,0.0,0.0,0.0,0.0,0.0,0.0,0.0,0.0,0.0,0.0,0.0,0.0,0.0,0.0,0.0,0.0,0.0,0.0,0.0,0.0,0.0,0.0,0.0,0.0,0.0,0.0,0.0,0.0,0.0,0.0,0.0,0.0,0.0,0.0,0.0,0.0,0.0,0.0,0.0,0.0,0.0,0.0,0.0,0.0,0.0,0.0,0.0,0.0,-4.4356,-4.2186,0.0,0.0,0.0,0.0,0.0,0.0,0.0,0.0,0.0,0.0,0.0,0.0,0.0,0.0,0.0,0.0,0.0,0.0,0.0,0.0,0.0,-4.7698,-4.8237,-4.8596,-4.9284,-5.0435,-5.0734,-5.1152,-5.1858,-5.1697,-5.1375,-5.0983,-5.1511,-5.0478,-4.7731,-4.837,-4.7809,-4.5924,-4.6421,-4.7492,-4.9113,-5.0002,-4.8381,-4.4643,-4.3075,0.0,0.0,0.0,0.0,0.0,0.0,0.0,0.0,0.0,0.0,0.0,0.0,0.0,0.0,0.0,0.0,0.0,0.0,0.0,0.0,0.0,0.0,0.0,0.0,0.0,0.0,0.0,0.0,0.0,0.0,0.0,0.0,0.0,0.0,0.0,0.0,0.0,0.0,0.0,0.0,0.0,0.0,0.0,0.0,0.0,0.0,0.0,0.0,0.0,0.0,0.0,0.0,0.0,0.0,0.0,0.0,0.0,0.0,0.0,0.0,0.0,0.0,0.0,-5.1309,-5.238,-5.3713,-5.4314,-5.4889,-5.5151,-5.0603,-4.7283,-4.5036,-4.4643,0.0,0.0,0.0,0.0,0.0,0.0,0.0,0.0,0.0,0.0,0.0,0.0,0.0,0.0,0.0,0.0,0.0,0.0,0.0,-4.8177,-4.8267,-4.9823,-5.1139,-5.1887,-5.2995,-5.3952,-5.461,-5.362,-5.3001,-5.2932,-5.1119,-4.9883,-4.9464,-4.8219,-4.7385,-4.7043,-4.9584,-5.1465,-5.2746,-5.4811,-5.5465,-5.4628,-4.9035,-4.7362,-4.8486,0.0,0.0,0.0,0.0,0.0,0.0,0.0,0.0,0.0,0.0,0.0,0.0,0.0,0.0,0.0,0.0,0.0,0.0,0.0,0.0,0.0,0.0,0.0,0.0,0.0,0.0,0.0,0.0,0.0,0.0,0.0,0.0,0.0,0.0,0.0,0.0,0.0,0.0,0.0,0.0,0.0,-4.1793,-4.1871,0.0,0.0,0.0,0.0,0.0,0.0,0.0,0.0,0.0,0.0,0.0,0.0,0.0,-5.0838,-5.3034,-5.5072,-5.6223,-5.6536,-5.8104,-5.8706,-5.847,-5.9072,-5.9647,-6.0222,-6.0457,0.0,-4.9714,-4.7702,0.0,0.0,0.0,0.0,0.0,0.0,0.0,0.0,0.0,0.0,0.0,0.0,0.0,0.0,0.0,0.0,0.0,0.0,0.0,0.0,0.0,-5.071,-5.2129,-5.1776,-5.4383,-5.5359,-5.3708,-5.4918,-5.4537,-5.1933,-5.2153,-5.1432,-4.9462,-4.8965,-4.9266,-5.0237,-5.4079,-5.6562,-5.7765,-5.9411,-6.0195,-6.0065,-5.6954,-5.4184,-5.1648,-4.8303,0.0,0.0,0.0,0.0,0.0,0.0,0.0,0.0,0.0,0.0,0.0,0.0,0.0,0.0,0.0,0.0,0.0,0.0,0.0,0.0,0.0,0.0,0.0,0.0,0.0,0.0,0.0,0.0,0.0,0.0,0.0,0.0,0.0,0.0,0.0,0.0,0.0,0.0,0.0,-4.3258,-4.4722,-4.3755,-4.4983,-4.4696,0.0,0.0,0.0,0.0,0.0,0.0,0.0,0.0,0.0,-5.2929,-5.4707,-5.6562,-5.8549,-6.0535,-6.2182,-6.3463,-6.4221,-6.4979,-6.5684,-6.5946,-6.6364,-6.6913,-6.7096,-6.4273,-5.9176,-5.4889,-5.0864,-4.7122,0.0,0.0,0.0,0.0,-4.07,-4.0781,0.0,0.0,0.0,0.0,0.0,0.0,0.0,0.0,0.0,0.0,0.0,0.0,-4.9609,-5.2234,-5.3919,-5.3721,-5.647,-5.7221,-5.4781,-5.5981,-5.5317,-5.1986,-5.2991,-5.2368,-4.9774,-5.0717,-5.2314,-5.4471,-5.8653,-6.1529,-6.3123,-6.4404,-6.5188,-6.5423,-6.4691,-6.1267,-5.5804,-5.2589,-5.0237,-4.8407,0.0,0.0,0.0,0.0,0.0,0.0,0.0,0.0,0.0,0.0,0.0,0.0,0.0,0.0,0.0,0.0,0.0,0.0,0.0,0.0,0.0,0.0,0.0,0.0,0.0,0.0,0.0,0.0,0.0,0.0,0.0,0.0,0.0,0.0,0.0,0.0,0.0,-4.6316,-4.7728,-4.5872,-4.8329,-4.8172,0.0,0.0,0.0,0.0,0.0,0.0,-5.2642,-5.4262,-5.6458,-5.9359,-6.1267,-6.3071,-6.4796,-6.6233,-6.7906,-6.9762,-6.9605,-7.0285,-7.1696,-7.1539,-7.1696,-7.2036,-7.1487,-6.984,-6.7148,-6.1372,-5.6353,-5.2082,-4.9379,-4.7329,-4.5739,-4.4547,-4.41,-4.3982,0.0,0.0,0.0,0.0,0.0,0.0,0.0,0.0,0.0,0.0,0.0,-5.0304,-5.2473,-5.4967,-5.7394,-5.9634,-6.0125,-6.0431,-6.0914,-5.6918,-5.4657,-5.4968,-5.289,-5.1652,-5.1465,-5.3674,-5.6474,-5.983,-6.2809,-6.5711,-6.8398,-7.018,-7.1565,-7.2533,-7.1435,-6.8037,-6.2783,-5.7216,-5.4759,-5.4184,-4.8564,0.0,0.0,0.0,0.0,0.0,0.0,0.0,0.0,0.0,0.0,0.0,0.0,0.0,0.0,0.0,0.0,0.0,0.0,0.0,0.0,0.0,0.0,0.0,0.0,0.0,0.0,0.0,0.0,0.0,0.0,0.0,0.0,0.0,0.0,0.0,0.0,0.0,0.0,-4.8277,-5.2459,0.0,0.0,0.0,0.0,-5.0446,-5.3556,-5.6223,-5.8026,-6.0797,-6.362,-6.6495,-6.8821,-7.0834,-7.2533,-7.3186,-7.3892,-7.4545,-7.397,-7.4049,-7.4676,-7.4101,-7.3839,-7.3839,-7.3238,-7.2271,-7.0703,-6.4926,-6.0169,-5.6275,-5.3961,-5.2426,-5.1126,-4.7906,-4.7004,-4.6991,0.0,0.0,0.0,0.0,0.0,-4.7369,-4.7549,-4.7967,-4.8446,-4.891,-5.0574,-5.2325,-5.3951,-5.8016,-6.097,-6.1862,-6.3633,-6.3846,-6.1934,-5.9896,-5.7798,-5.5723,-5.4223,-5.3714,-5.4341,-5.7765,-6.1032,-6.4116,-6.8481,-7.1356,-7.2768,-7.3735,-7.4388,-7.478,-7.4362,-7.2742,-6.9893,-6.3384,-5.8915,-5.5804,-5.1126,-4.7754,0.0,0.0,0.0,0.0,0.0,0.0,0.0,0.0,0.0,0.0,0.0,0.0,0.0,0.0,0.0,0.0,0.0,0.0,0.0,0.0,0.0,0.0,0.0,0.0,0.0,0.0,0.0,0.0,0.0,0.0,0.0,0.0,0.0,0.0,0.0,0.0,0.0,-5.5935,-5.9516,0.0,-5.4733,-5.5151,-5.6223,-5.7346,-5.9934,-6.2862,-6.6103,-6.7592,-6.9657,-7.2559,-7.3447,-7.4362,-7.5355,-7.5591,-7.5983,-7.6532,-7.5565,-7.5617,-7.6532,-7.5538,-7.5329,-7.5617,-7.4258,-7.3238,-7.2271,-6.9501,-6.5763,-6.148,-5.8481,-5.6346,-5.4683,-5.2178,-5.0864,-5.011,0.0,0.0,0.0,0.0,0.0,-4.7189,-4.7848,-4.8327,-4.8746,-4.9008,-5.1699,-5.4205,-5.5866,-6.0962,-6.4622,-6.5633,-6.6756,-6.6338,-6.3855,-6.1238,-5.8467,-5.5767,-5.5005,-5.5708,-5.7895,-6.1738,-6.5397,-6.8899,-7.2925,-7.5303,-7.6061,-7.661,-7.6976,-7.7159,-7.6767,-7.6166,-7.512,-6.9736,-6.4351,-5.9019,-5.4602,-5.1544,-4.9244,0.0,0.0,0.0,0.0,0.0,0.0,0.0,0.0,0.0,0.0,0.0,0.0,0.0,0.0,0.0,0.0,0.0,0.0,0.0,0.0,0.0,0.0,0.0,0.0,0.0,0.0,0.0,0.0,0.0,0.0,0.0,0.0,0.0,0.0,-5.6824,-6.1032,-6.1607,-6.5423,-6.6103,-6.1293,-6.2077,-6.3332,-6.4508,-6.6913,-6.9579,-7.248,-7.3343,-7.4624,-7.6532,-7.6767,-7.7081,-7.7473,-7.729,-7.7473,-7.8021,-7.6662,-7.6532,-7.742,-7.6244,-7.593,-7.6218,-7.4676,-7.3787,-7.3291,-7.1748,-6.9344,-6.6284,-6.3413,-6.1274,-5.9489,-5.72,-5.5404,-5.3542,0.0,0.0,0.0,0.0,0.0,-4.6488,-4.7189,-4.8416,-4.9175,-4.869,-5.2365,-5.5872,-5.8307,-6.3729,-6.8403,-7.1304,-6.9422,-6.7828,-6.7148,-6.0687,-5.6355,-5.5191,-5.5203,-5.7425,-6.2051,-6.5501,-6.9501,-7.4127,-7.5852,-7.729,-7.8414,-7.8989,-7.9537,-8.0034,-7.8936,-7.844,-7.8283,-7.6009,-7.1121,-6.4456,-5.9176,-5.6615,-5.536,0.0,0.0,0.0,0.0,0.0,0.0,0.0,0.0,0.0,0.0,0.0,0.0,0.0,0.0,0.0,0.0,0.0,0.0,0.0,0.0,0.0,0.0,0.0,0.0,0.0,0.0,0.0,0.0,0.0,0.0,0.0,0.0,0.0,-5.4262,-6.0875,-6.5397,-6.5005,-6.9893,-7.133,-6.6338,-6.9344,-7.1618,-7.1644,-7.4258,-7.6113,-7.6715,-7.7786,-7.8387,-7.8387,-7.891,-7.9172,-7.9172,-7.8597,-7.857,-7.9093,-7.7394,-7.6898,-7.742,-7.6244,-7.5721,-7.5643,-7.4493,-7.3996,-7.3813,-7.1539,-7.0624,-7.0415,-6.8664,-6.7034,-6.5482,-6.2979,-6.0313,-5.7274,0.0,0.0,0.0,-4.3667,-4.4693,-4.574,-4.7103,-4.8416,-4.9426,-4.9785,-5.3811,-5.8054,-6.1798,-6.7005,-7.1565,-7.4885,-7.2297,-6.9684,-6.7854,-6.1322,-5.6904,-5.5726,-5.7686,-6.1189,-6.6233,-6.9318,-7.2716,-7.6505,-7.8231,-7.9459,-8.0191,-8.0792,-8.1132,-8.1289,-8.1393,-8.121,-8.0714,-7.8806,-7.6166,-7.2663,-6.5345,-6.0561,-5.7346,0.0,0.0,0.0,0.0,0.0,0.0,0.0,0.0,0.0,0.0,0.0,0.0,0.0,0.0,0.0,0.0,0.0,0.0,0.0,0.0,0.0,0.0,0.0,0.0,0.0,0.0,0.0,0.0,0.0,0.0,0.0,-5.6405,-6.0509,-6.1006,-6.5737,-7.0494,-7.4101,-7.6296,-7.7107,-7.6113,-7.6244,-7.6584,-7.7002,-7.8152,-7.9093,-7.9668,-7.9616,-7.9747,-8.0165,-7.9511,-7.9172,-7.9172,-7.8204,-7.7786,-7.7917,-7.6584,-7.6479,-7.742,-7.6244,-7.5721,-7.5643,-7.4493,-7.3761,-7.3238,-7.1775,-7.0938,-7.0389,-6.8194,-6.7067,-6.6432,-6.3915,-6.1113,-5.8103,0.0,0.0,0.0,-4.3472,-4.4486,-4.5575,-4.7073,-4.8177,-4.9153,-4.9896,-5.4898,-5.9702,-6.3271,-6.8711,-7.3134,-7.5669,-7.2271,-6.8899,-6.6338,-6.0614,-5.7571,-5.8054,-6.1091,-6.5188,-7.0389,-7.3108,-7.6035,-7.9276,-8.0505,-8.1524,-8.2334,-8.2935,-8.3327,-8.3589,-8.3667,-8.338,-8.2752,-8.1263,-7.9747,-7.7917,-7.2219,-6.7514,-6.3437,-5.9019,-5.6876,-5.5857,-5.34,-5.2825,-5.2877,-5.0629,0.0,0.0,0.0,0.0,0.0,0.0,0.0,0.0,0.0,0.0,0.0,0.0,0.0,0.0,0.0,0.0,0.0,0.0,0.0,0.0,0.0,0.0,0.0,0.0,-6.1894,-6.6782,-6.9422,-7.214,-7.5303,-7.9302,-8.0478,-8.121,-8.1785,-8.1236,-8.0871,-8.0975,-8.1289,-8.1289,-8.0897,-8.0557,-8.0322,-8.0165,-7.9511,-7.9172,-7.9172,-7.8048,-7.7577,-7.7812,-7.6375,-7.6192,-7.7081,-7.614,-7.5591,-7.5329,-7.4414,-7.3656,-7.3003,-7.1618,-7.0886,-7.0442,0.0,0.0,0.0,0.0,-6.111,-5.8281,0.0,0.0,-4.2067,-4.2898,-4.4187,-4.5568,-4.689,-4.7758,-4.861,-4.9539,-5.5511,-6.0689,-6.3195,-6.8952,-7.3212,-7.4676,-7.0494,-6.6521,-6.3489,-5.9464,-5.8543,-6.1541,-6.5237,-6.9448,-7.4388,-7.6767,-7.9302,-8.2073,-8.2569,-8.3406,-8.4556,-8.5105,-8.5654,-8.615,-8.568,-8.5157,-8.4556,-8.3484,-8.2334,-8.108,-7.891,-7.5486,-7.1121,-6.5737,-6.3907,-6.3724,-6.0457,-5.7843,-5.5804,-5.4863,0.0,0.0,0.0,0.0,0.0,0.0,0.0,0.0,0.0,0.0,0.0,0.0,0.0,0.0,0.0,0.0,0.0,0.0,0.0,0.0,0.0,0.0,0.0,0.0,-6.7017,-7.1931,-7.7969,-7.8858,-7.9694,-8.1811,-8.2962,-8.3798,-8.4373,-8.4373,-8.4112,-8.3537,-8.3484,-8.2726,-8.0975,-8.0871,0.0,0.0,0.0,-7.9067,-7.9067,-7.7943,-7.7577,-7.7995,-7.6453,-7.5983,-7.6505,-7.5957,-7.5382,-7.478,-7.4232,-7.363,-7.2898,-7.1278,-7.052,-7.0337,-6.9657,-6.869,-6.7294,-6.3859,-6.1192,-5.8813,0.0,-4.0646,-4.1352,-4.2957,-4.3737,-4.4507,-4.555,-4.716,-4.8786,-5.0023,-5.5039,-5.9503,-6.2089,-6.6704,-7.0886,-7.3918,-6.9553,-6.4979,-6.1136,-6.0065,-6.1237,-6.5161,-6.9957,-7.4075,-7.742,-7.9747,-8.189,-8.385,-8.3955,-8.4608,-8.5758,-8.6307,-8.6621,-8.6752,-8.7117,-8.6961,-8.6359,-8.5706,-8.4739,-8.3537,-8.2177,-7.8361,-7.3186,-7.0232,-6.8298,-6.6887,-6.4796,-6.5188,-6.6181,-6.2835,-6.1241,-6.0195,-5.7399,-5.3347,0.0,0.0,0.0,0.0,0.0,0.0,0.0,0.0,0.0,0.0,0.0,0.0,0.0,0.0,0.0,0.0,0.0,0.0,0.0,-6.6286,-7.1958,-7.7211,-8.1236,-8.2204,-8.2831,-8.3746,-8.4033,-8.4399,-8.4974,-8.4608,-8.4112,-8.3537,-8.3484,-8.2726,-8.0975,-8.0871,-8.0557,-7.9877,-7.8962,-7.8492,-7.8492,-7.7342,-7.6584,-7.6218,-7.5878,0.0,-7.5878,-7.5774,-7.5146,-7.4179,-7.4049,-7.3421,-7.2376,-7.1095,-7.0049,-6.9082,-6.8011,-6.6887,-6.5788,-6.5048,-6.4346,-6.342,0.0,-4.0303,-4.1029,-4.2415,-4.3455,-4.4359,-4.5203,-4.6441,-4.8011,-4.999,-5.4093,-5.7799,-6.0303,-6.3653,-6.6289,-6.7792,-6.3964,-6.1012,-5.9846,-6.138,-6.456,-6.9474,-7.3866,-7.7656,-8.0844,-8.2308,-8.3903,-8.5628,-8.5628,-8.6203,-8.7353,-8.7614,-8.7902,-8.8215,-8.8503,-8.832,-8.7719,-8.717,-8.6438,-8.5549,-8.4713,-8.2439,-7.925,-7.6087,-7.4179,-7.2977,-7.1513,-7.099,-7.0651,-6.8324,-6.639,-6.4587,-6.226,-5.8366,-5.4262,0.0,0.0,0.0,0.0,0.0,0.0,0.0,0.0,0.0,0.0,0.0,0.0,0.0,0.0,-5.4759,-5.6458,0.0,-6.7592,-7.1644,-7.6166,-8.0191,-8.3066,-8.3981,-8.4451,-8.4739,-8.4765,-8.5,-8.5575,-8.5392,-8.4843,-8.3981,-8.3641,-8.2726,-8.0975,-8.0609,-8.0191,-7.9616,-7.9041,-7.8753,-7.8753,-7.7891,-7.7316,-7.7002,-7.6427,-7.6166,-7.6166,-7.5852,-7.5251,-7.4441,-7.4127,-7.3526,-7.2585,-7.1173,-6.9893,-6.8743,-6.754,-6.673,-6.6181,-6.5367,-6.4229,-6.279,0.0,-4.013,-4.1113,-4.1852,-4.3389,-4.4676,-4.5214,-4.5992,-4.7333,-4.9704,-5.289,-5.5765,-5.7966,-6.0189,-6.1176,-6.0318,-5.8565,-5.8281,-5.9989,-6.36,-6.822,-7.3866,-7.7473,-8.074,-8.3746,-8.4478,-8.5628,-8.7222,-8.7222,-8.7745,-8.8764,-8.8764,-8.9026,-8.9522,-8.9627,-8.9391,-8.8921,-8.8607,-8.8111,-8.7536,-8.7091,-8.649,-8.5471,-8.1994,-8.0034,-7.9015,-7.7865,-7.5434,-7.2742,-7.2376,-6.9945,-6.6965,-6.6129,-6.3254,-5.9568,-5.6327,-5.4916,0.0,0.0,0.0,0.0,0.0,0.0,0.0,0.0,-5.0917,-5.2276,-5.4262,-5.7425,-6.0588,-6.3018,-6.7697,-7.2454,-7.6323,-7.9433,-8.2073,-8.4059,-8.4817,-8.5236,-8.534,-8.5366,-8.5549,-8.6046,-8.5967,-8.5471,-8.4425,-8.3693,-8.2596,-8.0975,-8.0348,-7.9799,-7.9355,-7.9119,-7.9067,-7.9172,-7.8492,-7.8152,-7.8126,-7.7107,-7.661,-7.6584,-7.5983,-7.5408,-7.4859,-7.4153,-7.3369,-7.2506,-7.1147,-6.9893,-6.8743,-6.7566,-6.7096,-6.6939,-6.5415,-6.3677,-6.1802,0.0,-4.0646,-4.1852,-4.1976,-4.3773,-4.5214,-4.5274,-4.6381,-4.7703,-4.9106,-5.1535,-5.3433,-5.4413,-5.6126,-5.6537,-5.4845,-5.8189,-6.1139,-6.2936,-6.732,-7.2245,-7.7499,-8.1053,-8.3563,-8.4974,-8.6046,-8.7196,-8.8398,-8.8398,-8.8764,-8.9391,-8.9391,-8.9444,-8.9522,-9.0045,-9.0228,-9.0228,-9.0646,-9.0489,-8.9993,-8.994,-8.9235,-8.8058,-8.6595,-8.4425,-8.1994,-8.0818,-7.7917,-7.4676,-7.5094,-7.2951,-7.018,-7.052,-6.8586,-6.5292,-6.0849,-5.7399,-5.4105,-5.0002,-4.8695,-4.8773,-5.0002,-5.0394,-5.157,0.0,-5.7547,-5.9098,-6.1868,-6.5188,-6.7854,-6.8664,-7.3055,-7.6898,-7.7969,-8.0975,-8.3458,-8.4242,-8.4817,-8.5392,-8.5915,-8.5994,-8.602,-8.6072,-8.5601,-8.5026,-8.4373,-8.3327,-8.2177,-8.0949,-8.0348,-8.0008,-7.993,-7.8936,-7.8649,-7.9172,-7.81,-7.7551,-7.7551,-7.6924,-7.661,-7.6584,-7.5983,-7.5408,-7.4833,-7.3709,-7.2323,-7.086,-7.0677,-6.9893,-6.8743,-6.7592,-6.7122,-6.6939,-6.5815,-6.526,-6.4772,0.0,-4.1071,-4.2005,-4.2005,-4.3183,-4.4214,-4.4457,-4.5416,-4.6748,-4.8437,-4.9904,-5.0867,-5.1207,-5.1838,-5.2011,-5.1251,-5.5256,-5.9445,-6.321,-6.8569,-7.4049,-7.9564,-8.2805,-8.5,-8.615,-8.73,-8.8294,-8.913,-8.913,-8.9261,-8.9496,-8.9496,-8.9496,-8.9522,-8.9757,-9.0045,-9.0411,-9.0646,-9.0777,-9.0855,-9.0855,-9.0385,-8.9444,-8.7588,-8.4687,-8.1315,-7.9172,-7.6662,0.0,-7.3108,-7.1775,-7.0755,-7.1644,-6.903,-6.5109,-6.2496,-5.9072,-5.5438,-5.2406,-5.1648,-5.1858,-5.2589,-5.455,-5.7137,-6.0405,-6.2574,-6.4587,-6.7174,-7.0964,-7.4022,-7.4597,-7.8126,-8.1132,0.0,-8.3301,-8.4687,-8.5262,-8.5262,-8.4922,-8.4164,-8.4085,-8.4478,-8.5471,-8.5026,-8.4451,-8.3876,-8.2779,-8.1916,-8.1419,-8.0217,-7.9694,-8.0008,-7.925,-7.8936,-7.9172,-7.8701,-7.8283,-7.7943,-7.7368,-7.6924,-7.6584,-7.5983,-7.5225,-7.4336,-7.3474,-7.2323,-7.1043,-7.0729,-6.9893,-6.8743,-6.7566,-6.6913,-6.6521,-6.5684,-6.5239,-6.4714,0.0,-4.1561,-4.2099,-4.1394,-4.2386,-4.3507,-4.42,-4.5005,-4.6172,-4.7788,-4.8596,-4.903,-4.903,-4.903,-4.897,-4.8745,-5.2459,-5.7052,-6.2288,-6.8253,-7.4362,-8.0609,-8.3641,-8.5863,-8.7327,-8.8503,-8.9313,-8.9757,-8.9888,-8.9966,-8.9966,-8.9966,-8.9966,-8.9966,-9.0123,-9.0489,-9.0855,-9.1038,-9.1221,-9.1456,-9.1456,-9.0751,-8.9365,-8.6542,-8.2569,-7.8231,-7.6166,-7.3369,-7.0389,-6.8403,-6.7514,-6.7462,-6.8612,-6.6704,-6.3698,-6.1921,-5.8549,-5.5072,-5.3766,-5.4131,-5.5151,-5.6118,-5.9255,-6.2809,-6.5449,-6.7828,-7.0128,-7.248,-7.5983,-7.8753,-7.9198,-8.1707,-8.3798,-8.4059,-8.4843,-8.5471,-8.5601,-8.4948,-8.3798,-8.189,-8.1106,-8.1263,-8.2674,-8.3301,-8.3537,-8.3275,-8.2334,-8.1785,-8.1785,-8.0269,-7.9668,-8.0243,-7.9564,-7.925,-7.9407,-7.925,-7.8884,-7.8309,-7.7734,-7.7159,-7.6584,-7.5826,-7.4937,-7.397,-7.3212,-7.2245,-7.1121,-7.0415,-6.9527,-6.8481,-6.7331,-6.6625,-6.6207,-6.5606,-6.5109,-6.4508,0.0,0.0,-4.2426,-3.9754,-4.1532,-4.3738,-4.5053,-4.5801,-4.6488,-4.7249,-4.7908,-4.8327,-4.8327,-4.8327,-4.8057,-4.7429,-5.0829,-5.5174,-6.0359,-6.639,-7.3108,-8.0557,-8.3641,-8.6229,-8.8503,-8.9731,-9.0332,-9.0385,-9.0907,-9.1143,-9.1143,-9.1143,-9.1143,-9.1195,-9.1744,-9.2031,-9.211,-9.2633,-9.2554,-9.2084,-9.2084,-9.0385,-8.7431,-8.3458,-7.8021,-7.2559,-7.2454,-6.8089,-6.2156,-6.0927,-5.9803,-5.9072,-6.0222,-6.1633,-6.2208,-5.881,-5.4942,-5.1988,-5.3086,-5.502,-5.7529,-6.0901,-6.4351,-6.7828,-7.1252,-7.3813,-7.6113,-7.844,-8.0374,-8.1655,-8.1655,-8.3118,-8.4138,-8.3589,-8.4948,-8.568,-8.4556,-8.3432,-8.1864,-7.9537,-7.729,-7.6166,0.0,-7.9903,-8.2073,-8.2622,-8.2099,-8.1785,-8.1785,-8.0635,-8.0269,-8.0818,-7.9747,-7.9433,-7.9982,-7.9433,-7.8884,-7.8309,-7.7734,-7.7159,-7.6584,-7.546,-7.4597,-7.3944,-7.282,-7.167,-7.052,-6.937,-6.856,-6.7906,-6.6756,-6.6286,-6.6207,-6.5606,-6.5371,-6.5109,0.0,0.0,0.0,0.0,0.0,-4.4287,-4.5155,-4.5484,-4.6052,-4.716,-4.7878,0.0,0.0,0.0,0.0,0.0,-4.9956,-5.3219,-5.6996,-6.3907,-6.9885,-7.4362,-8.0322,-8.4216,-8.5732,-8.7666,-8.9052,-8.981,-8.9993,-9.0045,-9.0045,-9.0045,-9.0306,-9.0672,-9.0855,-9.1378,-9.211,-9.1848,-9.1221,-9.0306,-8.9548,-8.7745,-8.5053,-8.1027,-7.5068,-6.8324,0.0,-6.0091,-5.6536,-5.4602,-5.3949,-5.4184,-5.5726,-5.5595,-5.4393,-5.2067,-5.2589,-5.4079,-5.4863,-5.8706,-6.3149,-6.5841,-6.971,-7.3447,-7.5774,-7.776,-7.9355,-8.0139,-8.0165,-7.993,-7.9537,-7.9956,-8.0531,-8.1106,-8.2988,-8.4347,-8.4347,-8.4007,-8.2204,-7.7969,-7.6793,0.0,0.0,0.0,0.0,-8.1289,-8.0923,-8.0949,-8.1733,-8.0661,-8.0113,-8.0322,-7.9564,-7.9276,-7.9459,-7.8884,-7.8309,-7.7734,-7.6767,-7.6009,-7.546,-7.4676,-7.397,-7.3343,-7.2193,-7.1278,-7.0494,-6.9344,-6.8272,-6.7305,-6.6573,-6.605,-6.5711,-6.5894,-6.5475,-6.4691,0.0,0.0,0.0,0.0,0.0,0.0,0.0,0.0,0.0,0.0,0.0,0.0,0.0,0.0,0.0,0.0,0.0,-5.1314,-5.4285,-5.9933,-6.4841,-6.8665,-7.3804,-7.7348,-7.8982,-8.0298,-8.1825,-8.3615,-8.4079,-8.4922,-8.6124,-8.6752,-8.7353,-8.7954,-8.8346,-8.8947,-8.9601,-8.8999,-8.7614,-8.568,-8.4112,-8.1341,-7.7682,-7.3238,-6.741,0.0,-5.5334,-5.1727,-4.9427,-4.8381,-4.8381,-4.9035,-5.0159,-5.008,-4.9453,-4.893,-5.1936,-5.5883,-5.8078,-6.2862,-6.7958,-7.0886,-7.4467,-7.7656,-7.9198,-8.0243,-8.0635,-7.9825,-7.8597,-7.729,-7.6061,-7.5355,-7.5643,-7.7839,-7.9433,-8.1027,-8.2831,-8.223,-8.0191,-7.6453,-7.5094,-7.3578,0.0,0.0,0.0,-7.9067,-7.959,-8.0139,-8.1106,-8.0426,-8.0034,-8.0034,-7.9459,-7.9172,-7.9172,-7.8597,-7.7943,-7.7159,-7.6166,-7.5434,-7.4885,-7.4284,-7.3578,-7.2768,-7.1618,-7.0781,-7.018,-6.903,-6.8089,-6.7331,-6.6573,-6.605,-6.5763,-6.6129,-6.5528,-6.4456,0.0,0.0,0.0,0.0,0.0,0.0,0.0,0.0,0.0,0.0,0.0,0.0,0.0,0.0,0.0,0.0,0.0,0.0,-5.2239,-5.479,-5.8437,-6.3546,-6.4963,-6.6712,-6.916,-6.8732,-6.9802,-7.2574,-7.3901,-7.6166,-7.9433,-8.1106,-8.2177,-8.2779,-8.3903,-8.4399,-8.4347,-8.3824,-8.1602,-7.8257,-7.6009,-7.1722,-6.6155,-6.111,-5.5987,-5.0995,-4.71,-4.3833,-4.1481,-4.2605,-4.3415,-4.3964,-4.4068,-4.5663,-4.7885,-4.974,-5.3164,-5.7477,-6.2652,-6.7514,-7.201,-7.5904,-7.8544,-8.0478,-8.1498,-8.121,-8.0034,-7.7682,-7.5721,-7.3683,0.0,0.0,-6.9971,-7.3996,-7.4885,-7.6453,-8.04,-7.8649,-7.6479,0.0,0.0,0.0,0.0,0.0,0.0,-7.6218,-7.8074,-7.9302,-7.9982,-8.0034,-8.0008,-7.9982,-7.9459,-7.9172,-7.9119,-7.8544,-7.7656,-7.6532,-7.5957,-7.5382,-7.4807,-7.4205,-7.3317,-7.2193,-7.1043,-7.0232,-6.9605,-6.8429,-6.7932,-6.7828,-6.6678,-6.6233,-6.6233,-6.6233,-6.5501,-6.4404,0.0,0.0,0.0,0.0,0.0,0.0,0.0,0.0,0.0,0.0,0.0,0.0,0.0,0.0,0.0,0.0,0.0,0.0,-4.8789,-5.2202,-5.4904,-5.6431,-6.0859,-6.3854,-6.498,-6.646,-6.7622,-6.8579,-6.923,-7.0153,-7.1069,-7.1513,-7.2036,-7.2611,-7.3317,-7.3656,-7.363,-7.35,-7.167,-6.8769,-6.7331,-6.456,-6.1006,-5.7948,-5.4105,-5.0028,-4.7728,-4.4487,-4.1428,-4.2134,-4.3624,-4.5401,-4.6682,-4.8381,-5.0655,-5.455,-5.8836,-6.3358,-6.8141,-7.3447,-7.8074,-7.9982,-8.155,-8.2334,-8.1341,-7.9668,-7.7446,-7.4258,-7.052,-6.6965,0.0,0.0,0.0,-7.0494,-7.499,0.0,-8.1785,-8.1916,0.0,-7.7211,0.0,-7.3892,-7.2585,-7.1958,0.0,-7.5721,-7.6349,-7.7603,-7.9903,-8.0034,-7.9825,-7.9407,-7.925,-7.8962,-7.8544,-7.7551,-7.6479,-7.5329,-7.5199,-7.4571,-7.3552,-7.3003,-7.2323,-7.1565,-7.0415,-6.984,-6.9579,-6.7985,-6.7305,-6.72,-6.605,-6.5606,-6.5606,-6.5606,-6.4874,-6.3907,0.0,0.0,0.0,0.0,0.0,0.0,0.0,0.0,0.0,0.0,0.0,0.0,0.0,0.0,0.0,0.0,0.0,0.0,0.0,-4.8689,-5.0039,-5.1384,-5.381,-5.5464,-5.6205,-5.7307,-5.8392,-5.9466,-6.0017,-6.1095,-6.2705,-6.2966,-6.3384,-6.3959,-6.4822,-6.5188,-6.5136,-6.49,-6.3123,0.0,0.0,-5.6144,-5.3112,-5.1047,-4.8695,-4.6342,-4.5114,-4.4225,-4.3833,-4.5401,-4.6813,-4.8381,-5.11,-5.3504,-5.617,-6.0535,-6.4717,-6.8821,-7.2951,-7.7525,-8.1315,-8.1994,-8.2439,-8.1942,-7.8936,-7.6662,-7.3709,-6.8481,-6.4717,-6.1476,-5.8601,-6.0013,-6.2888,0.0,0.0,0.0,-8.0609,-8.1393,-8.074,0.0,-7.7185,0.0,-7.4754,-7.3683,-7.4101,-7.6662,-7.6401,-7.7028,-7.9172,-7.9511,-7.9511,-7.9172,-7.9172,-7.8779,-7.7943,-7.7054,-7.6035,-7.4911,-7.4911,-7.4284,-7.3108,-7.2794,-7.2062,-7.1017,-7.0363,-6.9788,-6.9239,-6.7985,-6.7488,-6.7357,-6.6233,-6.5789,-6.5737,-6.5475,-6.4665,-6.3672,0.0,0.0,0.0,0.0,0.0,0.0,0.0,0.0,0.0,0.0,-4.8357,-4.8641,0.0,0.0,0.0,0.0,0.0,0.0,0.0,0.0,-4.5401,-4.776,-4.6316,-4.586,-4.6686,-4.6481,-4.7208,-4.8919,-4.9432,-5.1243,-5.421,-5.4811,-5.536,-5.595,-5.6981,-5.7399,-5.7268,-5.6876,-5.5151,-5.2537,-5.0551,-4.7858,-4.4824,0.0,-4.25,-4.1977,-4.1507,-4.3337,-4.6578,-5.0237,-5.1675,-5.2642,-5.6771,-5.9986,-6.3071,-6.7279,-7.0755,-7.397,-7.7525,-8.0792,-8.3145,-8.3014,-8.2308,-8.0426,-7.5748,-7.2846,-6.9108,-6.1921,0.0,-5.6641,-5.3896,-5.5151,-5.8314,-6.3672,0.0,-7.3291,-7.8753,-7.9381,-7.9302,-7.9381,-7.8387,-7.7525,-7.7107,-7.5617,-7.5774,-7.8361,-7.7551,-7.7394,-7.8387,-7.891,-7.9119,-7.9067,-7.8989,-7.844,-7.7368,-7.6767,-7.5957,-7.4911,-7.4833,-7.4205,-7.3108,-7.2951,-7.2036,-7.0598,-7.052,-6.984,-6.8711,-6.822,-6.7932,-6.7775,-6.6704,-6.6233,-6.6103,-6.5475,-6.4587,-6.3672,0.0,0.0,0.0,0.0,0.0,0.0,0.0,0.0,0.0,0.0,-4.7775,-4.6682,0.0,0.0,0.0,0.0,0.0,0.0,0.0,0.0,0.0,-4.4997,-4.4252,-4.4329,-4.5473,-4.4988,-4.4717,-4.4749,-4.4858,-4.5019,-4.5271,-4.5846,-4.6159,-4.629,-4.697,-4.6996,-4.6578,-4.6996,-4.6316,-4.4931,-4.4539,-4.3441,-4.203,-4.1716,0.0,0.0,-4.135,-4.2317,-4.48,-5.2433,-5.6301,-5.8706,-6.3227,-6.6286,-6.9187,-7.4205,-7.6767,-7.8832,-8.2779,-8.4974,-8.5915,-8.4974,-8.2883,-7.9694,-7.4624,-6.9161,0.0,0.0,-5.4314,-5.1544,-4.9584,-5.2616,-5.7399,-6.3541,-6.8403,-7.3735,-8.04,-8.0478,-8.006,0.0,-7.9564,-7.9015,-7.9407,-7.8727,0.0,0.0,-7.9093,-7.8806,-7.9015,-7.9119,-7.8962,-7.8492,-7.8021,-7.7446,-7.6767,-7.6166,-7.5538,-7.4885,-7.4388,-7.3787,-7.3081,-7.2114,-7.1304,-7.0572,-7.0076,-6.9474,-6.8711,-6.822,-6.7697,-6.7174,-6.6547,-6.5972,-6.5475,-6.49,-6.4247,-6.362,0.0,0.0,0.0,0.0,0.0,0.0,0.0,-4.6976,-4.7906,-5.1327,-5.0298,-4.9071,-4.8593,-4.6911,-4.5779,0.0,0.0,0.0,0.0,0.0,0.0,0.0,-4.337,-4.3227,-4.3456,-4.4003,-4.398,-4.3347,0.0,-4.3118,-4.3023,-4.2683,-4.2552,-4.2552,-4.284,-4.2788,-4.2552,-4.2866,-4.2657,-4.2134,-4.2134,-4.1821,-4.1324,0.0,0.0,0.0,0.0,-4.3023,-4.6081,-5.1439,-5.6981,-6.2705,-6.8847,-7.235,-7.4963,-7.8989,-8.074,-8.2099,-8.5236,-8.6464,-8.6542,-8.5105,-8.1681,-7.6976,-7.0572,0.0,0.0,0.0,-5.0342,-4.8747,-4.7885,-5.1518,0.0,-6.0274,-6.4822,-7.0154,-7.6793,-7.7499,0.0,-8.0609,-8.0661,-8.0635,0.0,-8.0139,-7.9851,-8.0426,-7.9668,-7.9172,-7.9172,-7.8884,-7.8597,-7.8335,-7.7473,-7.6898,-7.661,-7.6009,-7.5434,-7.4885,-7.4284,-7.3683,-7.3081,-7.2245,-7.1409,-7.0572,-7.0285,-6.9657,-6.8685,-6.788,-6.7357,-6.7017,-6.6155,-6.5632,-6.5318,-6.4743,-6.4351,-6.3985,0.0,0.0,0.0,0.0,0.0,0.0,-4.9553,-4.964,-5.0596,-5.3999,-5.338,-5.2035,-5.0354,-4.7835,-4.6078,0.0,0.0,0.0,0.0,0.0,0.0,0.0,0.0,0.0,0.0,0.0,0.0,-4.2756,-4.2587,0.0,0.0,0.0,0.0,0.0,-4.1324,-4.1324,-4.1324,-4.1324,-4.1324,0.0,0.0,-4.1324,0.0,0.0,0.0,0.0,0.0,-4.3441,-4.6708,-4.9897,-5.5726,-6.2888,-7.0076,-7.499,-7.857,-8.0871,-8.2622,-8.4321,-8.649,-8.7091,-8.6647,-8.4791,-8.006,-7.3944,-6.6678,-6.0614,0.0,-4.9035,-4.7257,-4.6756,-4.6887,-5.0132,-5.3739,0.0,-6.064,-6.5684,-7.2663,-7.4232,-7.6166,0.0,0.0,0.0,-8.1785,-8.1053,0.0,-8.1053,-8.0008,-7.925,-7.8989,-7.857,-7.8204,-7.7969,-7.7081,-7.6558,-7.6427,-7.5957,-7.5512,-7.5068,-7.4336,-7.3761,-7.3264,-7.248,-7.1565,-7.0598,-7.0468,-6.9814,-6.8685,-6.7723,-6.72,-6.6991,-6.5972,-6.5501,-6.5318,-6.4874,-6.456,-6.4247,0.0,0.0,0.0,0.0,0.0,0.0,-4.8925,-4.9545,-5.1715,-5.7569,-5.5424,-5.2937,-5.1834,-4.9391,-4.6867,0.0,0.0,0.0,0.0,0.0,0.0,0.0,0.0,0.0,0.0,0.0,0.0,-4.1998,-4.1607,0.0,0.0,0.0,0.0,0.0,0.0,-4.1324,-4.1324,-4.1324,0.0,0.0,0.0,0.0,0.0,0.0,0.0,0.0,0.0,-4.1899,-4.3546,-4.9505,0.0,-5.6118,-6.2051,-7.0206,-7.7603,-7.7865,0.0,0.0,-8.7222,-8.7719,-8.717,-8.4896,-7.8832,-7.1748,-6.5292,0.0,-5.1779,-4.7519,-4.5741,-4.514,-4.5689,-4.697,-4.974,0.0,-5.7765,-6.2208,-7.12,0.0,0.0,0.0,0.0,0.0,-8.1785,-8.2151,-8.2204,-8.1733,-8.0609,-7.9485,-7.844,-7.8335,-7.7839,-7.6793,-7.6662,-7.6349,-7.58,-7.5748,-7.5695,-7.5617,-7.4519,-7.397,-7.3866,-7.2219,-7.1147,-7.0572,-7.0023,-6.9422,-6.8711,-6.8168,-6.7592,-6.7017,-6.6442,-6.5867,-6.5371,-6.5318,-6.4639,-6.3803,0.0,0.0,0.0,0.0,0.0,0.0,-4.9374,-4.9948,-5.1725,-5.6562,-5.6451,-5.5395,-5.3856,-5.159,-4.8362,-4.3767,0.0,0.0,0.0,0.0,0.0,0.0,0.0,0.0,0.0,0.0,-4.1392,-4.1523,-4.1392,0.0,0.0,0.0,0.0,0.0,0.0,-4.1324,-4.1324,-4.1324,0.0,0.0,0.0,0.0,0.0,0.0,0.0,0.0,0.0,0.0,-4.4042,-4.6212,0.0,0.0,-5.3321,-5.9751,0.0,0.0,-7.8074,-8.1968,-8.6124,-8.751,-8.7248,-8.4922,-7.7917,-7.0206,-6.49,0.0,-5.008,-4.71,-4.5558,-4.485,-4.5451,-4.629,-4.7911,-5.1256,-5.2067,-5.5046,-6.2888,0.0,0.0,0.0,-7.7734,0.0,0.0,0.0,-8.223,-8.1315,-8.0165,-7.9015,-7.7865,-7.7812,-7.7446,-7.6636,-7.627,-7.5957,-7.5721,-7.5721,-7.5565,-7.5225,-7.4388,-7.3813,-7.3421,-7.2036,-7.1095,-7.0572,-6.9945,-6.9187,-6.8272,-6.7723,-6.7122,-6.6547,-6.5972,-6.5815,-6.592,-6.592,-6.5632,-6.5214,0.0,0.0,0.0,0.0,0.0,-4.6352,-4.9464,-5.0471,-5.2063,-5.5385,-5.6187,-5.6032,-5.4815,-5.1769,-4.8279,-4.4456,-4.2658,0.0,0.0,0.0,0.0,0.0,0.0,0.0,0.0,0.0,-4.1324,-4.1324,-4.1324,-4.1324,0.0,0.0,-4.1324,-4.1324,0.0,0.0,0.0,0.0,0.0,0.0,0.0,0.0,0.0,0.0,0.0,0.0,0.0,0.0,0.0,0.0,0.0,0.0,-4.7597,-5.1492,-5.8418,0.0,-7.3421,-7.8387,-8.3275,-8.5654,-8.6307,-8.4321,-7.6767,-6.8664,0.0,0.0,-4.9008,-4.6708,-4.5428,-4.4853,-4.5297,-4.5689,-4.6525,-4.8277,-4.8643,-5.0995,-5.7582,-5.9437,0.0,0.0,0.0,-7.6166,-8.0191,-8.1681,-8.1968,-8.0949,-7.9982,-7.8858,-7.7525,-7.7473,-7.7107,-7.6375,-7.593,-7.5721,-7.5721,-7.5565,-7.5277,-7.4885,-7.4127,-7.3526,-7.3055,-7.1748,-7.0964,-7.0546,-6.9788,-6.8978,-6.8194,-6.7436,-6.6887,-6.6442,-6.5684,-6.5632,-6.6024,-6.6024,-6.592,-6.5737,0.0,0.0,0.0,0.0,0.0,0.0,-4.891,-5.1062,-5.3029,-5.4876,-5.435,-5.3936,-5.4197,-4.9113,-4.6107,-4.7179,-4.4487,0.0,0.0,0.0,0.0,0.0,0.0,0.0,0.0,0.0,-4.1324,-4.1324,-4.1324,-4.1324,-4.1324,-4.1324,-4.1324,-4.1324,0.0,0.0,0.0,0.0,0.0,0.0,0.0,0.0,-4.3023,0.0,0.0,0.0,0.0,0.0,0.0,0.0,0.0,0.0,0.0,-4.731,-4.9897,-5.8,-6.7279,-7.5565,-7.8466,-8.1759,-8.4085,-8.2935,-7.5277,-6.6965,0.0,-5.5308,-4.8433,-4.6107,-4.5085,-4.4668,-4.4694,-4.4694,-4.5268,-4.7074,-4.8773,-5.1884,-5.7686,-6.0483,0.0,0.0,0.0,-7.1356,-7.5382,-7.9433,-8.1524,-8.0923,-8.0348,-7.9276,-7.7551,-7.7473,-7.6924,-7.5748,-7.5721,-7.5721,-7.5721,-7.5172,-7.4911,-7.4885,-7.3683,-7.3108,-7.3055,-7.1356,-7.0598,-7.052,-6.937,-6.8764,-6.8659,-6.7619,-6.7122,-6.6965,-6.5841,-6.5371,-6.5397,-6.5397,-6.5031,-6.4639,0.0,0.0,0.0,0.0,0.0,0.0,-4.4611,-4.5891,-4.7509,-4.9364,-4.9771,-5.0385,-5.1721,-4.8486,-4.6369,-4.6708,-4.3703,0.0,0.0,0.0,0.0,0.0,0.0,0.0,0.0,-4.1324,-4.1899,-4.3075,-4.3075,-4.3284,-4.3676,-4.3258,-4.2657,-4.1873,-4.1481,-4.1324,0.0,0.0,0.0,0.0,0.0,-4.3441,-4.365,0.0,0.0,0.0,0.0,0.0,0.0,0.0,0.0,0.0,0.0,0.0,0.0,-5.1021,-5.8967,-6.7462,-7.1121,-7.4075,-7.5565,-7.3212,-6.7619,-6.1947,-5.9098,-5.3269,-4.8041,-4.6525,-4.5428,-4.4668,-4.4668,-4.4668,-4.5558,-4.812,-4.8982,-5.0655,0.0,0.0,0.0,-6.6834,-7.3656,-7.8597,0.0,-8.0871,-8.108,-8.0897,-7.9616,-7.844,-7.7525,-7.7107,-7.6532,-7.5748,-7.5721,-7.5538,-7.5172,-7.499,-7.4493,-7.3683,-7.3291,-7.2925,-7.2533,-7.1592,-7.0938,-7.0546,-6.9762,-6.8978,-6.8194,-6.7436,-6.6887,-6.6469,-6.5684,-6.5632,-6.5998,-6.5998,-6.5894,-6.5684,0.0,0.0,0.0,0.0,0.0,0.0,-4.262,-4.3594,-4.4814,-4.5942,-4.6115,-4.7147,-4.9827,-4.6787,-4.514,-4.6656,-4.3441,0.0,0.0,0.0,0.0,0.0,0.0,0.0,-4.1324,-4.1324,-4.2474,-4.4853,-4.5062,-4.5689,-4.6708,-4.6552,-4.5297,-4.3127,-4.2997,-4.2448,0.0,0.0,0.0,0.0,-4.3964,-4.4199,-4.4225,0.0,0.0,0.0,0.0,0.0,0.0,0.0,0.0,0.0,0.0,0.0,0.0,0.0,-5.3008,-5.9072,-6.4195,-6.7775,-6.9605,-6.7802,-6.3437,-5.9019,-5.6928,-5.2171,-4.7911,-4.6996,-4.5872,-4.514,-4.5349,-4.5036,-4.5454,-4.7728,-4.846,-4.9766,-5.2642,0.0,0.0,-6.6782,-7.4205,0.0,-7.9956,-8.0348,-8.0557,-8.0557,-7.9172,-7.8074,-7.7499,-7.6924,-7.6323,-7.5721,-7.5512,-7.5251,-7.4911,-7.4467,-7.3839,-7.3108,-7.2898,-7.2611,-7.2271,-7.1461,-7.0912,-7.0546,-6.9736,-6.8978,0.0,-6.7671,-6.7096,-6.6547,-6.5946,-6.5815,-6.5946,-6.5946,-6.5946,-6.5867,0.0,0.0,0.0,0.0,0.0,0.0,0.0,-4.3561,-4.432,-4.4296,-4.3486,-4.433,-4.812,-4.4225,-4.2814,-4.6521,-4.3493,0.0,0.0,0.0,0.0,0.0,0.0,0.0,-4.1324,-4.1324,-4.3023,-4.6552,-4.7074,-4.825,-5.0028,-5.0551,-4.8643,-4.4772,-4.5375,-4.4382,-4.2395,0.0,0.0,0.0,-4.4513,-4.4668,0.0,0.0,0.0,0.0,0.0,0.0,0.0,0.0,0.0,0.0,0.0,0.0,0.0,0.0,0.0,0.0,0.0,-6.2234,-6.5214,-6.5083,-6.1424,-5.7425,-5.5804,-5.1675,0.0,-4.744,-4.6447,-4.5872,-4.6447,-4.5584,-4.5218,-4.6499,-4.7623,-4.9296,-5.2145,-5.6379,-6.1502,0.0,-7.2036,-7.4859,-7.58,-7.8387,-8.0008,-7.9956,-7.891,-7.8021,-7.742,-7.6871,-7.627,-7.5669,-7.512,-7.4833,-7.4833,-7.3735,-7.3134,-7.3055,-7.2533,-7.2271,-7.2193,-7.1147,-7.0598,-7.0468,-6.937,-6.879,-6.8711,-6.822,-6.7645,-6.707,-6.6495,-6.592,-6.5371,-6.5371,-6.5371,-6.5292,0.0,0.0,0.0,0.0,0.0,0.0,0.0,0.0,0.0,0.0,-4.1867,-4.2082,-4.3049,-4.2056,-4.169,0.0,0.0,0.0,0.0,0.0,0.0,0.0,0.0,0.0,-4.1324,-4.1324,-4.3232,-4.7127,-4.7257,-4.8669,-5.1178,-5.0917,-4.8878,-4.5373,-4.5558,-4.4826,-4.3546,-4.3808,0.0,0.0,-4.467,-4.4668,0.0,0.0,0.0,0.0,-4.4668,-4.4668,0.0,0.0,0.0,0.0,0.0,0.0,0.0,0.0,-4.7153,-4.8381,-5.0446,0.0,-5.4733,-5.3452,-5.2197,-5.1204,0.0,-4.9401,-4.8015,-4.744,-4.6761,-4.6447,-4.7022,-4.6186,-4.6212,-4.8695,-4.9322,-5.0368,-5.2825,-6.0457,-6.7645,-7.2689,-7.6819,-7.8858,-7.7812,-7.9119,-7.9851,-7.9407,-7.8309,-7.742,-7.6845,-7.6244,-7.5669,-7.512,-7.4519,-7.4232,-7.4232,-7.3944,-7.3369,-7.248,-7.2376,-7.2062,-7.1592,-7.133,-7.0729,-6.9893,-6.9605,-6.9239,-6.8711,-6.822,-6.7645,-6.7044,-6.6495,-6.592,-6.5371,-6.5371,-6.5371,-6.5292,0.0,0.0,0.0,0.0,0.0,0.0,0.0,0.0,0.0,0.0,-4.1324,-4.1324,-4.1324,-4.1324,-4.1324,0.0,0.0,0.0,0.0,0.0,0.0,0.0,0.0,-4.1324,-4.1324,-4.1324,-4.3676,-4.8512,-4.8773,-5.0655,-5.3975,-5.3687,-5.1282,-4.7153,-4.5532,-4.4617,-4.4278,-4.4565,-4.4696,-4.4774,-4.5323,0.0,0.0,0.0,0.0,0.0,-4.4668,-4.4668,0.0,-4.5973,-4.6365,-4.6365,0.0,0.0,0.0,0.0,-4.6447,-4.7336,-4.7388,-4.9061,-5.0655,-5.0028,-4.9662,-4.9453,-4.9453,-4.8799,-4.8094,-4.778,-4.7257,-4.7048,-4.7623,-4.6787,-4.6682,-4.8773,-4.9557,-5.1727,-5.6981,-6.3201,-6.9318,-7.5016,-7.7603,-7.8962,-7.9093,-7.9198,-7.9119,-7.8806,-7.7734,-7.6924,-7.6636,-7.6035,-7.546,-7.4937,-7.4597,-7.4153,-7.3604,-7.3343,-7.2925,-7.2297,-7.2297,-7.1984,-7.1382,-7.1147,-7.0546,-6.9684,-6.9422,-6.8978,-6.8429,-6.8115,-6.7619,-6.7044,-6.6495,-6.6076,-6.5763,-6.5475,-6.5371,-6.5292,0.0,0.0,0.0,0.0,0.0,0.0,0.0,0.0,0.0,0.0,0.0,0.0,0.0,0.0,0.0,0.0,0.0,0.0,0.0,0.0,0.0,0.0,-4.1324,-4.1428,-4.169,-4.1533,-4.4147,-4.9636,-5.0498,-5.2851,-5.6562,-5.6902,-5.4314,-4.9191,-4.5976,-4.4591,-4.4774,-4.532,-4.5268,-4.4957,-4.6055,0.0,0.0,0.0,0.0,0.0,0.0,0.0,0.0,-4.6495,-4.7017,-4.7017,-4.7017,0.0,0.0,0.0,0.0,0.0,-4.7127,-4.8564,-5.0054,-5.0237,-4.9949,-4.9636,-4.9636,-4.8878,-4.8172,-4.8172,-4.7806,-4.7623,-4.8224,-4.7597,-4.7362,-4.8407,-4.9976,-5.4001,-6.2417,-6.5684,-6.9474,-7.5617,-7.6819,-7.7734,-7.9224,-7.8727,-7.8257,-7.8074,-7.7159,-7.6584,-7.6479,-7.5983,-7.5434,-7.478,-7.478,-7.4205,-7.3003,-7.2611,-7.2323,-7.2167,-7.2167,-7.1801,-7.1121,-7.0677,-7.0128,-6.9527,-6.8952,-6.8481,-6.8115,-6.7932,-6.754,-6.7044,-6.6495,-6.6233,-6.6076,-6.558,-6.5371,-6.5292,0.0,0.0,0.0,0.0,0.0,0.0,0.0,0.0,0.0,0.0,0.0,0.0,0.0,0.0,0.0,0.0,0.0,0.0,0.0,0.0,0.0,-4.1324,-4.1324,-4.2004,-4.3441,-4.2578,-4.4147,-4.8433,-5.0472,-5.2798,-5.5412,-5.7346,-5.5491,-5.0446,-4.8433,-4.6473,-4.4774,-4.532,-4.5584,-4.5558,-4.6212,0.0,0.0,0.0,0.0,0.0,0.0,0.0,0.0,-4.5581,-4.5842,-4.5842,-4.5842,0.0,0.0,0.0,0.0,0.0,-4.9348,-5.0394,-5.0211,-4.8329,-4.8146,-4.8433,-4.8433,-4.8303,-4.8172,-4.8172,-4.812,-4.8224,-4.8826,-4.9165,-4.9584,-5.0289,-5.3818,-5.8993,-6.6181,-6.9605,-7.2323,-7.4859,-7.7734,-7.8675,-7.6584,-7.7551,-7.7917,-7.695,-7.6715,-7.6401,-7.5878,-7.5774,-7.5225,-7.4179,-7.4153,-7.3604,-7.2428,-7.2794,-7.2506,-7.1539,-7.1539,-7.099,-6.9945,-6.9866,-6.9527,-6.8952,-6.8377,-6.835,-6.8638,-6.7645,-6.7174,-6.7044,-6.6495,-6.5972,-6.5501,-6.5423,-6.5371,-6.5292,0.0,0.0,0.0,0.0,0.0,0.0,0.0,0.0,0.0,0.0,0.0,0.0,0.0,0.0,0.0,0.0,0.0,0.0,0.0,0.0,-4.1873,-4.3101,-4.2866,-4.3075,-4.3912,-4.4278,-4.6787,-5.1439,-5.4053,-5.6536,-5.8784,-5.7007,-5.4262,-5.0681,-4.7989,-4.6212,-4.5164,-4.5451,-4.582,-4.6133,0.0,0.0,0.0,0.0,0.0,0.0,0.0,0.0,0.0,0.0,-4.6495,-4.6495,-4.6495,0.0,0.0,0.0,0.0,0.0,-4.8486,-4.9139,-4.9348,-4.9244,-4.9871,-5.0263,-4.9322,-4.9113,-4.9113,-4.9113,-4.9113,-4.9296,-4.9897,-5.0969,-5.2798,-5.5883,-5.9437,-6.3489,-6.8246,-7.0598,-7.282,-7.5512,-7.6924,-7.7551,-7.7159,-7.729,-7.7185,-7.6662,-7.6323,-7.6009,-7.5721,-7.5721,-7.5199,-7.4049,-7.3996,-7.3447,-7.2323,-7.2219,-7.1931,-7.1409,-7.1409,-7.0807,-6.9684,-6.9684,-6.9213,-6.8377,-6.8115,-6.7775,-6.741,-6.6887,-6.6652,-6.6599,-6.6024,-6.5815,-6.5841,-6.5501,-6.5371,-6.5345,0.0,0.0,0.0,0.0,0.0,0.0,0.0,0.0,0.0,0.0,0.0,0.0,0.0,0.0,0.0,0.0,0.0,0.0,0.0,-4.1428,-4.2291,-4.4042,-4.4356,-4.4931,-4.5872,-4.7048,-5.0159,-5.5203,-5.8235,-6.0771,-6.2652,-5.7712,-5.3975,-5.1256,-4.8041,-4.6316,-4.5846,-4.5921,-4.6264,-4.6734,0.0,0.0,0.0,0.0,0.0,0.0,0.0,0.0,0.0,0.0,0.0,0.0,0.0,0.0,0.0,-4.6473,-4.6447,-4.7017,-4.7754,-4.8146,-4.8747,-5.0211,-5.123,-5.1727,-5.1047,-5.0681,-5.0603,-5.1021,-5.0995,-5.0995,-5.1335,-5.3138,-5.6301,-6.1502,-6.4743,-6.7645,-7.0677,-7.1984,-7.3656,-7.6479,-7.6401,-7.6584,-7.7812,-7.7133,-7.6558,-7.6427,-7.5983,-7.5721,-7.5721,-7.5721,-7.5199,-7.4049,-7.3996,-7.3447,-7.2323,-7.1696,-7.133,-7.12,-7.1069,-7.0468,-6.9474,-6.937,-6.8821,-6.7985,-6.7697,-6.7174,-6.6442,-6.6181,-6.6155,-6.6233,-6.5632,-6.5658,-6.6024,-6.5554,-6.5371,-6.5371,0.0,0.0,0.0,0.0,0.0,0.0,0.0,0.0,0.0,0.0,0.0,0.0,0.0,0.0,0.0,0.0,0.0,0.0,0.0,-4.1794,-4.2238,-4.2395,-4.4933,-4.8041,-5.1805,-5.1465,-5.353,-5.8209,-6.1633,-6.3933,-6.5057,-6.0927,-5.6928,-5.3112,-5.0655,-4.8407,-4.6447,-4.6996,-4.7174,-4.7252,-4.7885,0.0,0.0,0.0,0.0,0.0,0.0,0.0,0.0,0.0,0.0,0.0,0.0,0.0,-4.6055,-4.6887,-4.6469,-4.6342,-4.8982,-4.9374,-4.9165,-4.9793,-5.0028,-5.0734,-5.3321,-5.306,-5.2772,-5.4393,-5.4288,-5.3739,-5.3295,-5.5909,-5.9856,-6.5057,-6.8324,-7.1409,-7.4807,-7.5826,-7.6532,-7.7316,-7.7368,-7.7185,-7.6767,-7.6662,-7.6375,-7.5826,-7.5748,-7.5721,-7.5721,-7.5721,-7.5199,-7.4049,-7.3996,-7.3447,-7.2323,-7.1696,-7.1147,-7.0651,-7.0076,-6.9501,-6.8899,-6.835,-6.8063,-6.7932,-6.6861,-6.6652,-6.6939,-6.5894,-6.5789,-6.6233,-6.5632,-6.5423,-6.5449,-6.5397,-6.5371,-6.5397,0.0,0.0,0.0,0.0,0.0,0.0,0.0,0.0,0.0,0.0,0.0,0.0,0.0,0.0,0.0,0.0,0.0,0.0,0.0,-4.1716,-4.2605,-4.4748,-4.6238,-4.8564,-5.1858,-5.455,-5.834,-6.3358,-6.6076,-6.6913,-6.5815,-6.0326,-5.6013,-5.2694,-4.9662,-4.8224,-4.8068,-4.7545,-4.7937,-4.8878,-4.8381,-4.8172,0.0,0.0,0.0,0.0,0.0,0.0,0.0,0.0,-4.5898,-4.582,-4.5924,-4.629,-4.673,-4.7148,-4.6965,-4.6917,-4.8015,-4.8695,-4.9296,-5.0211,-5.0707,-5.1622,-5.4184,-5.5255,-5.6092,-5.7477,-5.8157,-5.8314,-5.7739,-5.9882,-6.3071,-6.72,-7.0912,-7.4101,-7.6453,-7.7316,-7.776,-7.7969,-7.7368,-7.6845,-7.6636,-7.627,-7.5957,-7.5721,-7.5721,-7.5565,-7.5225,-7.5199,-7.4676,-7.3474,-7.3447,-7.2898,-7.1748,-7.1173,-7.0598,-7.0023,-6.9448,-6.8873,-6.8298,-6.7697,-6.7253,-6.6913,-6.6469,-6.6181,-6.5998,-6.5554,-6.5528,-6.5711,-6.5475,-6.5371,-6.5371,-6.5371,-6.5371,-6.5397,0.0,0.0,0.0,0.0,0.0,0.0,0.0,0.0,0.0,0.0,0.0,0.0,0.0,0.0,0.0,0.0,0.0,0.0,-4.2211,-4.1977,-4.284,-4.5036,-4.6552,-4.8669,-5.1544,-5.6693,-6.1346,-6.5449,-6.8298,-6.8246,-6.5345,-5.9699,-5.5935,-5.3713,-5.0237,-4.9427,-5.0603,-4.9061,-4.8982,-4.9793,-4.8643,-4.8172,0.0,0.0,0.0,0.0,0.0,0.0,0.0,0.0,-4.6186,-4.6238,-4.6395,-4.6734,-4.7127,-4.7492,-4.7466,-4.7226,-4.71,-4.778,-4.8773,-4.974,-5.0943,-5.272,-5.5987,-5.7634,-5.915,-6.1581,-6.1999,-6.179,-6.1398,-6.2757,-6.5031,-6.8298,-7.2245,-7.5512,-7.7211,-7.7656,-7.7786,-7.7786,-7.6924,-7.6323,-7.6323,-7.5957,-7.5643,-7.546,-7.546,-7.5199,-7.465,-7.4441,-7.3892,-7.2872,-7.2663,-7.2114,-7.1147,-7.0415,-6.984,-6.9422,-6.8481,-6.8011,-6.7958,-6.72,-6.6625,-6.6286,-6.6076,-6.5763,-6.5371,-6.5371,-6.5371,-6.5371,-6.5371,-6.5371,-6.5371,-6.5371,-6.5371,-6.5397,0.0,0.0,0.0,0.0,0.0,0.0,0.0,0.0,-4.1324,-4.1324,0.0,0.0,0.0,0.0,0.0,0.0,0.0,0.0,-4.2264,-4.2709,-4.2762,-4.2264,-4.548,-4.8643,-5.1465,-5.7791,-6.1921,-6.3698,-6.7697,-6.7592,-6.3541,-5.9516,-5.7346,-5.6641,-5.3164,-5.2589,-5.4027,-5.1753,-5.0446,-4.9819,-4.8643,-4.8198,-4.8198,0.0,0.0,0.0,0.0,0.0,0.0,0.0,-4.6521,-4.595,-4.7649,-4.7414,-4.6734,-4.7858,-4.7806,-4.7231,-4.6656,-4.6917,-4.7492,-4.8068,-5.0394,-5.3896,-5.9072,-6.0248,-6.1738,-6.6939,-6.5737,-6.3724,-6.3724,-6.4195,-6.5501,-6.832,-7.2245,-7.5512,-7.7211,-7.6976,-7.661,-7.661,-7.6061,-7.5695,-7.5721,-7.5695,-7.5486,-7.4937,-7.4885,-7.465,-7.4022,-7.3421,-7.2846,-7.2297,-7.1696,-7.1121,-7.0598,-6.9422,-6.8764,-6.8711,-6.7096,-6.6887,-6.7932,-6.6782,-6.6286,-6.6233,-6.5632,-6.5371,-6.5371,-6.5371,-6.5371,-6.5371,-6.5371,-6.5371,-6.5371,-6.5371,-6.5371,-6.5318,0.0,0.0,0.0,0.0,0.0,0.0,0.0,0.0,-4.1324,-4.1324,-4.1324,0.0,0.0,0.0,0.0,0.0,0.0,0.0,-4.3415,-4.2762,-4.2709,-4.3389,-4.5532,-4.6734,-4.6761,-5.2642,-5.9124,-6.6103,-6.6913,-6.5005,-6.0588,-5.8183,-5.6118,-5.4393,-5.3713,-5.3269,-5.2877,-5.0969,-5.0524,-5.0969,-4.9427,-4.8826,-4.8826,0.0,0.0,0.0,0.0,0.0,0.0,0.0,0.0,0.0,-4.7885,-4.825,-4.8381,-4.8721,-4.8956,-4.8826,-4.7466,-4.8094,-4.9374,-5.0342,-5.2746,-5.6249,-6.1476,-6.2652,-6.4012,-6.8821,-6.8168,-6.6704,-6.6704,-6.7174,-6.8115,-6.9814,-7.2428,-7.4885,-7.661,-7.6715,-7.661,-7.661,-7.5748,-7.5303,-7.5669,-7.499,-7.4624,-7.4885,-7.4519,-7.3839,-7.2872,-7.2637,-7.2088,-7.1121,-7.052,-6.9919,-6.937,-6.8612,-6.8037,-6.7592,-6.6704,-6.6469,-6.6756,-6.5998,-6.5658,-6.5632,-6.5475,-6.5371,-6.5345,-6.4953,-6.4796,-6.4796,-6.4796,-6.5031,-6.5371,-6.5371,-6.5371,-6.5318,0.0,0.0,0.0,0.0,0.0,0.0,0.0,0.0,-4.1324,-4.1324,-4.1507,-4.1794,0.0,0.0,0.0,0.0,0.0,0.0,-4.3546,-4.2892,-4.2814,-4.3493,-4.4983,-4.6421,-4.778,-5.238,-5.7033,-6.1685,-6.2705,-6.1293,-5.7686,-5.7791,-5.7216,-5.617,-5.7399,-5.7059,-5.5465,-5.3713,-5.272,-5.2197,-5.0943,-5.0289,-5.008,0.0,0.0,0.0,0.0,0.0,0.0,0.0,0.0,0.0,-4.8015,-4.8277,-4.8433,-4.8669,-4.8956,-4.8982,-4.7937,-4.893,-5.0681,-5.2537,-5.5334,-5.9045,-6.4482,-6.6808,-6.869,-7.1958,-7.1069,-6.971,-6.971,-6.9605,-6.9919,-7.1095,-7.3003,-7.4807,-7.6061,-7.6061,-7.593,-7.593,-7.512,-7.4676,-7.499,-7.4414,-7.397,-7.3892,-7.3526,-7.282,-7.1696,-7.1409,-7.086,-6.9919,-6.9318,-6.8743,-6.8141,-6.7592,-6.7122,-6.6756,-6.6181,-6.592,-6.592,-6.5554,-6.5371,-6.5371,-6.5371,-6.524,-6.5005,-6.4665,-6.4404,-6.4195,-6.4195,-6.4404,-6.4717,-6.4717,-6.4717,-6.4665,0.0,0.0,-4.2481,-4.2402,0.0,0.0,0.0,0.0,0.0,0.0,-4.1847,-4.2264,0.0,0.0,0.0,0.0,0.0,0.0,0.0,-4.3127,-4.3154,-4.3258,-4.4407,-4.7414,-5.2302,-5.4889,-5.5125,-5.3008,-5.6379,-5.6954,-5.4942,-5.7895,-5.9594,-6.0248,-6.2496,-6.2208,-5.9856,-5.7974,-5.5647,-5.3191,-5.2694,-5.2119,-5.1518,0.0,0.0,0.0,0.0,0.0,0.0,0.0,0.0,0.0,-4.8068,-4.7911,-4.7597,-4.8041,-4.825,-4.8329,-4.8329,-4.961,-5.1675,-5.4733,-5.8261,-6.2443,-6.7906,-7.167,-7.4284,-7.5277,-7.3944,-7.2585,-7.248,-7.1618,-7.1226,-7.2219,-7.3709,-7.4937,-7.5486,-7.5146,-7.4833,-7.4833,-7.4258,-7.3892,-7.3996,-7.3866,-7.3369,-7.2376,-7.2193,-7.1644,-7.0494,-6.9866,-6.9291,-6.8607,-6.8115,-6.7566,-6.7017,-6.6469,-6.6207,-6.6181,-6.5606,-6.5318,-6.5318,-6.5345,-6.5345,-6.5292,-6.524,-6.49,-6.4378,-6.4378,-6.4064,-6.3593,-6.3593,-6.362,-6.3672,-6.3672,-6.3672,-6.3672,0.0,0.0,-4.0889,-4.2757,0.0,0.0,0.0,0.0,0.0,0.0,0.0,0.0,0.0,0.0,0.0,0.0,0.0,0.0,0.0,-4.3938,-4.4095,-4.5036,-4.7048,-4.9296,-5.1727,-5.1518,-5.0943,-5.0002,-5.3034,-5.4001,-5.3138,-5.6928,-5.8993,-5.962,-6.1502,-6.0797,-5.8,-5.4916,-5.2981,-5.2014,-5.2354,-5.1884,-5.1021,-5.1439,0.0,0.0,0.0,0.0,0.0,0.0,0.0,0.0,-4.8564,-4.8799,-4.8643,-4.8277,-4.8826,-4.9531,-4.9531,-5.0812,-5.3138,-5.7399,-6.2757,-6.7802,-7.086,-7.282,-7.3944,-7.3709,-7.4362,-7.4702,-7.3813,-7.3447,-7.3186,-7.2977,-7.3238,-7.3709,-7.4284,-7.4284,-7.4205,-7.4205,-7.3291,-7.3029,-7.3918,-7.2768,-7.2062,-7.2271,-7.1461,-7.0442,-6.9291,-6.8664,-6.8089,-6.7488,-6.6939,-6.6599,-6.6442,-6.5867,-6.558,-6.558,-6.4979,-6.4717,-6.4743,-6.5188,-6.5136,-6.4691,-6.4247,-6.3724,-6.3201,-6.3201,-6.3123,-6.3018,-6.3018,-6.328,-6.3672,-6.3672,-6.3672,-6.362,0.0,0.0,0.0,0.0,0.0,0.0,0.0,0.0,0.0,0.0,0.0,0.0,0.0,0.0,0.0,0.0,0.0,0.0,0.0,-4.4042,-4.4643,-4.6369,-4.8669,-5.0054,-5.0394,-5.0054,-4.9218,-4.7832,-4.9348,-5.0917,-5.2589,-5.6353,-5.8993,-6.0666,-6.213,-6.1032,-5.7921,-5.5569,-5.4053,-5.3269,-5.3295,-5.3138,-5.2825,-5.2563,-5.1204,-4.9401,-4.8826,0.0,0.0,0.0,0.0,0.0,0.0,0.0,-4.859,-4.8277,-4.8826,-4.9636,-5.0159,-5.2406,-5.5987,-6.1999,-6.6808,-7.052,-7.2297,-7.3134,-7.3578,-7.3552,-7.4702,-7.546,-7.4597,-7.4441,-7.4232,-7.363,-7.3526,-7.3656,-7.397,-7.3761,-7.3578,-7.3578,-7.2559,-7.2114,-7.2716,-7.1696,-7.0912,-7.0651,-7.0102,-6.9239,-6.8063,-6.7723,-6.7305,-6.673,-6.6155,-6.5841,-6.5841,-6.5005,-6.4691,-6.4979,-6.4404,-6.4116,-6.4142,-6.443,-6.4404,-6.4116,-6.3803,-6.3358,-6.2835,-6.2835,-6.2652,-6.2417,-6.2417,-6.26,-6.2862,-6.2862,-6.2862,-6.2809,0.0,0.0,0.0,0.0,0.0,0.0,0.0,0.0,0.0,0.0,0.0,0.0,0.0,0.0,0.0,0.0,0.0,0.0,0.0,0.0,0.0,-4.7388,-4.961,-5.0394,-4.9531,-4.9766,-4.893,-4.6917,-4.7022,-4.9139,-5.3138,-5.6118,-5.915,-6.2156,-6.2783,-6.1424,-5.8549,-5.6798,-5.5412,-5.4341,-5.4027,-5.4027,-5.4105,-5.3269,-5.1622,-4.9688,-4.9139,-4.8616,-4.8172,-4.8172,0.0,0.0,0.0,0.0,-4.8172,-4.8068,-4.846,-4.9191,-5.0315,-5.4027,-5.9176,-6.5998,-6.9501,-7.1539,-7.2585,-7.2977,-7.3238,-7.3735,-7.4702,-7.5251,-7.4702,-7.4597,-7.4414,-7.3813,-7.363,-7.3552,-7.3552,-7.3055,-7.2663,-7.2663,-7.1748,-7.1095,-7.1095,-7.0624,-6.984,-6.8769,-6.8612,-6.8089,-6.7017,-6.6834,-6.6547,-6.5998,-6.5501,-6.5188,-6.5083,-6.4142,-6.3907,-6.4378,-6.3803,-6.3489,-6.3384,-6.3384,-6.3437,-6.3515,-6.3437,-6.3123,-6.2679,-6.2679,-6.2391,-6.1973,-6.1973,-6.1973,-6.1973,-6.1973,-6.1973,-6.1973,0.0,0.0,0.0,0.0,0.0,0.0,0.0,0.0,0.0,0.0,-4.2552,-4.2866,0.0,0.0,0.0,0.0,0.0,0.0,-4.4617,0.0,0.0,-4.8041,-4.9819,-5.0943,-5.1256,-5.0368,-4.9505,-4.8721,-4.9218,-5.1492,-5.5465,-5.6458,-5.8993,-6.2652,-6.1293,-6.0143,-5.8993,-5.4837,-5.2406,-5.1439,-5.2354,-5.1858,-5.0629,-5.0995,-5.0342,-4.9113,-4.8512,-4.825,-4.8172,-4.8172,-4.8172,0.0,0.0,0.0,-4.8094,-4.7597,-4.7858,-4.8564,-4.9688,-5.5177,-6.1502,-6.5501,-6.8612,-7.086,0.0,0.0,-7.3134,-7.3212,-7.3761,-7.4049,-7.3447,-7.3343,-7.316,-7.2611,-7.2088,-7.1748,-7.1748,-7.1278,-7.0938,-7.0938,-7.0337,-6.9919,-6.9919,-6.9422,-6.8795,-6.8141,-6.7619,-6.7044,-6.6416,-6.5894,-6.5345,-6.4796,-6.4691,-6.4404,-6.3907,-6.375,-6.3724,-6.3776,-6.3201,-6.2679,-6.2208,-6.2208,-6.2469,-6.2914,-6.2417,-6.2156,-6.2077,-6.2077,-6.2025,-6.1973,-6.1973,-6.1973,-6.1973,-6.1973,-6.1973,-6.1973,0.0,0.0,0.0,0.0,0.0,0.0,0.0,0.0,0.0,0.0,0.0,-4.2814,0.0,0.0,0.0,-4.4589,-4.4668,-4.4824,-4.5164,-4.6264,-4.7257,-4.8146,-4.9244,-4.9949,-5.0185,-4.9688,-4.9165,-4.859,-4.9165,-5.1988,-5.6902,-5.7503,-5.9908,-6.3672,-6.0953,-5.9255,-5.8253,-5.455,-5.272,-5.2223,-5.2067,-5.2119,-5.2197,-5.1178,-5.0472,-4.9923,-4.9008,-4.8486,-4.8172,-4.8172,-4.8172,-4.8172,-4.8172,0.0,0.0,0.0,-4.8224,-4.9505,-5.3243,-5.7137,-6.1267,0.0,-6.8429,-6.984,-7.0755,-7.133,-7.1696,-7.1696,-7.1905,-7.2297,-7.2977,-7.3108,-7.282,-7.1931,-7.1565,-7.1304,-7.099,-7.0755,-7.0598,-7.0598,-6.9788,-6.9213,-6.9213,-6.8403,-6.7645,-6.707,-6.6782,-6.639,-6.5815,-6.5214,-6.4796,-6.4534,-6.3907,-6.362,-6.3672,-6.3045,-6.2731,-6.2705,-6.2469,-6.2208,-6.1973,-6.1973,-6.2104,-6.2339,-6.2077,-6.1973,-6.1973,-6.1973,-6.1973,-6.1973,-6.1973,-6.1973,-6.1973,-6.1973,-6.1973,-6.2025,0.0,0.0,0.0,0.0,0.0,0.0,0.0,0.0,0.0,0.0,0.0,0.0,0.0,0.0,0.0,0.0,-4.4774,-4.5218,-4.582,-4.6369,-4.7074,-4.7937,-4.8538,-4.8852,-4.8852,-4.8852,-4.8643,-4.8172,-4.9218,-5.2746,-5.8549,-5.9281,-6.2156,-6.6521,-6.2339,-5.983,-5.8549,-5.5386,-5.4131,-5.4105,-5.2328,-5.2197,-5.2955,-5.1544,-5.0734,-5.0263,-4.9531,-4.8826,-4.8172,-4.8172,-4.8172,-4.8172,-4.8172,-4.8172,0.0,0.0,0.0,-4.9897,-5.4628,0.0,-5.9255,-6.4325,-6.6573,-6.7906,0.0,0.0,-7.018,-7.0337,-7.0363,-7.0703,-7.1827,-7.2271,-7.2193,-7.133,-7.0938,-7.0598,-7.0206,-6.9893,-6.971,-6.971,-6.8926,-6.835,-6.822,-6.741,-6.6599,-6.5894,-6.5841,-6.558,-6.4979,-6.4534,-6.4247,-6.409,-6.328,-6.2966,-6.3227,-6.2391,-6.1973,-6.1973,-6.1973,-6.1973,-6.1973,-6.1973,-6.1973,-6.1973,-6.1973,-6.2051,-6.2182,-6.2025,-6.2051,-6.2182,-6.2025,-6.1973,-6.1973,-6.1973,-6.2077,-6.2159,0.0,0.0,0.0,0.0,0.0,0.0,0.0,0.0,0.0,0.0,0.0,0.0,-4.2997,-4.3049,-4.3258,-4.3859,-4.4931,-4.582,-4.6395,-4.697,-4.7252,-4.7304,-4.7937,0.0,-4.8224,-4.8224,-4.8224,-4.8172,-5.0394,-5.4707,-6.0953,-6.2077,-6.6207,-7.2402,-6.6207,-6.2809,-6.1476,-5.7477,-5.6118,-5.6327,-5.2955,-5.0995,-5.0211,-5.1178,-5.0551,-4.9244,-4.9688,-4.9139,-4.8172,-4.8172,-4.8172,-4.8172,-4.8172,-4.8172,-4.8172,0.0,0.0,0.0,0.0,-5.2772,0.0,-5.8261,-6.1502,-6.4534,0.0,0.0,-6.9082,-6.9631,-6.9736,-6.9605,-6.9135,-6.9971,-7.0703,-7.0651,-6.971,-6.8978,-6.8952,-6.7958,-6.7279,-6.7279,-6.7227,-6.6991,-6.6469,-6.6364,-6.5841,-6.4717,-6.4613,-6.4378,-6.3803,-6.375,-6.3463,-6.294,-6.2862,-6.2574,-6.2051,-6.1999,-6.1973,-6.1973,-6.1973,-6.1973,-6.1973,-6.1973,-6.1973,-6.1973,-6.1973,-6.2287,-6.2731,-6.2182,-6.2287,-6.2731,-6.2182,-6.1973,-6.1973,-6.1973,-6.2313,-6.2553,0.0,0.0,0.0,0.0,0.0,0.0,0.0,0.0,0.0,0.0,0.0,0.0,0.0,-4.3572,-4.3964,-4.4905,-4.5715,-4.6421,-4.6996,-4.7174,-4.7492,-4.7858,-4.8068,-4.8172,-4.8172,-4.8172,-4.8381,-4.8773,-4.9923,-5.3373,-5.8941,-6.0457,-6.3646,-6.8011,-6.5005,-6.3463,-6.2705,-5.7163,-5.4733,-5.4445,-5.2406,-5.1805,-5.2067,-5.1361,-5.1152,-5.1152,-5.0211,-4.9636,-4.927,-4.927,-4.927,-4.927,0.0,0.0,-4.9218,-4.8878,0.0,-4.8643,0.0,0.0,0.0,-5.7059,-5.9725,-6.1973,-6.3907,-6.5841,-6.7253,-6.7462,-6.7775,-6.7958,-6.7749,-6.869,-6.9344,-6.8978,-6.856,-6.8168,-6.7775,-6.7357,-6.7096,-6.7096,-6.6442,-6.6076,-6.6259,-6.5266,-6.4587,-6.4534,-6.4195,-6.3881,-6.3698,-6.3332,-6.3045,-6.2835,-6.2469,-6.2182,-6.1973,-6.1973,-6.1973,-6.1973,-6.1973,-6.1973,-6.1973,-6.1973,-6.1973,-6.1973,-6.1973,-6.2077,-6.226,-6.2051,-6.2077,-6.226,-6.2051,-6.1973,-6.1973,-6.1973,-6.2104,-6.2365,0.0,0.0,0.0,-4.7309,0.0,-4.4684,-4.4359,-4.3177,-4.2278,-4.2184,0.0,0.0,0.0,0.0,-4.4434,-4.5794,-4.6264,-4.6813,-4.7571,-4.7623,-4.7885,-4.846,-4.8486,-4.8486,-4.8486,-4.8486,-4.859,-4.8773,-4.9897,-5.2825,-5.7425,-5.9542,-6.2574,-6.6155,-6.3646,-6.3384,-6.4534,-5.9699,-5.7137,-5.6092,-5.3922,-5.3426,-5.3896,-5.3321,-5.2981,-5.272,-5.2119,-5.1178,-5.0185,-5.0185,-5.0054,-4.9897,0.0,0.0,0.0,0.0,0.0,0.0,-5.0028,0.0,0.0,0.0,-5.7059,-5.8444,-6.1555,-6.328,-6.443,-6.5005,-6.5711,-6.6233,-6.6233,-6.6704,-6.7227,-6.7619,-6.754,-6.72,-6.6599,-6.6338,-6.6155,-6.5972,-6.5266,-6.4979,-6.5371,-6.4351,-6.375,-6.3933,-6.362,-6.3306,-6.3123,-6.2757,-6.2548,-6.2548,-6.2182,-6.1973,-6.1973,-6.1973,-6.1973,-6.1973,-6.1973,-6.1973,-6.1973,-6.1973,-6.1973,-6.1973,-6.1973,-6.2077,-6.2234,-6.2051,-6.2077,-6.2234,-6.2051,-6.1973,-6.1973,-6.1973,-6.2133,-6.2398,-4.7309,-4.7309,-4.7309,-4.7339,-4.6491,-4.5492,-4.4555,-4.4369,-4.3835,-4.2515,0.0,0.0,0.0,0.0,0.0,-4.6395,-4.6578,-4.7048,-4.812,-4.8172,-4.846,-4.9061,-4.9087,-4.9087,-4.9113,-4.9113,-4.8826,-4.8277,-5.0472,-5.3321,-5.6771,-5.962,-6.3358,-6.7488,-6.2496,-6.2757,-6.6782,-6.4953,-6.3306,-6.1529,-5.7477,-5.5595,-5.5412,-5.6981,-5.5909,-5.3792,-5.536,-5.3818,-5.1021,-5.0969,-5.0577,0.0,0.0,0.0,0.0,0.0,0.0,0.0,0.0,0.0,0.0,0.0,-5.3243,-5.3949,-5.9594,-6.0483,-6.0614,-6.2365,-6.3646,-6.4456,-6.4508,-6.4064,-6.4404,-6.6625,-6.6547,-6.5998,-6.5423,-6.4848,-6.4299,-6.375,-6.3646,-6.3646,-6.3672,-6.3646,-6.341,-6.2862,-6.2809,-6.2548,-6.1999,-6.1973,-6.1973,-6.1973,-6.1973,-6.1973,-6.1973,-6.1973,-6.1973,-6.1973,-6.1973,-6.1973,-6.1973,-6.1973,-6.1973,-6.1973,-6.1973,-6.2287,-6.2757,-6.2208,-6.2287,-6.2757,-6.2182,-6.1973,-6.1973,-6.1973,-6.2374,-6.2845,-4.7309,-4.7309,-4.7459,-4.7938,-4.7213,-4.6604,-4.6789,-4.5489,-4.4667,0.0,0.0,0.0,-4.5417,-4.6766,-4.7832,-4.8329,-4.8721,-4.8721,-4.8224,-4.8172,-4.846,-4.9061,-4.9087,-4.927,-4.9662,-4.9662,-4.9793,-5.008,-5.0707,-5.2145,-5.4367,-5.6013,-5.834,-6.1136,-6.1372,-6.1502,-6.1267,-5.7451,-5.7477,-5.9725,-5.57,-5.5726,-5.8026,-5.6405,-5.6615,-5.7608,-5.6824,-5.6484,-5.6249,-5.5412,-5.4733,-5.3949,0.0,0.0,0.0,0.0,0.0,0.0,-4.8826,0.0,0.0,0.0,0.0,0.0,-5.4419,-5.6379,-5.8235,-5.996,-6.1241,-6.2443,-6.3698,-6.3776,-6.3881,-6.4508,-6.4508,-6.4351,-6.4168,-6.4012,-6.3855,-6.3698,-6.3306,-6.3227,-6.3646,-6.294,-6.2548,-6.2809,-6.2443,-6.213,-6.1973,-6.1973,-6.1973,-6.1973,-6.1973,-6.1973,-6.1973,-6.1973,-6.1973,-6.1973,-6.1973,-6.1973,-6.1973,-6.1973,-6.1973,-6.1973,-6.1973,-6.2051,-6.2182,-6.2025,-6.2077,-6.2182,-6.2025,-6.1973,-6.1973,-6.1973,-6.193,-6.1913,-4.7309,-4.7519,-4.7908,-4.8566,-4.8889,-4.894,-4.8621,-4.8104,-4.7539,0.0,0.0,0.0,-4.7784,-4.9213,-4.9949,-4.9453,-4.9505,-4.927,-4.8616,-4.8564,-4.8826,-4.9401,-4.9662,-4.9949,-5.0263,-5.0263,-5.0315,-5.042,-5.0655,-5.1309,-5.2328,-5.3739,-5.5229,-5.6771,-5.7895,-5.8366,-5.8026,-5.387,-5.4654,-5.8549,-5.7163,-5.8026,-6.0013,-5.9307,-5.9777,-6.0744,-6.0222,-5.9986,-5.9777,-5.8627,-5.719,0.0,0.0,0.0,0.0,0.0,0.0,0.0,0.0,0.0,0.0,0.0,0.0,0.0,-5.2511,-5.3975,-5.5438,-5.6902,-5.834,-5.9777,-6.1241,-6.1529,-6.1764,-6.2496,-6.26,-6.2783,-6.3254,-6.3306,-6.3227,-6.2992,-6.2679,-6.26,-6.294,-6.2365,-6.2104,-6.2443,-6.2156,-6.1973,-6.1973,-6.1973,-6.1973,-6.1973,-6.1973,-6.1973,-6.1973,-6.1738,-6.1738,-6.1973,-6.1738,-6.1738,-6.1973,-6.1973,-6.1973,-6.1973,-6.1973,-6.1973,-6.1973,-6.1973,-6.1973,-6.1973,-6.1973,-6.1973,-6.1973,-6.1973,-6.1752,-6.1581,0.0,-4.7938,-4.8686,-4.9599,-5.1139,-5.1899,-5.072,-5.162,-5.1531,0.0,-4.9643,-5.0512,-5.0743,-5.1512,-5.1596,-5.0655,-4.9897,-4.9401,-4.9296,-4.9218,-4.9427,-4.9976,-5.0498,-5.0812,-5.089,-5.089,-5.0629,-5.008,-5.0629,-5.089,-5.0917,-5.2459,-5.3452,-5.3896,-5.3478,-5.4393,-5.604,-5.3269,-5.4184,-5.7765,-6.0013,-6.1241,-6.1921,-6.4012,-6.4299,-6.3698,-6.4587,-6.3985,-6.2522,-6.1084,-5.8679,0.0,0.0,0.0,0.0,0.0,-5.0446,0.0,0.0,0.0,0.0,0.0,-5.076,0.0,-5.238,-5.2642,-5.2694,-5.3792,-5.5308,-5.6824,-5.8104,-5.8366,-5.8915,-6.0405,-6.0849,-6.1424,-6.2574,-6.2731,-6.2548,-6.2025,-6.1973,-6.1973,-6.1973,-6.1973,-6.1973,-6.1973,-6.1973,-6.1973,-6.1973,-6.1973,-6.1973,-6.1973,-6.1973,-6.1973,-6.1973,-6.1398,-6.1398,-6.1973,-6.1398,-6.1424,-6.1973,-6.1973,-6.1973,-6.1973,-6.1973,-6.1973,-6.1973,-6.1973,-6.1973,-6.1973,-6.1973,-6.1973,-6.1973,-6.1973,-6.1756,-6.1531,-4.8087,-4.8626,-4.9838,-5.2037,-5.2725,-5.3604,-5.5372,-5.4746,-5.455,-5.5819,-5.5761,-5.5783,-5.6133,-5.5101,-5.4497,-5.4707,-5.2955,-5.1439,-5.0524,-5.0002,-5.0002,-5.0603,-5.0734,-5.0995,-5.1413,-5.1439,-5.1387,-5.1256,-5.1387,-5.1439,-5.1439,-5.1779,-5.2014,-5.2119,-5.2511,-5.2642,-5.272,-5.4367,-5.5804,-5.7137,-5.8967,-6.1947,-6.5371,-6.6286,-6.7357,-6.8272,-6.7566,-6.7383,-6.7044,-6.4012,-6.1084,-5.8183,0.0,0.0,0.0,-5.1753,0.0,0.0,0.0,0.0,0.0,0.0,0.0,0.0,-5.0106,-5.089,-5.1962,-5.2694,-5.3478,-5.468,-5.6771,-5.7529,-5.7791,-5.766,-5.9202,-6.0797,-6.1973,-6.213,-6.2104,-6.1973,-6.1973,-6.1973,-6.1973,-6.1973,-6.1973,-6.1973,-6.1973,-6.1973,-6.1973,-6.1973,-6.1973,-6.1973,-6.1973,-6.1973,-6.1973,-6.1398,-6.1398,-6.1973,-6.1398,-6.1424,-6.1973,-6.1973,-6.1973,-6.1973,-6.1973,-6.1973,-6.1973,-6.1973,-6.1973,-6.1973,-6.1973,-6.1973,-6.1973,-6.1973,-6.1497,-6.1044,-4.8835,-4.9553,-5.096,-5.3294,-5.4491,-5.5807,-5.7782,-5.7921,-5.8158,-5.9076,-6.0298,-6.058,-5.9397,-5.8806,-5.7568,-5.5244,-5.3478,-5.2014,-5.0864,-5.0498,-5.0472,-5.0786,-5.1047,-5.1596,-5.2485,-5.191,-5.1884,-5.2485,-5.1884,-5.1596,-5.1596,-5.1596,-5.1596,-5.1596,-5.191,-5.1884,-5.1701,-5.3138,-5.4445,-5.5883,-6.0222,-6.3855,-6.6861,-6.8324,-6.9553,-7.0442,-6.9579,-6.9082,-6.822,-6.4195,-6.2051,0.0,-5.6013,-5.4863,-5.4811,0.0,-5.2511,-5.1962,0.0,0.0,0.0,-5.1126,0.0,0.0,0.0,-5.0368,-5.0838,-5.1126,-5.1439,-5.2171,-5.3896,-5.468,-5.5282,-5.5857,-5.7137,-5.847,-5.9647,-6.0823,-6.1555,-6.1555,-6.1293,-6.1084,-6.1084,-6.1084,-6.1215,-6.1529,-6.1816,-6.1842,-6.1555,-6.1555,-6.1555,-6.1555,-6.1267,-6.1372,-6.1973,-6.0823,-6.0823,-6.1973,-6.1084,-6.1136,-6.1973,-6.1973,-6.1973,-6.1973,-6.1973,-6.1973,-6.1973,-6.1973,-6.1973,-6.1973,-6.1973,-6.1973,-6.1973,-6.1747,-6.1268,-6.0737,-4.9613,-5.0421,-5.1887,-5.4012,-5.5897,-5.7633,-5.9249,-6.0535,-6.1275,-6.1172,-6.3593,-6.4575,-6.2558,-6.2025,-6.0483,-5.725,-5.4419,-5.2743,-5.2622,-5.1652,-5.1073,-5.0943,-5.1361,-5.2067,-5.3034,-5.2093,-5.2067,-5.3034,-5.2067,-5.1596,-5.1596,-5.1596,-5.1596,-5.1596,-5.1596,-5.1727,-5.1936,-5.2067,-5.3426,-5.6066,-6.2104,-6.5109,-6.6312,-6.9291,-7.0624,-7.0912,-7.0912,-7.018,-6.8533,-6.4351,-6.3045,-6.2234,-5.6876,-5.6092,0.0,0.0,0.0,0.0,0.0,0.0,0.0,0.0,0.0,-5.1596,0.0,0.0,0.0,-5.0106,0.0,0.0,0.0,0.0,0.0,-5.4079,0.0,0.0,0.0,-5.8732,0.0,-6.0431,-5.9934,-5.9647,-5.9882,-5.9803,-6.0065,-6.0901,-6.1163,-6.1189,-6.0953,-6.1058,-6.111,-6.111,-6.064,-6.0901,-6.1973,-6.0352,-6.0352,-6.1973,-6.0901,-6.0953,-6.1973,-6.1973,-6.1973,-6.1973,-6.1973,-6.1973,-6.1973,-6.1973,-6.1973,-6.1973,-6.1973,-6.1973,-6.1823,-6.1495,-6.1041,-6.0533,-5.0315,-5.072,-5.2037,-5.461,-5.6196,-5.7962,-6.0505,-6.1523,-6.2555,-6.4076,-6.5557,-6.6787,-6.7411,-6.4039,-6.3112,-6.6551,-5.9022,-5.5511,-5.9001,-5.4857,-5.2067,-5.1518,-5.157,-5.1648,-5.1805,-5.1675,-5.1675,-5.1805,-5.1675,-5.1596,-5.1596,-5.1596,-5.1596,-5.1596,-5.1596,-5.2197,-5.3217,-5.3687,-5.6405,-6.0588,-6.341,-6.3437,-6.2391,-6.7749,-6.9527,-6.9396,-7.1382,-7.1382,-6.9997,0.0,-6.5528,-6.3672,0.0,-5.8575,-5.8078,-5.6876,0.0,0.0,0.0,0.0,0.0,0.0,-5.4314,0.0,0.0,0.0,-5.191,-5.089,0.0,0.0,0.0,0.0,0.0,0.0,0.0,0.0,-5.4001,-5.5386,-5.6876,-5.7921,-5.7529,-5.7608,-5.8601,-5.8235,-5.8601,-6.0195,-5.9437,-5.9307,-6.0274,-6.0823,-6.111,-6.111,-6.1058,-6.1319,-6.1973,-6.0744,-6.0744,-6.1973,-6.1319,-6.1346,-6.1973,-6.1973,-6.1973,-6.1973,-6.1973,-6.1973,-6.1973,-6.1973,-6.1973,-6.1973,-6.1973,-6.1823,-6.142,-6.142,-6.0889,-6.0328,-5.0853,-5.1648,-5.2965,-5.485,-5.6256,-5.7992,-6.0715,-6.3947,-6.6665,-6.8151,-7.0157,-7.1298,-7.0949,-6.7692,-6.572,-6.6186,-6.0746,-5.7377,-5.7703,-5.509,-5.3373,-5.3112,-5.2145,-5.2223,-5.3609,-5.2302,-5.1936,-5.2642,-5.1936,-5.1596,-5.1596,-5.1596,-5.1779,-5.2119,-5.2119,-5.2955,-5.4393,-5.4628,-5.604,-5.8314,-6.098,-6.1267,-6.0927,-6.8377,-7.1069,-7.099,-7.1958,-7.1565,-7.018,-6.7514,-6.592,0.0,0.0,0.0,0.0,0.0,0.0,0.0,0.0,0.0,0.0,0.0,0.0,0.0,-5.225,0.0,-5.1361,0.0,0.0,0.0,0.0,0.0,0.0,0.0,-5.2276,0.0,0.0,0.0,-5.421,-5.6379,0.0,-5.6013,-5.6484,-5.6615,-5.6954,-5.766,-5.8209,-5.8575,-5.8732,-5.9594,-6.0248,-6.0588,-6.0274,-6.0535,-6.1476,-6.064,-6.064,-6.1476,-6.1241,-6.1424,-6.1973,-6.1973,-6.1973,-6.1973,-6.1973,-6.1973,-6.1973,-6.1973,-6.1898,-6.1646,-6.1646,-6.1571,-6.1344,-6.0813,-6.0431,-6.0149,-5.1768,0.0,-5.3593,-5.497,-5.6256,-5.8082,-6.0954,-6.4635,-6.7897,-7.0081,-7.1906,-7.3304,-7.408,-7.1639,-6.9889,-6.9833,-6.5573,-6.2069,-6.0162,-5.757,-5.5604,-5.4471,-5.3086,-5.3034,-5.4602,-5.2955,-5.2354,-5.2903,-5.2014,-5.1831,-5.2302,-5.1831,-5.2093,-5.2981,-5.3295,-5.4314,-5.5857,-5.6641,-5.7843,-5.9411,-6.1502,-6.2574,-6.3515,-6.903,-7.1618,-7.2271,-7.2114,-7.1435,-7.0206,-6.7619,-6.6338,-6.5475,-6.3358,-6.2287,-6.1685,0.0,0.0,0.0,-5.8052,0.0,0.0,0.0,0.0,0.0,0.0,0.0,0.0,0.0,0.0,0.0,0.0,0.0,0.0,-5.1596,0.0,-5.1831,0.0,-5.1544,0.0,0.0,0.0,0.0,-5.4628,-5.4837,-5.5177,-5.5647,-5.6562,-5.719,-5.7425,-5.8366,-5.9307,-6.0195,-5.9803,-6.0169,-6.1346,-6.0771,-6.0771,-6.1346,-6.1346,-6.1581,-6.1973,-6.1973,-6.1973,-6.1973,-6.1973,-6.1973,-6.1973,-6.1898,-6.1646,-6.1344,-6.1117,-6.1041,-6.0965,-6.0355,-6.0048,-5.997,-5.3114,-5.3144,-5.3593,-5.497,-5.6256,-5.8201,-6.1553,-6.2211,-6.3947,-6.8465,-6.8555,-7.062,-7.6953,-7.5281,-7.627,-8.2554,-7.5964,-7.1222,-7.0469,-6.4402,-5.9143,-5.5244,-5.4471,-5.3896,0.0,-5.3373,-5.2772,-5.1648,-5.1622,-5.2459,-5.4079,-5.238,-5.2511,-5.4184,-5.5308,-5.6458,-5.7835,-6.0561,-6.4012,-6.7619,-6.7697,-6.9396,-7.1618,-6.9082,-6.9866,-7.2219,-7.1644,-7.1069,-7.0337,-6.8533,-6.754,-6.673,-6.5005,-6.4064,0.0,0.0,0.0,0.0,0.0,0.0,0.0,-5.6771,0.0,0.0,0.0,0.0,-5.3792,0.0,0.0,0.0,0.0,0.0,0.0,-5.1779,0.0,0.0,0.0,0.0,0.0,0.0,0.0,0.0,0.0,-5.2929,-5.3295,-5.4994,-5.4158,-5.4524,-5.6719,-5.7399,-5.8497,-6.0169,-6.0195,-6.0744,-6.1921,-6.1372,-6.1372,-6.1947,-6.1947,-6.1947,-6.1973,-6.1973,-6.1973,-6.1973,-6.1973,-6.1973,-6.1973,-6.1571,-6.142,-6.1344,-6.0508,-6.0125,-6.0125,-6.0125,-5.9894,-5.9659,-5.511,-5.52,-5.5029,-5.461,-5.5628,-5.7752,-6.1523,-6.3199,-6.634,-7.2744,-7.4091,-7.7173,-8.4235,-8.2821,-8.251,-8.5192,-8.0386,-7.5605,-7.1773,-6.7192,-6.3533,-6.087,-5.766,-5.6379,0.0,0.0,0.0,-5.2772,-5.1988,-5.2302,-5.3635,-5.225,-5.2537,-5.4236,-5.502,-5.6641,-5.9012,-6.1476,-6.3776,-6.5841,-6.7357,-6.9945,-7.2689,-7.1356,-7.1461,-7.2219,-7.1618,-7.1043,-7.0442,-6.9448,-6.822,-6.707,-6.6887,-6.5632,-6.4247,-6.4221,-6.3698,-6.3018,-6.2626,-6.2652,-6.2077,-5.8967,-5.7634,-5.6405,0.0,0.0,0.0,0.0,0.0,0.0,0.0,0.0,0.0,0.0,0.0,0.0,0.0,0.0,0.0,0.0,0.0,0.0,0.0,0.0,0.0,0.0,-5.3164,-5.3739,-5.4497,-5.617,-5.7529,-5.8497,-5.9255,-6.0039,-6.0797,-6.1006,-6.1215,-6.1424,-6.179,-6.1973,-6.1973,-6.1973,-6.1973,-6.1973,-6.1973,-6.1973,-6.1973,-6.1571,-6.1193,-6.0889,-6.0355,-5.9971,-5.9714,-5.9714,-5.9812,-6.0211,-5.6526,-5.6496,-5.6226,-5.5388,-5.6526,-5.8501,-6.1313,-6.4814,-6.9243,-7.5138,-7.8041,-8.217,-8.8993,-8.8594,-8.8392,-8.9831,-8.6816,-8.1815,-7.4594,-7.1911,-6.8498,-6.3905,-6.1215,-5.9986,0.0,0.0,0.0,0.0,0.0,-5.3949,-5.4863,-5.3269,-5.3347,-5.4863,-5.6066,-5.7634,-5.962,-6.3358,-6.5632,0.0,0.0,-7.1017,-7.2794,-7.2428,-7.2297,-7.2193,-7.1409,-7.0755,-7.0206,-6.984,-6.8821,-6.7749,-6.7932,-6.6808,-6.5423,-6.5397,-6.4874,-6.4247,-6.4038,-6.3985,-6.3384,-6.0901,-5.9594,-5.8235,-5.57,0.0,-5.6327,0.0,0.0,0.0,0.0,0.0,0.0,0.0,0.0,0.0,0.0,-5.1309,0.0,0.0,0.0,0.0,0.0,0.0,0.0,0.0,0.0,0.0,0.0,-5.5177,-5.6641,-5.7704,-5.8855,-5.9751,-6.0535,-6.0927,-6.1215,-6.1424,-6.179,-6.1973,-6.1973,-6.1973,-6.1973,-6.1973,-6.1973,-6.1973,-6.1973,-6.1344,-6.0965,-6.066,-6.0125,-5.974,-5.9483,-5.9483,-5.9834,-6.0412,-5.7393,-5.7154,-5.7154,-5.7154,-5.868,-6.0206,-6.1044,-6.667,-7.2146,-7.5736,-8.0225,-8.5372,-9.1357,-9.2554,-9.396,-9.6503,-9.4917,-8.961,-7.9601,-7.8544,-7.4209,0.0,-6.5293,-6.4769,-6.2391,0.0,0.0,0.0,0.0,-5.7085,-5.7678,-5.5308,-5.4811,-5.5935,-5.8314,-5.9359,-5.9777,-6.6076,-6.9474,-7.0781,-7.2402,-7.2768,-7.2323,-7.2271,-7.2271,-7.2114,-7.1017,-7.0259,-6.9788,-6.9736,-6.937,-6.8795,-6.8246,-6.7645,-6.6913,-6.5841,-6.5501,-6.5345,-6.4796,-6.4639,-6.4221,-6.2522,-6.1633,-6.0431,-5.7608,-5.8261,-5.8967,0.0,0.0,0.0,0.0,0.0,0.0,0.0,0.0,0.0,0.0,0.0,0.0,0.0,0.0,0.0,0.0,0.0,0.0,0.0,0.0,0.0,0.0,-5.4419,-5.5804,-5.7547,-5.8751,-5.9856,-6.1058,-6.1084,-6.1372,-6.1973,-6.1973,-6.1973,-6.1973,-6.1973,-6.1973,-6.1973,-6.1973,-6.1973,-6.1898,-6.1041,-6.066,-6.0584,-5.9817,-5.9483,-5.9483,-5.9533,-5.9859,-6.0286,-5.7932,-5.7872,-5.7872,-5.7872,-5.7872,-5.877,-6.1433,-6.661,-7.2654,-7.9387,-8.4714,-9.0339,-9.6773,-9.7641,-9.8,-9.8688,-9.7371,-9.3834,-8.7408,-8.5264,0.0,-7.5125,-7.269,-7.0338,-6.7805,-6.4221,0.0,-6.0405,0.0,0.0,-5.7704,-5.5752,-5.4785,-5.4785,0.0,-5.9359,-5.9725,-6.5214,-6.8952,-7.1278,-7.2167,-7.2663,-7.282,-7.1958,-7.1644,-7.1592,-7.1304,-7.1095,-7.0886,-7.0494,-6.9971,-6.9448,-6.9318,-6.856,-6.7697,-6.741,-6.6991,-6.6625,-6.6469,-6.6129,-6.5528,-6.4195,-6.2809,-6.1319,-5.9725,-6.0039,-6.03,-5.8993,0.0,0.0,0.0,0.0,0.0,0.0,0.0,0.0,0.0,0.0,0.0,-5.1387,0.0,0.0,0.0,0.0,0.0,0.0,0.0,0.0,-5.204,-5.3556,-5.4837,-5.5726,-5.7268,-5.8862,-6.0431,-6.0457,-6.0953,-6.1973,-6.1973,-6.1973,-6.1973,-6.1973,-6.1973,-6.1973,-6.1646,-6.1571,-6.1495,-6.0584,-6.0278,-6.0201,-5.974,-5.9483,-5.9533,-5.996,-5.9935,-5.9834,-5.862,-5.9249,-5.9668,-5.9099,-6.0835,-6.3019,-6.5203,-6.8794,-7.3791,-8.0853,-8.6629,-9.1626,-9.5636,-9.8359,-9.9945,-9.9945,-9.8448,-9.5317,-9.0022,-8.8769,0.0,-7.8998,-7.7297,-7.4891,-7.1312,-6.741,0.0,-6.2705,0.0,0.0,-5.8366,-5.6144,0.0,0.0,0.0,-5.8993,-5.9359,-6.5057,-6.9004,-7.1409,-7.1513,-7.1879,0.0,-7.1382,-7.1043,-7.1043,-7.1043,-7.0886,-7.0677,-7.0886,-7.0389,-6.9684,-6.9684,-6.9082,-6.8377,-6.8377,-6.8115,-6.7854,-6.7854,-6.7462,-6.6808,-6.5894,-6.4743,-6.3489,-6.2051,-6.179,-6.1607,-6.0692,-6.0875,-6.064,-5.8829,-5.7582,0.0,0.0,0.0,0.0,0.0,0.0,0.0,0.0,-5.1831,0.0,0.0,0.0,0.0,0.0,0.0,0.0,-5.1622,-5.3034,-5.4236,-5.5072,-5.7007,-5.8732,-6.0195,-6.0718,-6.1319,-6.1973,-6.1973,-6.1973,-6.1973,-6.1973,-6.1973,-6.1973,-6.1571,-6.142,-6.1344,-6.0431,-6.0125,-6.0048,-5.9663,-5.9483,-5.9533,-5.9834,-5.9759,-5.9583,-5.9219,-6.0805,-6.1792,-6.0446,-6.5084,-6.9453,-7.0799,-7.2984,-7.6395,-8.1841,-8.7736,-9.1656,-9.2314,-9.7012,-10.0094,-10.0094,-9.8508,-9.5406,-9.0544,-9.0898,-8.7829,-8.0118,-8.0679,-7.8786,-7.363,-7.0546,-6.7331,0.0,0.0,0.0,-5.8862,-5.6301,0.0,0.0,0.0,0.0,0.0,-6.5371,-6.9082,-7.0938,-7.0703,-7.0912,-7.133,-7.0807,-7.0546,-7.0494,-7.0572,-7.0259,-6.9971,-7.0964,-7.0572,-6.9684,-6.9684,-6.9318,-6.8764,-6.8764,-6.8764,-6.8764,-6.8764,-6.8429,-6.7854,-6.7253,-6.6678,-6.5841,-6.4168,-6.341,-6.2862,-6.2208,-6.1267,-6.03,-5.9411,-5.7242,0.0,0.0,0.0,0.0,0.0,0.0,0.0,0.0,0.0,0.0,-5.1675,-5.2145,0.0,-5.1648,-5.2093,-5.2145,-5.1622,-5.2668,-5.3792,-5.4942,-5.7059,-5.8836,-6.0222,-6.1241,-6.1868,-6.2077,-6.1999,-6.1973,-6.1973,-6.1973,-6.1898,-6.1898,-6.142,-6.1193,-6.1193,-6.0355,-6.0048,-5.9971,-5.9663,-5.9483,-5.9483,-5.9483,-5.9483,-5.9483,-5.9129,-6.1164,-6.248,-6.1164,-6.5413,-7.0679,-7.5677,-7.9986,-8.3606,-8.6299,-9.1835,-9.5785,-9.6384,-9.7401,-9.803,-9.803,-9.77,-9.6654,-9.4629,0.0,0.0,-8.569,-8.5207,-8.2183,-7.6127,-7.1748,-6.8324,0.0,0.0,0.0,-5.6484,-5.5543,0.0,0.0,0.0,0.0,-6.2313,-6.5815,0.0,-6.8716,-7.0049,-7.0912,-7.133,-7.0807,-7.0285,-6.9919,-7.0415,-7.052,-7.0468,-7.0677,-7.0285,-6.9684,-6.9684,-6.9318,-6.8764,-6.8764,-6.8764,-6.8764,-6.8764,-6.8429,-6.7854,-6.7253,-6.6678,-6.5946,-6.4665,-6.4299,-6.3933,-6.2888,-6.2522,-6.1607,-5.9124,-5.6013,-5.3347,0.0,0.0,0.0,0.0,0.0,0.0,0.0,0.0,-5.2798,0.0,0.0,0.0,-5.1648,-5.1701,-5.1701,-5.1596,-5.2276,-5.3191,-5.4314,-5.5674,-5.7608,-6.0195,-6.0431,-6.1241,-6.2679,-6.2182,-6.1973,-6.1973,-6.1672,-6.1495,-6.142,-6.066,-6.0355,-6.0278,-5.9817,-5.9585,-5.9585,-5.9508,-5.9483,-5.9483,-5.9483,-5.9483,-5.9483,-6.263,-6.3707,-6.4844,-6.5592,-7.0081,-7.5108,-7.9686,-8.4893,-8.8035,-8.7287,-9.0279,-9.2583,-9.2883,-9.5366,-9.7012,-9.7012,-9.6713,-9.6234,-9.5636,-9.5277,-9.3188,-8.9004,-8.7266,-8.3994,-7.8693,-7.3295,-6.9318,-6.6704,0.0,-5.7921,-5.6771,-5.4707,0.0,0.0,0.0,-5.9098,0.0,0.0,-6.6469,-6.7645,-6.9108,-7.0023,-7.0494,-7.0232,-6.9762,-6.9344,-6.9919,-6.9945,-6.9788,-7.0389,-7.018,-6.9684,-6.9684,-6.9318,-6.8764,-6.8764,-6.8764,-6.8764,-6.8764,-6.8194,-6.7462,-6.7148,-6.6442,-6.5658,-6.5109,-6.4743,-6.4299,-6.3437,-6.3045,-6.2025,-5.9437,-5.6615,-5.4497,-5.3922,0.0,0.0,0.0,0.0,0.0,0.0,0.0,0.0,0.0,0.0,0.0,0.0,0.0,-5.2067,-5.2067,-5.204,-5.2694,-5.4158,-5.5621,-5.7477,-5.9751,-6.0666,-6.1555,-6.2391,-6.2104,-6.1973,-6.1973,-6.1571,-6.142,-6.1344,-6.0508,-6.0125,-6.0048,-5.9663,-5.9483,-5.9483,-5.9483,-5.9483,-5.9483,-5.9483,-5.9483,-5.9483,-6.67,-6.7298,-6.8435,-7.0829,-7.5587,-7.9986,-8.2769,-8.8095,-9.0938,-8.8514,-8.9202,-8.995,-8.995,-9.3661,-9.6144,-9.6144,-9.5666,-9.5336,-9.5187,-9.4678,-9.3007,-8.9778,-8.7707,-8.4537,-7.9989,-7.443,-7.0049,0.0,0.0,-5.8157,-5.6693,0.0,0.0,0.0,0.0,-5.8183,-6.1555,-6.3646,-6.5449,-6.7044,-6.8324,-6.9187,-6.9684,-6.9553,-6.9239,-6.8899,-6.9344,-6.9213,-6.8978,-6.9919,-6.9919,-6.9527,-6.9527,-6.9213,-6.8764,-6.8764,-6.8764,-6.8764,-6.8764,-6.8168,-6.7436,-6.7305,-6.6495,-6.5711,-6.5606,-6.5031,-6.4378,-6.3803,-6.3018,-6.1842,-5.9751,-5.7765,-5.6327,-5.5961,-5.5255,0.0,0.0,0.0,0.0,0.0,0.0,0.0,-5.1701,-5.225,-5.2642,-5.2511,-5.2616,-5.2589,-5.2328,-5.2093,-5.2616,-5.4001,-5.5595,-5.7399,-5.9333,-6.0849,-6.179,-6.2156,-6.2025,-6.1973,-6.1973,-6.1495,-6.1268,-6.1193,-6.0355,-5.9971,-5.9971,-5.9637,-5.9483,-5.9483,-5.9483,-5.9483,-5.9483,-5.9483,-5.9483,-5.9483,-6.9363,-7.1517,-7.3612,-7.5108,-7.9686,-8.3487,-8.4384,-8.9082,-9.2613,-9.2913,-9.3601,-9.405,-9.405,-9.4499,-9.4798,-9.4798,-9.4738,-9.4439,-9.381,-9.3721,-9.1452,-8.6582,-8.6136,-8.3675,-7.8635,-7.4374,-7.0285,0.0,0.0,-5.7921,-5.3792,0.0,0.0,-5.421,-5.6484,-5.8287,-5.983,-6.3123,-6.524,-6.6495,-6.8168,-6.9187,-6.9631,-6.9108,-6.8816,-6.8764,-6.8899,-6.8816,-6.879,-6.8894,-6.8894,-6.8926,-6.8926,-6.8816,-6.8764,-6.8764,-6.8764,-6.8764,-6.8764,-6.8685,-6.856,-6.8037,-6.741,-6.6808,-6.6312,-6.5345,-6.4378,-6.3803,-6.2391,-6.0875,-5.9594,-5.8758,-5.7739,-5.617,-5.6275,0.0,0.0,0.0,-5.57,0.0,0.0,0.0,0.0,-5.2642,-5.3086,-5.2537,-5.3008,-5.2825,-5.1727,-5.2668,-5.3295,-5.3478,-5.4628,-5.6588,-5.9333,-6.0039,-6.1189,-6.2731,-6.2208,-6.1973,-6.1973,-6.1117,-6.0737,-6.0737,-5.9894,-5.9585,-5.9585,-5.9508,-5.9483,-5.9483,-5.9483,-5.9483,-5.9483,-5.9483,-5.9483,-5.9483,-7.5707,-7.6066,-7.7293,-8.0614,-8.229,-8.4295,-8.7736,-9.0728,-9.2823,-9.3481,-9.4169,-9.4618,-9.4618,-9.4618,-9.4618,-9.4618,-9.4618,-9.4499,-9.4229,-9.4199,-9.2939,-9.0079,-8.773,-8.4984,-8.1773,-7.6226,-7.1513,0.0,0.0,0.0,-5.6432,-5.5072,-5.4707,-5.5282,-5.6588,-5.8366,-6.0588,-6.3358,-6.5214,-6.6442,-6.8168,-6.8978,-6.9187,-6.9318,-6.9135,-6.8816,-6.9239,-6.9135,-6.8764,-6.8764,-6.8764,-6.8764,-6.8764,-6.8764,-6.8764,-6.8764,-6.8764,-6.8764,-6.8764,-6.8586,-6.8272,-6.8037,-6.7279,-6.6547,-6.6338,-6.5632,-6.4796,-6.3855,-6.2574,-6.1476,-6.1006,-6.0169,-5.9437,-5.9098,-5.8653,0.0,0.0,0.0,0.0,0.0,0.0,0.0,0.0,-5.204,-5.2511,-5.3008,-5.2589,-5.2276,-5.2145,-5.2589,-5.3034,-5.34,-5.4811,-5.6641,-5.8836,-5.9751,-6.0927,-6.2313,-6.2077,-6.1973,-6.1973,-6.1117,-6.0431,-5.9971,-5.9637,-5.9483,-5.9483,-5.9483,-5.9483,-5.9483,-5.9483,-5.9483,-5.9483,-5.9483,-5.9483,-5.9483,-8.1272,-8.0764,-8.1482,-8.5731,-8.5701,-8.6389,-9.0339,-9.1865,-9.2823,-9.3481,-9.4169,-9.4618,-9.4618,-9.4618,-9.4618,-9.4618,-9.4618,-9.4528,-9.4319,-9.4139,-9.3224,-9.1549,-8.8118,0.0,-8.3188,-7.7448,-7.2898,-6.9605,-6.5894,0.0,-5.8967,-5.6667,-5.6066,-5.6954,-5.7739,-5.9594,-6.226,-6.4221,-6.5711,-6.6913,-6.8298,-6.8764,-6.8816,-6.9291,-6.9187,-6.8899,-6.9291,-6.9187,-6.8764,-6.8764,-6.8764,-6.8764,-6.8764,-6.8764,-6.8764,-6.8764,-6.8764,-6.8764,-6.8764,-6.8533,-6.8246,-6.8246,-6.7383,-6.6521,-6.6521,-6.5789,-6.4796,-6.3672,-6.2783,-6.2182,-6.1999,-6.1293,-6.0823,-6.1084,-6.0561,0.0,0.0,-5.8209,0.0,0.0,-5.3896,-5.306,-5.1962,-5.2014,-5.2406,-5.3086,-5.2354,-5.2119,-5.272,-5.2903,-5.3112,-5.34,-5.502,-5.6745,-5.8497,-5.9647,-6.0723,-6.1823,-6.1973,-6.1898,-6.1571,-6.0889,-6.0125,-5.9483,-5.9483,-5.9483,-5.9483,-5.9483,-5.9483,-5.9483,-5.9483,-5.9483,-5.9483,-5.9483,-5.9483,-5.9483,-8.4983,-8.5611,-8.6659,-8.998,-9.0549,-9.0788,-9.1506,-9.2165,-9.2823,-9.3481,-9.4169,-9.4618,-9.4618,-9.4618,-9.4618,-9.4618,-9.4618,-9.4319,-9.3631,-9.2972,-9.152,-8.9003,-8.6352,-8.3738,-8.1253,-7.7546,-7.4284,-7.1382,0.0,-6.4691,-6.0143,-5.7869,-5.7686,-5.9385,-6.0535,-6.2339,-6.456,-6.5763,-6.6913,-6.8011,-6.8612,-6.8764,-6.8764,-6.8764,-6.8764,-6.8764,-6.8764,-6.8764,-6.8764,-6.8764,-6.8764,-6.8764,-6.8764,-6.8764,-6.8764,-6.8764,-6.8764,-6.8764,-6.8764,-6.8847,-6.8764,-6.8764,-6.7958,-6.707,-6.707,-6.5763,-6.4221,-6.3071,-6.2835,-6.2652,-6.2077,-6.1973,-6.1764,-6.1215,-6.1581,0.0,0.0,-5.983,0.0,-5.5491,-5.5543,-5.4968,-5.2694,-5.3034,-5.3138,-5.2537,-5.2485,-5.2746,-5.3347,-5.3896,-5.3949,-5.3426,-5.502,-5.6745,-5.8497,-5.9647,-6.0575,-6.142,-6.1823,-6.1571,-6.0737,-6.0278,-5.9894,-5.9483,-5.9483,-5.9483,-5.9483,-5.9483,-5.9483,-5.9483,-5.9483,-5.9483,-5.9483,-5.9483,-5.9483,-5.9483,-8.8125,-8.8753,-8.9412,-9.0459,-9.0638,-9.0698,-9.0908,-9.1895,-9.2673,-9.2883,-9.3481,-9.408,-9.4558,-9.4618,-9.4618,-9.4618,-9.4618,-9.4319,-9.3631,-9.3391,-9.2508,-9.0782,-8.8655,-8.6352,-8.3738,-8.0175,-7.6369,-7.2559,-7.0076,-6.6704,-6.2548,-6.1842,-6.179,-6.2339,-6.3097,-6.4508,-6.6338,-6.7122,-6.788,-6.8586,-6.8769,-6.8764,-6.8764,-6.8764,-6.9082,-6.937,-6.8978,-6.9082,-6.937,-6.8978,-6.8764,-6.8764,-6.8764,-6.8764,-6.8764,-6.8764,-6.8764,-6.8764,-6.8764,-6.8764,-6.8764,-6.8764,-6.7985,-6.7122,-6.7096,-6.5449,-6.3855,-6.3489,-6.2783,-6.2182,-6.1999,-6.1973,-6.1921,-6.1738,-6.1529,-6.0927,-5.9568,0.0,-5.7634,0.0,-5.4889,-5.4314,-5.3217,-5.3295,-5.3635,-5.4236,-5.3556,-5.3008,-5.2798,-5.3687,-5.4314,-5.455,-5.6588,-5.8131,-5.9072,-5.9955,-6.0918,-6.1823,-6.1344,-6.0813,-6.0278,-6.0201,-5.9894,-5.9483,-5.9483,-5.9483,-5.9483,-5.9483,-5.9483,-5.9483,-5.9483,-5.9483,-5.9483,-5.9483,-5.9483,-5.9483,-8.995,-9.0369,-9.0638,-9.0638,-9.0638,-9.0638,-9.0638,-9.1536,-9.2224,-9.2224,-9.2793,-9.3361,-9.381,-9.384,-9.396,-9.4199,-9.399,-9.3661,-9.3242,-9.2972,-9.2124,-9.0582,-8.9145,-8.6912,-8.3592,-8.1097,-7.7879,-7.4075,-7.1147,-6.8194,-6.5292,-6.4848,-6.4874,-6.5318,-6.5684,-6.6547,-6.7775,-6.8141,-6.8638,-6.9135,-6.8926,-6.8978,-6.9135,-6.8926,-6.9056,-6.9318,-6.8978,-6.9082,-6.9318,-6.8978,-6.8764,-6.8764,-6.8764,-6.8764,-6.8764,-6.8764,-6.8764,-6.8764,-6.8764,-6.8764,-6.8764,-6.8764,-6.8141,-6.7331,-6.6887,-6.5501,-6.4247,-6.4038,-6.3254,-6.2548,-6.2339,-6.213,-6.1973,-6.1973,-6.1476,-6.0718,-5.9542,0.0,-5.7033,0.0,0.0,-5.4628,-5.4079,-5.4419,-5.4785,-5.5072,-5.4628,-5.4079,-5.3504,-5.4158,-5.4811,-5.5386,-5.7425,-5.8889,-5.9673,-6.0419,-6.11,-6.1747,-6.0889,-6.0355,-6.0099,-5.9971,-5.974,-5.9483,-5.9483,-5.9483,-5.9483,-5.9483,-5.9483,-5.9483,-5.9483,-5.9483,-5.9483,-5.9483,-5.9483,-5.9483,-9.0638,-9.0638,-9.0638,-9.0638,-9.0638,-9.0638,-9.0638,-9.1207,-9.1626,-9.1626,-9.2135,-9.2554,-9.2583,-9.2524,-9.2733,-9.3391,-9.2913,-9.2583,-9.2524,-9.1955,-9.0807,-8.8974,-8.8276,-8.5989,-8.1581,-8.0864,-7.8828,-7.5538,-7.1696,-6.9239,-6.8141,-6.707,-6.7122,-6.8115,-6.8141,-6.8429,-6.8899,-6.8952,-6.9265,-6.971,-6.9135,-6.9213,-6.9631,-6.9056,-6.879,-6.8899,-6.879,-6.879,-6.8899,-6.8764,-6.8764,-6.8764,-6.8764,-6.8764,-6.8764,-6.8764,-6.8764,-6.8764,-6.8764,-6.8764,-6.8764,-6.8764,-6.8429,-6.7697,-6.6547,-6.5815,-6.5214,-6.4639,-6.4064,-6.3515,-6.2992,-6.2417,-6.2025,-6.2025,-6.145,-6.0614,-5.9464,-5.8287,-5.6928,-5.5308,-5.5569,-5.57,-5.5203,-5.617,-5.6379,-5.536,-5.57,-5.5778,-5.5308,-5.5308,-5.5569,-5.6066,-5.7791,-5.9202,-6.0274,-6.0801,-6.1152,-6.1268,-6.0533,-6.0175,-6.0098,-5.9763,-5.9583,-5.9558,-5.9558,-5.9533,-5.9483,-5.9483,-5.9483,-5.9483,-5.9483,-5.9483,-5.9483,-5.9483,-5.9483,-5.9483,-9.0638,-9.0638,-9.0638,-9.0638,-9.0638,-9.0638,-9.0638,-9.1207,-9.1626,-9.1626,-9.1746,-9.2045,-9.2554,-9.1716,-9.1357,-9.2015,-9.2404,-9.2374,-9.1895,-9.1716,-9.1135,-9.0179,-9.0001,-8.807,-8.4064,-8.3004,-7.9612,-7.3735,-7.1905,-7.0651,-6.9971,-6.971,-6.9474,-6.9318,-6.9788,-6.9788,-6.9527,-6.9997,-7.0259,-7.0337,-6.9736,-6.9579,-6.9631,-6.9056,-6.9108,-6.9448,-6.9004,-6.9135,-6.9422,-6.9004,-6.8764,-6.8764,-6.8764,-6.8764,-6.8764,-6.8764,-6.8764,-6.8764,-6.8764,-6.8764,-6.8764,-6.8764,-6.8429,-6.7697,-6.6547,-6.5815,-6.5214,-6.4639,-6.4064,-6.3646,-6.3489,-6.3018,-6.2626,-6.2626,-6.1032,-5.9542,-5.881,-5.7346,-5.6013,-5.5203,-5.5569,-5.5857,-5.5726,-5.6379,-5.6876,-5.7033,-5.6771,-5.6719,-5.7033,-5.7477,-5.7765,-5.7895,-5.9594,-6.064,-6.0901,-6.0803,-6.0532,-5.9971,-6.0504,-6.0603,-6.0292,-6.0666,-6.0537,-6.0111,-6.0111,-5.9885,-5.9483,-5.9483,-5.9483,-5.9483,-5.9483,-5.9483,-5.9483,-5.9483,-5.9483,-5.9483,-9.0638,-9.0638,-9.0638,-9.0638,-9.0638,-9.0638,-9.0638,-9.0938,-9.1177,-9.1177,-9.1177,-9.1297,-9.1656,-9.1057,-9.0788,-9.1147,-9.1506,-9.1566,-9.1207,-9.1177,-9.058,-8.9407,-8.9895,-8.84,-8.4494,-8.3286,-7.9696,-7.3526,-7.2898,-7.2167,-7.1356,-7.1095,-7.0781,-7.0468,-7.0546,-7.0415,-7.0128,-7.0468,-7.0598,-7.0546,-6.9945,-6.9527,-6.9239,-6.8664,-6.8481,-6.8455,-6.8141,-6.8429,-6.8821,-6.8246,-6.8403,-6.8711,-6.8533,-6.8638,-6.8764,-6.8764,-6.8764,-6.8764,-6.8764,-6.8764,-6.8764,-6.8764,-6.822,-6.741,-6.6782,-6.5998,-6.5292,-6.4979,-6.4456,-6.3985,-6.3724,-6.3201,-6.2574,-6.1764,-6.0352,-5.8993,-5.7895,-5.6693,-5.5804,-5.5517,-5.6196,-5.6824,-5.7085,-5.7869,-5.8287,-5.8078,-5.8,-5.8,-5.8052,-5.8694,-5.8961,-5.8915,-6.0206,-6.0944,-6.1204,-6.0886,-6.0431,-5.9817,-6.063,-6.0601,-5.996,-6.0788,-6.0864,-6.0337,-6.0588,-6.0387,-5.9885,-5.9885,-5.9734,-5.9483,-5.9483,-5.9659,-5.9834,-5.9583,-5.9659,-5.9834,-9.0638,-9.0638,-9.0638,-9.0638,-9.0638,-9.0638,-9.0638,-9.0638,-9.0638,-9.0638,-9.0638,-9.0638,-9.0638,-9.0638,-9.0638,-9.0638,-9.0638,-9.0638,-9.0638,-9.0638,-8.9912,-8.8299,-8.896,-8.7706,-8.3988,-8.2171,-7.8889,-7.4153,-7.397,-7.3369,-7.2402,-7.1801,-7.1487,-7.1382,-7.1017,-7.0807,-7.0729,-7.0807,-7.0807,-7.0677,-7.0076,-6.9474,-6.8899,-6.8324,-6.7802,-6.7357,-6.7357,-6.7697,-6.8037,-6.7514,-6.8011,-6.8769,-6.8272,-6.8455,-6.8764,-6.8764,-6.8764,-6.8764,-6.8764,-6.8764,-6.8764,-6.8764,-6.8089,-6.7305,-6.7148,-6.6338,-6.558,-6.5423,-6.5005,-6.4482,-6.3907,-6.3332,-6.2417,-6.0744,-5.9777,-5.8706,-5.7068,-5.6285,-5.5935,-5.5972,-5.7016,-5.7956,-5.8601,-5.9522,-5.9783,-5.8967,-5.9209,-5.9261,-5.8843,-5.932,-5.9605,-5.9502,-6.015,-6.0728,-6.1193,-6.0813,-6.0457,-6.0174,-6.0656,-6.0576,-5.991,-6.0864,-6.0989,-6.0462,-6.0964,-6.0814,-6.0186,-6.0186,-5.991,-5.9483,-5.9483,-5.9834,-6.0261,-5.9784,-5.9985,-6.0387,-9.0638,-9.0638,-9.0638,-9.0638,-9.0638,-9.0638,-9.0638,-9.0638,-9.0638,-9.0638,-9.0638,-9.0638,-9.0638,-9.0638,-9.0638,-9.0638,-9.0638,-9.0638,-9.0638,-9.0638,-9.0472,-9.0192,-8.8837,-8.6832,-8.4049,-7.9209,-7.6098,-7.4754,-7.3735,-7.316,-7.2977,-7.2428,-7.1879,-7.1409,-7.1853,-7.1748,-7.1304,-7.1827,-7.1748,-7.1226,-7.0677,-7.0102,-6.9501,-6.8926,-6.8664,-6.8586,-6.8586,-6.8638,-6.869,-6.8612,-6.8607,-6.8821,-6.8743,-6.8685,-6.8764,-6.8764,-6.8764,-6.8764,-6.8764,-6.8764,-6.8764,-6.8764,-6.8716,-6.8324,-6.7357,-6.6965,-6.6547,-6.558,-6.5318,-6.5083,-6.4508,-6.3933,-6.3149,-6.1894,-5.9986,-5.825,-5.7188,-5.6382,-5.5956,-5.6228,-5.7195,-5.8245,-5.9176,-5.9539,-5.9986,-6.0619,-6.0033,-5.9735,-6.0176,-5.9985,-5.9861,-5.9784,-6.0351,-6.0558,-6.0278,-6.0201,-6.0199,-6.0264,-6.0365,-6.0867,-6.1617,-6.1793,-6.1567,-6.1065,-6.114,-6.0588,-5.9633,-5.9633,-5.9583,-5.9483,-5.9483,-5.9834,-6.0311,-6.0211,-6.0563,-6.104,-9.0638,-9.0638,-9.0638,-9.0638,-9.0638,-9.0638,-9.0638,-9.0638,-9.0638,-9.0638,-9.0638,-9.0638,-9.0638,-9.0638,-9.0638,-9.0638,-9.0638,-9.0638,-9.0638,-9.0638,-9.0638,-9.0638,-8.9062,-8.6444,-8.2558,-7.8971,-7.6497,-7.4911,-7.4336,-7.3735,-7.3108,-7.2846,-7.2428,-7.1905,-7.2167,-7.214,-7.1879,-7.1827,-7.1644,-7.133,-7.0468,-6.9762,-6.9187,-6.8612,-6.8194,-6.7854,-6.7566,-6.7645,-6.7854,-6.7566,-6.788,-6.8377,-6.8377,-6.8586,-6.8764,-6.8764,-6.8764,-6.8769,-6.8481,-6.8612,-6.8769,-6.8455,-6.8141,-6.7775,-6.7227,-6.6625,-6.6024,-6.5501,-6.5371,-6.5214,-6.4639,-6.4064,-6.3201,-6.1738,-5.9684,-5.7882,-5.6833,-5.6332,-5.6271,-5.6703,-5.8193,-5.9429,-6.0248,-6.0675,-6.084,-6.0814,-6.0331,-6.0131,-6.0191,-5.9766,-5.9743,-6.0023,-6.0227,-6.0201,-5.9817,-5.9817,-5.9914,-6.0311,-6.0311,-6.0588,-6.1115,-6.1416,-6.1266,-6.0738,-6.104,-6.0713,-5.9935,-5.9935,-5.9759,-5.9483,-5.9483,-5.9834,-6.0311,-6.0311,-6.0688,-6.119,-9.0638,-9.0638,-9.0638,-9.0638,-9.0638,-9.0638,-9.0638,-9.0638,-9.0638,-9.0638,-9.0638,-9.0638,-9.0638,-9.0638,-9.0638,-9.0638,-9.0638,-9.0638,-9.0638,-9.0638,-9.0579,-9.0429,-8.8344,-8.5171,-8.0828,-7.8822,-7.6911,-7.5094,-7.4833,-7.4284,-7.3526,-7.3108,-7.2768,-7.248,-7.235,-7.2297,-7.2271,-7.1801,-7.1461,-7.1147,-7.0259,-6.9474,-6.8795,-6.835,-6.7906,-6.7436,-6.7017,-6.7148,-6.7436,-6.7017,-6.7462,-6.8194,-6.8194,-6.8481,-6.8764,-6.8764,-6.8743,-6.8586,-6.8272,-6.8403,-6.8586,-6.8272,-6.7749,-6.7305,-6.7305,-6.6521,-6.5789,-6.5789,-6.5684,-6.5423,-6.4822,-6.4168,-6.3123,-6.1249,-5.9487,-5.7895,-5.6744,-5.6659,-5.6988,-5.752,-5.9108,-6.0371,-6.0944,-6.1337,-6.1238,-6.0599,-6.0472,-6.0247,-5.9945,-5.9592,-5.9541,-5.9946,-5.9971,-5.9817,-5.9483,-5.9608,-5.996,-6.0512,-6.0512,-6.0663,-6.0914,-6.124,-6.114,-6.0738,-6.119,-6.0964,-6.0311,-6.0311,-5.9985,-5.9483,-5.9483,-5.991,-6.0512,-6.0512,-6.0964,-6.1567,-9.0638,-9.0638,-9.0638,-9.0638,-9.0638,-9.0638,-9.0638,-9.0638,-9.0638,-9.0638,-9.0638,-9.0638,-9.0638,-9.0638,-9.0638,-9.0638,-9.0638,-9.0638,-9.0638,-9.0638,-9.0369,-8.9771,-8.5243,-8.1641,-7.944,-7.7119,-7.5787,-7.5643,-7.4597,-7.431,-7.4728,-7.3108,-7.2611,-7.3029,-7.2533,-7.2297,-7.2297,-7.2245,-7.1618,-7.0651,-7.0572,-6.984,-6.8847,-6.8711,-6.8659,-6.8633,-6.8664,-6.869,-6.8633,-6.8664,-6.8633,-6.8711,-6.8711,-6.8821,-6.8764,-6.8764,-6.8481,-6.8168,-6.8638,-6.8429,-6.8168,-6.8664,-6.835,-6.7932,-6.7932,-6.7436,-6.6965,-6.6965,-6.6573,-6.6024,-6.5423,-6.443,-6.3046,-6.0875,-5.9872,-5.8811,-5.7498,-5.7895,-5.8525,-5.8885,-5.9504,-6.012,-6.071,-6.0406,-6.0329,-6.0685,-6.0355,-6.0125,-6.0048,-5.9664,-5.9535,-5.956,-5.956,-5.9508,-5.9483,-6.001,-6.0537,-6.1115,-6.1115,-6.1642,-6.2621,-6.2169,-6.1918,-6.1893,-6.1918,-6.1316,-6.0311,-6.0311,-5.9985,-5.9483,-5.9483,-6.0161,-6.1115,-6.1115,-6.1793,-6.2697,-9.0638,-9.0638,-9.0638,-9.0638,-9.0638,-9.0638,-9.0638,-9.0638,-9.0638,-9.0638,-9.0638,-9.0638,-9.0638,-9.0638,-9.0638,-9.0638,-9.0638,-9.0638,-9.0638,-9.0638,-9.016,-8.9112,-8.5738,-8.2795,-8.0506,-7.8494,-7.6853,-7.5721,-7.4937,-7.4493,-7.4336,-7.3291,-7.2742,-7.2585,-7.2402,-7.2297,-7.2245,-7.1539,-7.12,-7.099,-6.9945,-6.9448,-6.9344,-6.8978,-6.8764,-6.8764,-6.8764,-6.8612,-6.8429,-6.9135,-6.8899,-6.8429,-6.9161,-6.9135,-6.8764,-6.8764,-6.8429,-6.8115,-6.869,-6.8429,-6.8037,-6.8272,-6.8141,-6.7985,-6.7985,-6.7514,-6.7096,-6.7122,-6.6939,-6.6599,-6.605,-6.5266,-6.4299,-6.2761,-6.0901,-5.9415,-5.858,-5.8478,-5.8786,-5.9581,-6.007,-6.0786,-6.1912,-6.1094,-6.0508,-6.066,-6.0355,-6.0123,-6.0219,-6.0415,-6.0537,-6.0537,-6.0537,-6.0362,-6.001,-6.0563,-6.114,-6.1692,-6.1341,-6.1592,-6.2295,-6.1743,-6.1492,-6.1492,-6.1492,-6.124,-6.0864,-6.0864,-6.0512,-6.001,-6.001,-6.0261,-6.0688,-6.104,-6.1667,-6.237,-9.007,-9.0369,-9.0579,-9.0369,-9.0489,-9.0638,-9.0638,-9.0638,-9.0638,-9.0638,-9.0638,-9.0638,-9.0638,-9.0638,-9.0638,-9.0638,-9.0638,-9.0638,-9.0638,-9.0429,-8.983,-8.8723,-8.588,-8.3335,-8.1207,-7.9019,-7.722,-7.5721,-7.499,-7.4519,-7.4258,-7.3317,-7.2742,-7.2533,-7.2376,-7.2297,-7.2245,-7.1461,-7.1147,-7.1043,-6.9866,-6.9396,-6.9396,-6.9004,-6.8764,-6.879,-6.903,-6.8873,-6.8638,-6.9422,-6.9161,-6.8638,-6.9239,-6.9161,-6.8764,-6.8764,-6.8429,-6.8115,-6.869,-6.8429,-6.8037,-6.822,-6.8115,-6.8037,-6.822,-6.7802,-6.7436,-6.7619,-6.7514,-6.72,-6.6652,-6.592,-6.5005,-6.37,-6.199,-6.0678,-6.0116,-5.984,-5.9919,-6.066,-6.0891,-6.1275,-6.1942,-6.1147,-6.0533,-6.0355,-6.02,-6.0322,-6.0563,-6.0964,-6.119,-6.119,-6.1341,-6.124,-6.0864,-6.124,-6.1642,-6.1994,-6.1793,-6.1893,-6.2245,-6.1868,-6.1692,-6.1692,-6.1692,-6.1592,-6.1441,-6.1441,-6.1115,-6.0588,-6.0588,-6.0688,-6.0889,-6.1291,-6.1793,-6.232,-8.8813,-8.9741,-9.0429,-8.9771,-9.0219,-9.0638,-9.0638,-9.0638,-9.0638,-9.0638,-9.0638,-9.0638,-9.0638,-9.0638,-9.0638,-9.0638,-9.0638,-9.0638,-9.0638,-9.004,-8.9382,-8.8723,-8.5161,-8.2558,-8.1235,-7.82,-7.6296,-7.5695,-7.4571,-7.431,-7.4859,-7.3108,-7.2585,-7.3081,-7.2533,-7.2297,-7.2297,-7.2297,-7.1644,-7.0598,-7.0598,-6.9893,-6.8764,-6.8764,-6.8764,-6.8926,-6.9501,-6.971,-6.9684,-6.971,-6.971,-6.9605,-6.903,-6.8764,-6.8764,-6.8764,-6.8455,-6.8141,-6.869,-6.8429,-6.8141,-6.8716,-6.8429,-6.8141,-6.8716,-6.8403,-6.8168,-6.8716,-6.8377,-6.7828,-6.7253,-6.6181,-6.4926,-6.3389,-6.2971,-6.2683,-6.2275,-6.2198,-6.2251,-6.2429,-6.2035,-6.1438,-6.0387,-6.0311,-6.0085,-5.9533,-6.001,-6.0588,-6.1165,-6.119,-6.119,-6.119,-6.1718,-6.2019,-6.2019,-6.2019,-6.2019,-6.2019,-6.2571,-6.2822,-6.2822,-6.2822,-6.2822,-6.2822,-6.2822,-6.2521,-6.2019,-6.2019,-6.1692,-6.119,-6.119,-6.1517,-6.1994,-6.1994,-6.2345,-6.2822,-8.8723,-8.9382,-8.989,-8.9711,-9.0219,-9.0638,-9.0638,-9.0638,-9.0638,-9.0638,-9.0638,-9.0638,-9.0638,-9.0638,-9.0638,-9.0638,-9.0638,-9.0638,-9.0638,-9.004,-8.9382,-8.8723,-8.7209,-8.471,-8.1292,-8.028,-7.8053,-7.4519,-7.4179,-7.3683,-7.3055,-7.2533,-7.2402,-7.2533,-7.2376,-7.2297,-7.2245,-7.1461,-7.0912,-7.052,-6.971,-6.9161,-6.8816,-6.9291,-6.9448,-6.9579,-7.0546,-7.0389,-6.9893,-7.1095,-7.0703,-6.9657,-6.9501,-6.9448,-6.9448,-6.9448,-6.9631,-6.9866,-7.0023,-6.9631,-6.9135,-6.8899,-6.8716,-6.8638,-6.8711,-6.8716,-6.8638,-6.8821,-6.8377,-6.7828,-6.7253,-6.6521,-6.5632,-6.43,-6.3805,-6.3233,-6.2457,-6.2405,-6.2481,-6.2519,-6.2106,-6.1954,-6.2366,-6.1104,-6.034,-6.05,-6.077,-6.1165,-6.1743,-6.2119,-6.2345,-6.2345,-6.2496,-6.2571,-6.2571,-6.2571,-6.2571,-6.2571,-6.2747,-6.2822,-6.2822,-6.2822,-6.2822,-6.2822,-6.2822,-6.2747,-6.2571,-6.2571,-6.227,-6.1768,-6.1768,-6.1868,-6.1994,-6.1994,-6.2345,-6.2822,-8.8304,-8.8813,-8.9352,-8.9621,-8.998,-9.0339,-9.0608,-9.0638,-9.0638,-9.0638,-9.0638,-9.0638,-9.0638,-9.0638,-9.0638,-9.0638,-9.0638,-9.0638,-9.0638,-9.004,-8.9382,-8.8723,-8.8065,-8.5668,-8.1292,-8.0742,-7.8516,-7.4676,-7.4232,-7.3656,-7.2977,-7.2742,-7.2506,-7.2323,-7.2533,-7.2506,-7.2245,-7.1304,-7.0781,-7.052,-6.9553,-6.9187,-6.9213,-6.9553,-6.984,-7.018,-7.1069,-7.0964,-7.0494,-7.133,-7.0624,-6.9344,-6.9344,-6.9344,-6.9344,-6.9344,-6.9605,-6.9893,-6.9893,-6.9814,-6.9605,-6.9265,-6.9004,-6.8764,-6.8764,-6.8764,-6.8764,-6.8764,-6.856,-6.8141,-6.7566,-6.72,-6.6652,-6.5711,-6.513,-6.4603,-6.3743,-6.3427,-6.3159,-6.3021,-6.2501,-6.2349,-6.2716,-6.171,-6.1069,-6.141,-6.1475,-6.1743,-6.2295,-6.2647,-6.2822,-6.2822,-6.2822,-6.2822,-6.2822,-6.2822,-6.2822,-6.2822,-6.2822,-6.2822,-6.2822,-6.2822,-6.2822,-6.2822,-6.2822,-6.2822,-6.2822,-6.2822,-6.2621,-6.2345,-6.2345,-6.2345,-6.2345,-6.2345,-6.2546,-6.2822,-8.7616,-8.8155,-8.8813,-8.9471,-8.9621,-8.989,-9.0549,-9.0638,-9.0638,-9.0638,-9.0638,-9.0638,-9.0638,-9.0638,-9.0638,-9.0638,-9.0638,-9.0638,-9.0638,-9.004,-8.9412,-8.8813,-8.8095,-8.5668,-8.1376,-8.0142,-7.8156,-7.5565,-7.4571,-7.4049,-7.3918,-7.3421,-7.2898,-7.2402,-7.2872,-7.2794,-7.2271,-7.1618,-7.1069,-7.0598,-6.9893,-6.9657,-6.9684,-6.9684,-7.0076,-7.0677,-7.12,-7.1409,-7.133,-7.0781,-6.9919,-6.8973,-6.903,-6.9004,-6.9004,-6.9004,-6.9004,-6.9004,-6.9004,-6.9344,-6.9684,-6.9684,-6.9265,-6.8764,-6.8899,-6.879,-6.8764,-6.8764,-6.8711,-6.8612,-6.8089,-6.7906,-6.7671,-6.7174,-6.6585,-6.6132,-6.5663,-6.4909,-6.4133,-6.3625,-6.3143,-6.2697,-6.2144,-6.2044,-6.1994,-6.1994,-6.1994,-6.2245,-6.2797,-6.2822,-6.2822,-6.2822,-6.2822,-6.2822,-6.2822,-6.2822,-6.2822,-6.2822,-6.2822,-6.2822,-6.2822,-6.2822,-6.2822,-6.2822,-6.2822,-6.2822,-6.2822,-6.2822,-6.2822,-6.2822,-6.2822,-6.2822,-6.2822,-6.2822,-6.2822,-6.2822,-8.6898,-8.7437,-8.8125,-8.8783,-8.9322,-8.989,-9.0549,-9.0638,-9.0638,-9.0638,-9.0638,-9.0638,-9.0638,-9.0638,-9.0638,-9.0638,-9.0638,-9.0638,-9.0638,-9.004,-8.9621,-8.9471,-8.8334,-8.5903,-8.2051,-8.1227,-7.865,-7.4388,-7.4597,-7.4232,-7.3317,-7.3656,-7.35,-7.2925,-7.3055,-7.2794,-7.2245,-7.12,-7.0938,-7.1095,-6.9631,-6.9291,-6.9684,-6.9684,-7.0076,-7.0677,-7.12,-7.1409,-7.133,-7.0781,-7.0703,-7.0781,-7.0337,-7.0206,-7.0206,-7.0206,-7.0206,-7.0206,-7.0206,-6.9971,-6.9684,-6.9684,-6.9265,-6.8952,-6.9422,-6.9161,-6.8764,-6.8764,-6.8481,-6.8141,-6.8011,-6.7253,-6.6756,-6.7044,-6.6016,-6.5327,-6.5693,-6.5221,-6.448,-6.3773,-6.3805,-6.3577,-6.2697,-6.227,-6.1994,-6.1994,-6.1994,-6.2245,-6.2797,-6.2822,-6.2822,-6.2822,-6.2822,-6.2822,-6.2822,-6.2822,-6.2822,-6.2822,-6.2822,-6.2822,-6.2822,-6.2822,-6.2822,-6.2822,-6.2822,-6.2822,-6.2822,-6.2822,-6.2822,-6.2822,-6.2822,-6.2822,-6.2822,-6.2822,-6.2822,-6.2822,-8.7167,-8.7467,-8.7915,-8.8574,-8.8723,-8.9052,-9.001,-9.016,-9.016,-9.016,-9.016,-9.016,-9.016,-9.016,-9.0309,-9.0608,-9.0638,-9.0638,-9.0638,-9.004,-8.9531,-8.9202,-8.7343,-8.4931,-8.1798,-8.0235,-7.7965,-7.4833,-7.4597,-7.4153,-7.3526,-7.3578,-7.3108,-7.2297,-7.2585,-7.2402,-7.1801,-7.0964,-7.0755,-7.0912,-6.9736,-6.9422,-6.9684,-6.9684,-7.0076,-7.0677,-7.12,-7.1409,-7.133,-7.0781,-7.0598,-7.0494,-6.9945,-6.9762,-6.9762,-6.9762,-6.9945,-7.0102,-6.984,-6.9945,-7.0128,-7.0128,-6.9684,-6.9265,-6.9291,-6.9056,-6.8769,-6.8481,-6.8194,-6.7906,-6.7619,-6.7305,-6.7093,-6.7216,-6.6529,-6.5939,-6.5869,-6.5148,-6.4393,-6.3759,-6.359,-6.3395,-6.2847,-6.2571,-6.2395,-6.2395,-6.2395,-6.2521,-6.2822,-6.2822,-6.2822,-6.2822,-6.2822,-6.2822,-6.2822,-6.2822,-6.2822,-6.2822,-6.2822,-6.2822,-6.2822,-6.2822,-6.2822,-6.2822,-6.2822,-6.2822,-6.2822,-6.2822,-6.2822,-6.2822,-6.2822,-6.2822,-6.2822,-6.2822,-6.2822,-6.2822,-8.7526,-8.7526,-8.7736,-8.8394,-8.8065,-8.8095,-8.9322,-8.9501,-8.9501,-8.9501,-8.9501,-8.9531,-8.9651,-8.9771,-9.007,-9.0608,-9.0638,-9.0638,-9.0638,-9.013,-8.9531,-8.8873,-8.6709,-8.4235,-8.1461,-7.9297,-7.7313,-7.5565,-7.4519,-7.3996,-7.3996,-7.35,-7.2689,-7.1696,-7.2114,-7.1958,-7.1356,-7.0703,-7.0494,-7.0546,-6.9945,-6.9684,-6.971,-6.9814,-7.0102,-7.052,-7.1173,-7.1461,-7.1461,-7.0912,-7.0468,-7.0023,-6.9344,-6.9135,-6.9135,-6.903,-6.9318,-6.9579,-6.9004,-6.9631,-7.0415,-7.0311,-6.9919,-6.9422,-6.8952,-6.8764,-6.8716,-6.8246,-6.8063,-6.788,-6.7462,-6.7563,-6.7659,-6.751,-6.7131,-6.6721,-6.6255,-6.5064,-6.4215,-6.391,-6.3224,-6.2822,-6.2822,-6.2822,-6.2822,-6.2822,-6.2822,-6.2822,-6.2822,-6.2822,-6.2822,-6.2822,-6.2822,-6.2873,-6.2973,-6.2973,-6.3023,-6.3099,-6.3099,-6.3048,-6.2973,-6.2873,-6.2873,-6.2973,-6.2873,-6.2822,-6.2822,-6.2822,-6.2822,-6.2822,-6.2822,-6.2822,-6.2822,-6.2822,-6.2822,-6.2822,-8.6808,-8.6808,-8.7048,-8.7706,-8.7766,-8.7975,-8.8693,-8.8813,-8.8813,-8.8813,-8.8813,-8.9023,-8.9621,-9.016,-9.0549,-9.0638,-9.0638,-9.0638,-9.0638,-9.0549,-9.0219,-8.9561,-8.871,-8.6242,-8.2136,-8.1146,-7.8825,-7.5016,-7.4336,-7.3996,-7.3996,-7.3918,-7.3526,-7.2846,-7.248,-7.1958,-7.133,-7.0259,-7.0128,-7.0546,-6.9945,-6.9684,-6.9762,-7.0285,-7.0206,-6.9945,-7.1017,-7.1748,-7.2088,-7.1487,-7.1592,-7.1748,-7.0703,-7.0363,-7.0259,-6.9736,-6.9631,-6.9579,-6.9004,-6.9318,-6.971,-6.9213,-6.903,-6.8952,-6.879,-6.8764,-6.8821,-6.8743,-6.8324,-6.8115,-6.8533,-6.7498,-6.6965,-6.7918,-6.658,-6.5663,-6.6543,-6.5395,-6.4438,-6.4354,-6.345,-6.2822,-6.2822,-6.2822,-6.2822,-6.2822,-6.2822,-6.2822,-6.2822,-6.2822,-6.2822,-6.2822,-6.2822,-6.3073,-6.3576,-6.3576,-6.3802,-6.4254,-6.4254,-6.4002,-6.355,-6.3048,-6.3099,-6.355,-6.3048,-6.2822,-6.2822,-6.2822,-6.2822,-6.2822,-6.2822,-6.2822,-6.2822,-6.2822,-6.2822,-6.2822,-8.6748,-8.6988,-8.7227,-8.7137,-8.7137,-8.7347,-8.8035,-8.8125,-8.8125,-8.8125,-8.8125,-8.8245,-8.8544,-8.9471,-9.01,-9.01,-9.0429,-9.0489,-9.013,-9.01,-8.9651,-8.8604,-8.6354,-8.3988,-8.1714,-7.872,-7.6245,-7.4414,-7.4127,-7.3839,-7.35,-7.3186,-7.2559,-7.1696,-7.1461,-7.1017,-7.0415,-6.9919,-6.984,-7.0102,-7.018,-6.9997,-6.9762,-7.0363,-7.0442,-7.0311,-7.1121,-7.1801,-7.2219,-7.1618,-7.1592,-7.1592,-7.0442,-7.0102,-7.0023,-6.9788,-6.9945,-7.0128,-6.9893,-6.9997,-7.0128,-6.9893,-6.9344,-6.8926,-6.9239,-6.9082,-6.8664,-6.8011,-6.7671,-6.7462,-6.7436,-6.7064,-6.6866,-6.7222,-6.6515,-6.5927,-6.5959,-6.4764,-6.388,-6.355,-6.3124,-6.2822,-6.2822,-6.2822,-6.2822,-6.2822,-6.2822,-6.2822,-6.2822,-6.2822,-6.2822,-6.2822,-6.2822,-6.3099,-6.3676,-6.3701,-6.3952,-6.4454,-6.4454,-6.4354,-6.4128,-6.3852,-6.3726,-6.3676,-6.3425,-6.3124,-6.2822,-6.2822,-6.2822,-6.2822,-6.2822,-6.2822,-6.2822,-6.2822,-6.2822,-6.2822]},{"header":{"parameterUnit":"m.s-1","parameterCategory":1,"la1":30.6,"la2":28.766,"lo1":-90.7593,"lo2":-88.6598,"dy":0.0162,"dx":0.0183,"nx":116,"ny":114,"refTime":"2024-04-24T12:00:00:Z","depth":0,"parameterNumber":3,"parameterNumberName":"V-component_of_WINDS"},"data":[0.0,0.0,0.0,0.0,0.0,0.0,0.0,0.0,0.0,0.0,0.0,0.0,0.0,0.0,0.0,0.0,0.0,0.0,0.0,0.0,0.0,0.0,0.0,0.0,0.0,0.0,0.0,0.0,0.0,0.0,0.0,0.0,0.0,0.0,0.0,0.0,0.0,0.0,0.0,0.0,0.0,0.0,0.0,0.0,0.0,0.0,0.0,0.0,0.0,0.0,0.0,0.0,0.0,0.0,0.0,0.0,0.0,0.0,0.0,0.0,0.0,0.0,0.0,0.0,0.0,0.0,0.0,0.0,0.0,0.0,0.0,0.0,0.0,0.0,0.0,0.0,0.0,0.0,0.0,0.0,0.0,0.0,0.0,0.0,0.0,0.0,0.0,0.0,0.0,0.0,0.0,0.0,0.0,0.0,0.0,0.0,0.0,0.0,0.0,0.0,0.0,0.0,0.0,0.0,0.0,0.0,0.0,0.0,0.0,0.0,0.0,0.0,0.0,0.0,0.0,0.0,0.0,0.0,0.0,0.0,0.0,0.0,0.0,0.0,0.0,0.0,0.0,0.0,0.0,0.0,0.0,0.0,0.0,0.0,0.0,0.0,0.0,0.0,0.0,0.0,0.0,0.0,0.0,0.0,0.0,0.0,0.0,0.0,0.0,0.0,0.0,0.0,0.0,0.0,0.0,0.0,0.0,0.0,0.0,0.0,0.0,0.0,0.0,0.0,0.0,0.0,0.0,0.0,0.0,0.0,0.0,0.0,0.0,0.0,0.0,0.0,0.0,0.0,0.0,0.0,0.0,0.0,0.0,0.0,0.0,0.0,0.0,0.0,0.0,0.0,0.0,0.0,0.0,0.0,0.0,0.0,0.0,0.0,0.0,0.0,0.0,0.0,0.0,0.0,0.0,0.0,0.0,0.0,0.0,0.0,0.0,0.0,0.0,0.0,0.0,0.0,0.0,0.0,0.0,0.0,0.0,0.0,0.0,0.0,0.0,0.0,0.0,0.0,0.0,0.0,0.0,0.0,0.0,0.0,0.0,0.0,0.0,0.0,0.0,0.0,0.0,0.0,0.0,0.0,0.0,0.0,0.0,0.0,0.0,0.0,0.0,0.0,0.0,0.0,0.0,0.0,0.0,0.0,0.0,0.0,0.0,0.0,0.0,0.0,0.0,0.0,0.0,0.0,0.0,0.0,0.0,0.0,0.0,0.0,0.0,0.0,0.0,0.0,0.0,0.0,0.0,0.0,0.0,0.0,0.0,0.0,0.0,0.0,0.0,0.0,0.0,0.0,0.0,0.0,0.0,0.0,0.0,0.0,0.0,0.0,0.0,0.0,0.0,0.0,0.0,0.0,0.0,0.0,0.0,0.0,0.0,0.0,0.0,0.0,0.0,0.0,0.0,0.0,0.0,0.0,0.0,0.0,0.0,0.0,0.0,0.0,0.0,0.0,0.0,0.0,0.0,0.0,0.0,0.0,0.0,0.0,0.0,0.0,0.0,0.0,0.0,0.0,0.0,0.0,0.0,0.0,0.0,0.0,0.0,0.0,0.0,0.0,0.0,0.0,0.0,0.0,0.0,0.0,0.0,0.0,0.0,0.0,0.0,0.0,0.0,0.0,0.0,0.0,0.0,0.0,0.0,0.0,0.0,0.0,0.0,0.0,0.0,0.0,0.0,0.0,0.0,0.0,0.0,0.0,0.0,0.0,0.0,0.0,0.0,0.0,0.0,0.0,0.0,0.0,0.0,0.0,0.0,0.0,0.0,0.0,0.0,0.0,0.0,0.0,0.0,0.0,0.0,0.0,0.0,0.0,0.0,0.0,0.0,0.0,0.0,0.0,0.0,0.0,0.0,0.0,0.0,0.0,0.0,0.0,0.0,0.0,0.0,0.0,0.0,0.0,0.0,0.0,0.0,0.0,0.0,0.0,0.0,0.0,0.0,0.0,0.0,0.0,0.0,0.0,0.0,0.0,0.0,0.0,0.0,0.0,0.0,0.0,0.0,0.0,0.0,0.0,0.0,0.0,0.0,0.0,0.0,0.0,0.0,0.0,0.0,0.0,0.0,0.0,0.0,0.0,0.0,0.0,0.0,0.0,0.0,0.0,0.0,0.0,0.0,0.0,0.0,0.0,0.0,0.0,0.0,0.0,0.0,0.0,0.0,0.0,0.0,0.0,0.0,0.0,0.0,0.0,0.0,0.0,0.0,0.0,0.0,0.0,0.0,0.0,0.0,0.0,0.0,0.0,0.0,0.0,0.0,0.0,0.0,0.0,0.0,0.0,0.0,0.0,0.0,0.0,0.0,0.0,0.0,0.0,0.0,0.0,0.0,0.0,0.0,0.0,0.0,0.0,0.0,0.0,0.0,0.0,0.0,0.0,0.0,0.0,0.0,0.0,0.0,0.0,0.0,0.0,0.0,0.0,0.0,0.0,0.0,0.0,0.0,0.0,0.0,0.0,0.0,0.0,0.0,0.0,0.0,0.0,0.0,0.0,0.0,0.0,0.0,0.0,0.0,0.0,0.0,0.0,0.0,0.0,0.0,0.0,0.0,0.0,0.0,0.0,0.0,0.0,0.0,0.0,0.0,0.0,0.0,0.0,0.0,0.0,0.0,0.0,0.0,0.0,0.0,0.0,0.0,0.0,0.0,0.0,0.0,0.0,0.0,0.0,0.0,0.0,0.0,0.0,0.0,0.0,0.0,0.0,0.0,0.0,0.0,0.0,0.0,0.0,0.0,0.0,0.0,0.0,0.0,0.0,0.0,0.0,0.0,0.0,0.0,0.0,0.0,0.0,0.0,0.0,0.0,0.0,0.0,0.0,0.0,0.0,0.0,0.0,0.0,0.0,0.0,0.0,0.0,0.0,0.0,0.0,0.0,0.0,0.0,0.0,0.0,0.0,0.0,0.0,0.0,0.0,0.0,0.0,0.0,0.0,0.0,0.0,0.0,0.0,0.0,0.0,0.0,0.0,0.0,0.0,0.0,0.0,0.0,0.0,0.0,0.0,0.0,0.0,0.0,0.0,0.0,0.0,0.0,0.0,0.0,0.0,0.0,0.0,0.0,0.0,0.0,0.0,0.0,0.0,0.0,0.0,0.0,0.0,0.0,0.0,0.0,0.0,0.0,0.0,0.0,0.0,0.0,0.0,0.0,0.0,0.0,0.0,0.0,0.0,0.0,0.0,0.0,0.0,0.0,0.0,0.0,0.0,0.0,0.0,0.0,0.0,0.0,0.0,0.0,0.0,0.0,0.0,0.0,0.0,0.0,0.0,0.0,0.0,0.0,0.0,0.0,0.0,0.0,0.0,0.0,0.0,0.0,0.0,0.0,0.0,0.0,0.0,0.0,0.0,0.0,0.0,0.0,0.0,0.0,0.0,0.0,0.0,0.0,0.0,0.0,0.0,0.0,0.0,0.0,0.0,0.0,0.0,0.0,0.0,0.0,0.0,0.0,0.0,0.0,0.0,0.0,0.0,0.0,0.0,0.0,0.0,0.0,0.0,0.0,0.0,0.0,0.0,0.0,0.0,0.0,0.0,0.0,0.0,0.0,0.0,0.0,0.0,0.0,0.0,0.0,0.0,0.0,0.0,0.0,0.0,0.0,0.0,0.0,0.0,0.0,0.0,0.0,0.0,0.0,0.0,0.0,0.0,0.0,0.0,0.0,0.0,0.0,0.0,0.0,0.0,0.0,0.0,0.0,0.0,0.0,0.0,0.0,0.0,0.0,0.0,0.0,0.0,0.0,0.0,0.0,0.0,0.0,0.0,0.0,0.0,0.0,0.0,0.0,0.0,0.0,0.0,0.0,0.0,0.0,0.0,0.0,0.0,0.0,0.0,0.0,0.0,0.0,0.0,0.0,0.0,0.0,0.0,0.0,0.0,0.0,0.0,0.0,0.0,0.0,0.0,0.0,0.0,0.0,0.0,0.0,0.0,0.0,0.0,0.0,0.0,0.0,0.0,0.0,0.0,0.0,0.0,0.0,0.0,0.0,0.0,0.0,0.0,0.0,0.0,0.0,0.0,0.0,0.0,0.0,0.0,0.0,0.0,0.0,0.0,0.0,0.0,0.0,0.0,0.0,0.0,0.0,0.0,0.0,0.0,0.0,0.0,0.0,0.0,0.0,0.0,0.0,0.0,0.0,0.0,0.0,0.0,0.0,0.0,0.0,0.0,0.0,0.0,0.0,0.0,0.0,0.0,0.0,0.0,0.0,0.0,0.0,0.0,0.0,0.0,0.0,0.0,0.0,0.0,0.0,0.0,0.0,0.0,0.0,0.0,0.0,0.0,0.0,0.0,0.0,0.0,0.0,0.0,0.0,0.0,0.0,0.0,0.0,0.0,0.0,0.0,0.0,0.0,0.0,0.0,0.0,0.0,0.0,0.0,0.0,0.0,0.0,0.0,0.0,0.0,0.0,0.0,0.0,0.0,0.0,0.0,0.0,0.0,0.0,0.0,0.0,0.0,0.0,0.0,0.0,0.0,0.0,0.0,0.0,0.0,0.0,0.0,0.0,0.0,0.0,0.0,0.0,0.0,0.0,0.0,0.0,0.0,0.0,0.0,0.0,0.0,0.0,0.0,0.0,0.0,0.0,0.0,0.0,0.0,0.0,0.0,0.0,0.0,0.0,0.0,0.0,0.0,0.0,0.0,0.0,0.0,0.0,0.0,0.0,0.0,0.0,0.0,0.0,0.0,0.0,0.0,0.0,0.0,0.0,0.0,0.0,0.0,0.0,0.0,0.0,0.0,0.0,0.0,0.0,0.0,0.0,0.0,0.0,0.0,0.0,0.0,0.0,0.0,0.0,0.0,0.0,0.0,0.0,0.0,0.0,0.0,0.0,0.0,0.0,0.0,0.0,0.0,0.0,0.0,0.0,0.0,0.0,0.0,0.0,0.0,0.0,0.0,0.0,0.0,0.0,0.0,0.0,0.0,0.0,0.0,0.0,0.0,0.0,0.0,0.0,0.0,0.0,0.0,0.0,0.0,0.0,0.0,0.0,0.0,0.0,0.0,0.0,0.0,0.0,0.0,0.0,0.0,0.0,0.0,0.0,0.0,0.0,0.0,0.0,0.0,0.0,0.0,0.0,0.0,0.0,0.0,0.0,0.0,0.0,0.0,0.0,0.0,0.0,0.0,0.0,0.0,0.0,0.0,0.0,0.0,0.0,0.0,0.0,0.0,0.0,0.0,0.0,0.0,0.0,0.0,0.0,0.0,0.0,0.0,0.0,0.0,0.0,0.0,0.0,0.0,0.0,0.0,0.0,0.0,0.0,0.0,0.0,0.0,0.0,0.0,0.0,0.0,0.0,0.0,0.0,0.0,0.0,0.0,0.0,0.0,0.0,0.0,0.0,0.0,0.0,0.0,0.0,0.0,0.0,0.0,0.0,0.0,0.0,0.0,0.0,0.0,0.0,0.0,0.0,0.0,0.0,0.0,0.0,0.0,0.0,0.0,0.0,0.0,0.0,0.0,0.0,0.0,0.0,0.0,0.0,0.0,0.0,0.0,0.0,0.0,0.0,0.0,0.0,0.0,0.0,0.0,0.0,0.0,0.0,0.0,0.0,0.0,0.0,0.0,0.0,0.0,0.0,0.0,0.0,0.0,0.0,0.0,0.0,0.0,0.0,0.0,0.0,0.0,0.0,0.0,0.0,0.0,0.0,0.0,0.0,0.0,0.0,0.0,0.0,0.0,0.0,0.0,0.0,0.0,0.0,0.0,0.0,0.0,0.0,0.0,0.0,0.0,0.0,0.0,0.0,0.0,0.0,0.0,0.0,0.0,0.0,0.0,0.0,0.0,0.0,0.0,0.0,0.0,0.0,0.0,0.0,0.0,0.0,0.0,0.0,0.0,0.0,0.0,0.0,0.0,0.0,0.0,0.0,0.0,0.0,0.0,0.0,0.0,0.0,0.0,0.0,0.0,0.0,0.0,0.0,0.0,0.0,0.0,0.0,0.0,0.0,0.0,0.0,0.0,0.0,0.0,0.0,0.0,0.0,0.0,0.0,0.0,0.0,0.0,0.0,0.0,0.0,0.0,0.0,0.0,0.0,0.0,0.0,0.0,0.0,0.0,0.0,0.0,0.0,0.0,0.0,0.0,4.4676,4.3573,0.0,0.0,0.0,0.0,0.0,0.0,0.0,0.0,0.0,0.0,0.0,0.0,0.0,0.0,0.0,0.0,0.0,0.0,0.0,0.0,0.0,0.0,0.0,4.035,4.0727,4.1254,4.1886,4.2213,4.2133,4.266,0.0,0.0,0.0,0.0,4.754,4.6796,4.7406,4.9669,4.8804,4.9264,5.1033,5.0685,4.8827,4.5808,0.0,0.0,0.0,0.0,0.0,0.0,0.0,0.0,0.0,0.0,0.0,0.0,0.0,0.0,0.0,0.0,0.0,0.0,0.0,0.0,0.0,0.0,0.0,0.0,0.0,0.0,0.0,0.0,0.0,0.0,0.0,0.0,0.0,0.0,0.0,0.0,0.0,0.0,0.0,0.0,0.0,0.0,0.0,0.0,0.0,0.0,0.0,0.0,0.0,0.0,0.0,0.0,0.0,0.0,0.0,0.0,0.0,0.0,0.0,0.0,0.0,0.0,0.0,0.0,0.0,0.0,0.0,0.0,0.0,0.0,4.9262,4.6853,0.0,0.0,0.0,0.0,0.0,0.0,0.0,0.0,0.0,0.0,0.0,0.0,0.0,0.0,0.0,0.0,0.0,0.0,0.0,0.0,0.0,4.0023,4.0475,4.0777,4.1354,4.2414,4.2665,4.3017,4.3514,4.3765,4.4561,4.6006,4.5473,4.6559,4.9426,4.8581,4.9078,5.1004,5.1556,5.2746,5.4546,5.5533,5.3733,4.9582,4.784,0.0,0.0,0.0,0.0,0.0,0.0,0.0,0.0,0.0,0.0,0.0,0.0,0.0,0.0,0.0,0.0,0.0,0.0,0.0,0.0,0.0,0.0,0.0,0.0,0.0,0.0,0.0,0.0,0.0,0.0,0.0,0.0,0.0,0.0,0.0,0.0,0.0,0.0,0.0,0.0,0.0,0.0,0.0,0.0,0.0,0.0,0.0,0.0,0.0,0.0,0.0,0.0,0.0,0.0,0.0,0.0,0.0,0.0,0.0,0.0,0.0,0.0,0.0,5.6984,5.8174,5.9655,6.0322,6.0961,6.1251,5.62,5.2514,5.0017,4.9582,0.0,0.0,0.0,0.0,0.0,0.0,0.0,0.0,0.0,0.0,0.0,0.0,0.0,0.0,0.0,0.0,0.0,0.0,0.0,4.0425,4.0501,4.1806,4.2911,4.3539,4.4468,4.5271,4.5824,4.692,4.7618,4.7869,4.9689,5.0984,5.1445,5.1709,5.2053,5.2362,5.5068,5.7158,5.8581,6.0874,6.16,6.0671,5.4458,5.2601,5.3849,0.0,0.0,0.0,0.0,0.0,0.0,0.0,0.0,0.0,0.0,0.0,0.0,0.0,0.0,0.0,0.0,0.0,0.0,0.0,0.0,0.0,0.0,0.0,0.0,0.0,0.0,0.0,0.0,0.0,0.0,0.0,0.0,0.0,0.0,0.0,0.0,0.0,0.0,0.0,0.0,0.0,4.6314,4.6401,0.0,0.0,0.0,0.0,0.0,0.0,0.0,0.0,0.0,0.0,0.0,0.0,0.0,5.6461,5.89,6.1164,6.2441,6.279,6.4532,6.5199,6.4938,6.5606,6.6244,6.6883,6.7144,0.0,5.5213,5.2978,0.0,0.0,0.0,0.0,0.0,0.0,0.0,0.0,0.0,0.0,0.0,0.0,0.0,0.0,0.0,0.0,0.0,0.0,0.0,0.0,0.0,4.4668,4.6425,4.734,5.0161,5.1062,4.9106,5.0213,5.0857,5.0812,5.0474,5.1208,5.3274,5.2509,5.3296,5.5794,6.0061,6.2819,6.4154,6.5983,6.6854,6.6709,6.3254,6.0177,5.7361,5.3646,0.0,0.0,0.0,0.0,0.0,0.0,0.0,0.0,0.0,0.0,0.0,0.0,0.0,0.0,0.0,0.0,0.0,0.0,0.0,0.0,0.0,0.0,0.0,0.0,0.0,0.0,0.0,0.0,0.0,0.0,0.0,0.0,0.0,0.0,0.0,0.0,0.0,0.0,0.0,4.8043,4.9669,4.8595,4.9959,4.964,0.0,0.0,0.0,0.0,0.0,0.0,0.0,0.0,0.0,5.8784,6.0758,6.2819,6.5025,6.7231,6.906,7.0482,7.1324,7.2166,7.295,7.324,7.3705,7.4314,7.4518,7.1382,6.5722,6.0961,5.649,5.2449,0.0,0.0,0.0,0.0,5.3162,5.4862,0.0,0.0,0.0,0.0,0.0,0.0,0.0,0.0,0.0,0.0,0.0,0.0,4.4963,4.8285,5.0944,5.2447,5.5614,5.6354,5.3599,5.3707,5.3888,5.3951,5.2188,5.2482,5.5159,5.4507,5.6223,6.0496,6.5141,6.8334,7.0105,7.1528,7.2398,7.266,7.1847,6.8044,6.1977,5.8406,5.5794,5.3762,0.0,0.0,0.0,0.0,0.0,0.0,0.0,0.0,0.0,0.0,0.0,0.0,0.0,0.0,0.0,0.0,0.0,0.0,0.0,0.0,0.0,0.0,0.0,0.0,0.0,0.0,0.0,0.0,0.0,0.0,0.0,0.0,0.0,0.0,0.0,0.0,0.0,5.1439,5.3007,5.0946,5.3675,5.35,0.0,0.0,0.0,0.0,0.0,0.0,5.8464,6.0264,6.2703,6.5925,6.8044,7.0047,7.1963,7.356,7.5417,7.7478,7.7304,7.8059,7.9627,7.9452,7.9627,8.0004,7.9394,7.7566,7.4576,6.816,6.2587,5.797,5.6554,5.5537,5.524,5.7793,5.9598,6.1376,0.0,0.0,0.0,0.0,0.0,0.0,0.0,0.0,0.0,0.0,0.0,4.5592,4.8083,5.262,5.6401,5.8859,5.9084,5.9385,5.973,5.7543,5.6476,5.7045,5.6967,5.6989,5.7158,5.948,6.2583,6.6447,6.9757,7.2979,7.6131,7.7943,7.9481,8.0556,7.9336,7.5563,6.9728,6.3545,6.0816,6.0177,5.3936,0.0,0.0,0.0,0.0,0.0,0.0,0.0,0.0,0.0,0.0,0.0,0.0,0.0,0.0,0.0,0.0,0.0,0.0,0.0,0.0,0.0,0.0,0.0,0.0,0.0,0.0,0.0,0.0,0.0,0.0,0.0,0.0,0.0,0.0,0.0,0.0,0.0,0.0,5.3617,5.8261,0.0,0.0,0.0,0.0,5.6026,5.948,6.2441,6.4444,6.7522,7.0657,7.385,7.6433,7.8669,8.0556,8.1281,8.2065,8.2791,8.2152,8.2239,8.2936,8.2297,8.2007,8.2007,8.1339,8.0265,7.8524,7.2108,6.6825,6.2499,6.0062,5.8867,5.8814,6.1317,6.3378,6.5274,0.0,0.0,0.0,0.0,0.0,3.9747,3.9898,4.0249,4.0651,4.0949,4.4646,4.8475,5.176,5.827,6.3412,6.5905,6.794,6.8168,6.5838,6.298,6.104,6.0413,5.8021,5.7854,6.0351,6.4154,6.7783,7.1208,7.6056,7.9249,8.0817,8.1891,8.2617,8.3052,8.2588,8.0788,7.7624,7.0395,6.5431,6.1977,5.6781,5.3036,0.0,0.0,0.0,0.0,0.0,0.0,0.0,0.0,0.0,0.0,0.0,0.0,0.0,0.0,0.0,0.0,0.0,0.0,0.0,0.0,0.0,0.0,0.0,0.0,0.0,0.0,0.0,0.0,0.0,0.0,0.0,0.0,0.0,0.0,0.0,0.0,0.0,6.2122,6.6099,0.0,6.0787,6.1251,6.2441,6.369,6.6564,6.9815,7.3414,7.5069,7.7362,8.0585,8.1572,8.2588,8.3691,8.3952,8.4387,8.4997,8.3923,8.3981,8.4997,8.3894,8.3662,8.3981,8.2471,8.1339,8.0265,7.7188,7.3037,6.843,6.6393,6.5249,6.5024,6.7693,6.9849,7.173,0.0,0.0,0.0,0.0,0.0,3.9597,4.0149,4.0551,4.1084,4.2042,4.6961,5.2004,5.611,6.3961,7.006,7.2733,7.414,7.3676,7.0918,6.5526,6.2288,6.18,5.9374,6.0001,6.4299,6.8567,7.2631,7.6521,8.0991,8.3633,8.4474,8.5084,8.549,8.5694,8.5258,8.4591,8.3429,7.7449,7.1469,6.5548,6.0642,5.7245,5.4691,0.0,0.0,0.0,0.0,0.0,0.0,0.0,0.0,0.0,0.0,0.0,0.0,0.0,0.0,0.0,0.0,0.0,0.0,0.0,0.0,0.0,0.0,0.0,0.0,0.0,0.0,0.0,0.0,0.0,0.0,0.0,0.0,0.0,0.0,6.3109,6.7783,6.8421,7.266,7.3414,6.8073,6.8944,7.0337,7.1644,7.4314,7.7275,8.0497,8.1455,8.2878,8.4997,8.5258,8.5607,8.6042,8.5839,8.6042,8.6652,8.5142,8.4997,8.5984,8.4678,8.4329,8.4649,8.2936,8.1949,8.1397,7.9685,7.7014,7.3777,7.1991,7.0799,7.0271,7.2395,7.4364,7.6289,0.0,0.0,0.0,0.0,0.0,3.9095,3.9597,4.0626,4.1907,4.3649,4.9801,5.5994,6.1041,6.9396,7.5969,7.9191,7.7101,7.533,7.4576,6.5079,6.0038,6.1162,6.1309,6.3777,6.8915,7.2747,7.7188,8.2326,8.4242,8.5839,8.7087,8.7726,8.8335,8.8887,8.7668,8.7116,8.6942,8.4416,7.8988,7.1586,6.5722,6.2877,6.1483,0.0,0.0,0.0,0.0,0.0,0.0,0.0,0.0,0.0,0.0,0.0,0.0,0.0,0.0,0.0,0.0,0.0,0.0,0.0,0.0,0.0,0.0,0.0,0.0,0.0,0.0,0.0,0.0,0.0,0.0,0.0,0.0,0.0,6.0264,6.7609,7.2631,7.2195,7.7624,7.922,7.3676,7.7014,7.954,7.9569,8.2471,8.4533,8.52,8.639,8.7058,8.7058,8.7639,8.7929,8.7929,8.729,8.7261,8.7842,8.5955,8.5403,8.5984,8.4678,8.4097,8.401,8.2733,8.2181,8.1978,7.9452,7.8436,7.8204,7.6259,7.494,7.4177,7.489,7.6507,7.847,0.0,0.0,0.0,3.7709,3.8851,3.9849,3.9699,4.0626,4.2214,4.4826,5.1625,5.8562,6.4837,7.2963,7.9481,8.3168,8.0294,7.7391,7.5359,6.7362,6.2509,6.189,6.4067,6.7957,7.356,7.6985,8.0759,8.4968,8.6884,8.8248,8.9061,8.9729,9.0106,9.028,9.0396,9.0193,8.9642,8.7523,8.4591,8.0701,7.2573,6.726,6.369,0.0,0.0,0.0,0.0,0.0,0.0,0.0,0.0,0.0,0.0,0.0,0.0,0.0,0.0,0.0,0.0,0.0,0.0,0.0,0.0,0.0,0.0,0.0,0.0,0.0,0.0,0.0,0.0,0.0,0.0,0.0,6.2645,6.7202,6.7754,7.3008,7.8291,8.2297,8.4736,8.5636,8.4533,8.4678,8.5055,8.552,8.6797,8.7842,8.848,8.8422,8.8568,8.9032,8.8306,8.7929,8.7929,8.6855,8.639,8.6536,8.5055,8.4939,8.5984,8.4678,8.4097,8.401,8.2733,8.192,8.1339,7.9714,7.8785,7.8175,7.5737,7.4649,7.4431,7.4505,7.5468,7.693,0.0,0.0,0.0,3.7873,3.8672,3.9444,3.9674,4.0425,4.2353,4.6326,5.3479,6.0886,6.785,7.5479,8.1223,8.4039,8.0265,7.6521,7.3676,6.7318,6.3381,6.294,6.7256,7.2398,7.8175,8.1194,8.4445,8.8045,8.9409,9.0542,9.1441,9.2109,9.2545,9.2835,9.2922,9.2603,9.1906,9.0251,8.8568,8.6536,8.0207,7.4982,7.0453,6.5548,6.3167,6.2035,5.9306,5.8668,5.8726,5.6229,0.0,0.0,0.0,0.0,0.0,0.0,0.0,0.0,0.0,0.0,0.0,0.0,0.0,0.0,0.0,0.0,0.0,0.0,0.0,0.0,0.0,0.0,0.0,0.0,6.8741,7.4169,7.7101,8.012,8.3633,8.8074,8.938,9.0193,9.0832,9.0222,8.9816,8.9932,9.028,9.028,8.9845,8.9467,8.9206,8.9032,8.8306,8.7929,8.7929,8.6681,8.6158,8.6419,8.4823,8.462,8.5607,8.4562,8.3952,8.3662,8.2646,8.1804,8.1078,7.954,7.8727,7.8233,0.0,0.0,0.0,0.0,7.5972,7.6991,0.0,0.0,3.8044,3.8288,3.8242,3.8491,3.9346,4.0074,4.2442,4.7839,5.5029,6.2435,6.9724,7.6579,8.131,8.2936,7.8291,7.3879,7.0512,6.6041,6.4028,6.5135,7.1193,7.713,8.2617,8.5258,8.8074,9.1151,9.1703,9.2632,9.3909,9.4519,9.5128,9.568,9.5157,9.4577,9.3909,9.2719,9.1441,9.0048,8.7639,8.3836,7.8988,7.3008,7.0976,7.0773,6.7144,6.4241,6.1977,6.0932,0.0,0.0,0.0,0.0,0.0,0.0,0.0,0.0,0.0,0.0,0.0,0.0,0.0,0.0,0.0,0.0,0.0,0.0,0.0,0.0,0.0,0.0,0.0,0.0,7.443,7.9888,8.6594,8.7581,8.8509,9.0861,9.2138,9.3067,9.3706,9.3706,9.3415,9.2777,9.2719,9.1877,8.9932,8.9816,0.0,0.0,0.0,8.7813,8.7813,8.6565,8.6158,8.6623,8.491,8.4387,8.4968,8.4358,8.372,8.3052,8.2442,8.1775,8.0962,7.9162,7.832,7.8117,7.7362,7.6288,7.5232,7.5936,7.6757,7.7519,0.0,3.9166,3.8477,3.7096,3.8104,3.8946,3.839,3.9572,4.2597,4.8518,5.4561,6.1081,6.8354,7.4082,7.8727,8.2094,7.7246,7.2166,6.7899,6.6709,6.7861,7.158,7.7355,8.2268,8.5984,8.8568,9.0948,9.3125,9.3241,9.3967,9.5244,9.5854,9.6202,9.6347,9.6754,9.658,9.5912,9.5186,9.4112,9.2777,9.1267,8.7029,8.1281,7.8001,7.5853,7.4285,7.1963,7.2398,7.3501,6.9786,6.8015,6.6854,6.3748,5.9248,0.0,0.0,0.0,0.0,0.0,0.0,0.0,0.0,0.0,0.0,0.0,0.0,0.0,0.0,0.0,0.0,0.0,0.0,0.0,7.3618,7.9917,8.5752,9.0222,9.1296,9.1993,9.3009,9.3328,9.3735,9.4373,9.3967,9.3415,9.2777,9.2719,9.1877,8.9932,8.9816,8.9467,8.8713,8.7697,8.7174,8.7174,8.5897,8.5055,8.4649,8.4271,0.0,8.4271,8.4155,8.3458,8.2384,8.2239,8.1543,8.0381,7.8959,7.7798,7.6724,7.5534,7.4285,7.3225,7.3362,7.4185,7.508,0.0,3.9519,3.8765,3.7361,3.7775,3.8222,3.8014,3.8969,4.1643,4.7026,5.1782,5.7048,6.3131,6.7223,7.016,7.175,6.8593,6.6003,6.4741,6.7574,7.1702,7.7159,8.2036,8.6245,8.9787,9.1412,9.3183,9.5099,9.5099,9.5738,9.7015,9.7305,9.7625,9.7973,9.8292,9.8089,9.7421,9.6812,9.5999,9.5012,9.4083,9.1558,8.8016,8.4503,8.2384,8.1049,7.9423,7.8843,7.8465,7.5882,7.3734,7.1731,6.9147,6.4822,6.0264,0.0,0.0,0.0,0.0,0.0,0.0,0.0,0.0,0.0,0.0,0.0,0.0,0.0,0.0,6.0816,6.2703,0.0,7.5069,7.9569,8.4591,8.9061,9.2254,9.327,9.3793,9.4112,9.4141,9.4402,9.5041,9.4838,9.4228,9.327,9.2893,9.1877,8.9932,8.9526,8.9061,8.8422,8.7784,8.7464,8.7464,8.6506,8.5868,8.552,8.4881,8.4591,8.4591,8.4242,8.3575,8.2675,8.2326,8.1659,8.0614,7.9046,7.7624,7.6346,7.5011,7.4111,7.3501,7.3077,7.3562,7.4334,0.0,3.9694,3.8675,3.7933,3.7552,3.7487,3.7939,3.8592,4.0695,4.5148,4.8784,5.2688,5.7212,5.9797,6.091,6.0055,6.025,6.1281,6.3215,6.9408,7.5766,8.2036,8.6042,8.9671,9.3009,9.3822,9.5099,9.687,9.687,9.745,9.8583,9.8583,9.8873,9.9424,9.9541,9.9279,9.8757,9.8408,9.7857,9.7218,9.6725,9.6057,9.4925,9.1064,8.8887,8.7755,8.6477,8.3778,8.0788,8.0381,7.7682,7.4372,7.3443,7.025,6.6157,6.2558,6.099,0.0,0.0,0.0,0.0,0.0,0.0,0.0,0.0,5.6549,5.8058,6.0264,6.3777,6.7289,6.9989,7.5185,8.0468,8.4765,8.8219,9.1151,9.3357,9.4199,9.4664,9.478,9.4809,9.5012,9.5564,9.5476,9.4925,9.3764,9.2951,9.1732,8.9932,8.9235,8.8626,8.8132,8.7871,8.7813,8.7929,8.7174,8.6797,8.6768,8.5636,8.5084,8.5055,8.4387,8.3749,8.3139,8.2355,8.1484,8.0527,7.9017,7.7624,7.6346,7.504,7.4518,7.4343,7.3453,7.3576,7.4144,0.0,3.9166,3.7933,3.7795,3.7884,3.7939,3.799,3.8919,4.0923,4.4703,4.743,5.0264,5.3472,5.5517,5.6046,5.4369,6.0125,6.4709,6.6611,7.3628,8.0236,8.6071,9.0019,9.2806,9.4373,9.5564,9.6841,9.8176,9.8176,9.8583,9.9279,9.9279,9.9337,9.9424,10.0005,10.0208,10.0208,10.0673,10.0498,9.9947,9.9889,9.9105,9.7799,9.6173,9.3764,9.1064,8.9758,8.6536,8.2936,8.34,8.102,7.7943,7.832,7.6172,7.2515,6.758,6.3748,6.009,5.5533,5.4081,5.4168,5.5533,5.5968,5.7274,0.0,6.3772,6.5635,6.8712,7.2398,7.5359,7.6259,8.1136,8.5403,8.6594,8.9932,9.269,9.3561,9.4199,9.4838,9.5418,9.5505,9.5535,9.5593,9.507,9.4431,9.3706,9.2545,9.1267,8.9903,8.9235,8.8858,8.8771,8.7668,8.7348,8.7929,8.6739,8.6129,8.6129,8.5432,8.5084,8.5055,8.4387,8.3749,8.311,8.1862,8.0323,7.8698,7.8494,7.7624,7.6346,7.5069,7.4547,7.4343,7.3095,7.3278,7.4021,0.0,3.872,3.7821,3.7821,3.7373,3.743,3.8646,3.8789,3.9575,4.2106,4.3573,4.4904,4.6107,4.6983,4.714,4.635,5.4063,6.0756,6.4887,7.4178,8.2239,8.8364,9.1964,9.4402,9.568,9.6957,9.806,9.8989,9.8989,9.9134,9.9395,9.9395,9.9395,9.9424,9.9686,10.0005,10.0411,10.0673,10.0818,10.0905,10.0905,10.0382,9.9337,9.7276,9.4054,9.0309,8.7929,8.5142,0.0,8.1194,7.9714,7.8582,7.9569,7.6666,7.2311,6.9408,6.5606,6.1571,5.8203,5.7361,5.7594,5.8406,6.0584,6.3457,6.7086,6.9495,7.1731,7.4605,7.8814,8.221,8.2849,8.6768,9.0106,0.0,9.2516,9.4054,9.4693,9.4693,9.4315,9.3473,9.3386,9.3822,9.4925,9.4431,9.3793,9.3154,9.1935,9.0977,9.0425,8.909,8.8509,8.8858,8.8016,8.7668,8.7929,8.7406,8.6942,8.6565,8.5926,8.5432,8.5055,8.4387,8.3546,8.2559,8.1601,8.0323,7.8901,7.8553,7.7624,7.6346,7.504,7.4314,7.3879,7.295,7.2615,7.2665,0.0,3.8251,3.7658,3.8432,3.7335,3.6995,3.8762,3.8608,3.8743,4.0099,4.0777,4.105,4.105,4.105,4.1,4.0902,4.9133,5.6803,6.256,7.3353,8.2588,8.9526,9.2893,9.536,9.6986,9.8292,9.9192,9.9686,9.9831,9.9918,9.9918,9.9918,9.9918,9.9918,10.0092,10.0498,10.0905,10.1108,10.1311,10.1573,10.1573,10.0789,9.925,9.6115,9.1703,8.6884,8.4591,8.1484,7.8175,7.5969,7.4982,7.4924,7.6201,7.4082,7.0744,6.877,6.5025,6.1164,5.9713,6.0119,6.1251,6.2325,6.5809,6.9757,7.2689,7.533,7.7885,8.0497,8.4387,8.7464,8.7958,9.0745,9.3067,9.3357,9.4228,9.4925,9.507,9.4344,9.3067,9.0948,9.0077,9.0251,9.1819,9.2516,9.2777,9.2486,9.1441,9.0832,9.0832,8.9148,8.848,8.9119,8.8364,8.8016,8.819,8.8016,8.761,8.6971,8.6332,8.5694,8.5055,8.4213,8.3226,8.2152,8.131,8.0236,7.8988,7.8204,7.7217,7.6056,7.4779,7.3995,7.3531,7.2863,7.2311,7.1959,0.0,0.0,3.7289,4.0015,3.8225,3.6782,3.7888,3.8517,3.9095,3.9647,4.0199,4.0551,4.0551,4.0551,4.0325,3.9798,4.7502,5.4814,6.0622,7.1351,8.1194,8.9467,9.2893,9.5767,9.8292,9.9657,10.0324,10.0382,10.0963,10.1224,10.1224,10.1224,10.1224,10.1282,10.1892,10.2211,10.2298,10.2879,10.2792,10.2269,10.2269,10.0382,9.7102,9.269,8.6652,8.0585,8.0468,7.5621,6.9031,6.7667,6.6418,6.5606,6.6883,6.845,6.9089,6.5315,6.1019,5.7739,5.8958,6.1106,6.3893,6.7638,7.1469,7.533,7.9133,8.1978,8.4533,8.7116,8.9264,9.0687,9.0687,9.2312,9.3444,9.2835,9.4344,9.5157,9.3909,9.2661,9.0919,8.8335,8.5839,8.4591,0.0,8.8742,9.1151,9.1761,9.118,9.0832,9.0832,8.9555,8.9148,8.9758,8.8568,8.8219,8.8829,8.8219,8.761,8.6971,8.6332,8.5694,8.5055,8.3807,8.2849,8.2123,8.0875,7.9598,7.832,7.7043,7.6143,7.5417,7.414,7.3618,7.3531,7.2863,7.2602,7.2469,0.0,0.0,0.0,0.0,0.0,3.7161,3.7889,3.8165,3.8642,3.9572,4.0174,0.0,0.0,0.0,0.0,0.0,4.5278,5.1169,5.6748,6.7197,7.6099,8.2588,8.9206,9.3532,9.5215,9.7363,9.8902,9.9744,9.9947,10.0005,10.0005,10.0005,10.0295,10.0702,10.0905,10.1485,10.2298,10.2008,10.1311,10.0295,9.9453,9.745,9.446,8.999,8.3371,7.5882,0.0,6.6738,6.279,6.0642,5.9916,6.0177,6.189,6.1745,6.0409,5.7826,5.8406,6.0061,6.0932,6.5199,7.0134,7.3124,7.742,8.1572,8.4155,8.6361,8.8132,8.9003,8.9032,8.8771,8.8335,8.88,8.9438,9.0077,9.2167,9.3677,9.3677,9.3299,9.1296,8.6594,8.5287,0.0,0.0,0.0,0.0,9.028,8.9874,8.9903,9.0774,8.9584,8.8974,8.9206,8.8364,8.8045,8.8248,8.761,8.6971,8.6332,8.5258,8.4416,8.3807,8.2936,8.2152,8.1455,8.0178,7.9162,7.8291,7.7014,7.5824,7.475,7.3937,7.3356,7.2979,7.3182,7.2718,7.2005,0.0,0.0,0.0,0.0,0.0,0.0,0.0,0.0,0.0,0.0,0.0,0.0,0.0,0.0,0.0,0.0,0.0,4.7956,5.2652,6.0988,6.8627,7.5098,8.0191,8.4042,8.6572,8.8015,8.9689,9.1651,9.2971,9.4315,9.5651,9.6347,9.7015,9.7683,9.8118,9.8786,9.9512,9.8844,9.7305,9.5157,9.3415,9.0338,8.6274,8.1339,7.4866,0.0,6.1454,5.7448,5.4894,5.3733,5.3733,5.4458,5.5707,5.562,5.4923,5.4342,5.7681,6.2064,6.4502,6.9815,7.5475,7.8727,8.2704,8.6245,8.7958,8.9119,8.9555,8.8655,8.729,8.5839,8.4474,8.3691,8.401,8.6448,8.8219,8.999,9.1993,9.1325,8.9061,8.491,8.34,8.1717,0.0,0.0,0.0,8.7813,8.8393,8.9003,9.0077,8.9322,8.8887,8.8887,8.8248,8.7929,8.7929,8.729,8.6565,8.5694,8.4591,8.3778,8.3168,8.25,8.1717,8.0817,7.954,7.8611,7.7943,7.6666,7.5621,7.4779,7.3937,7.3356,7.3037,7.3443,7.2776,7.1743,0.0,0.0,0.0,0.0,0.0,0.0,0.0,0.0,0.0,0.0,0.0,0.0,0.0,0.0,0.0,0.0,0.0,0.0,4.8395,5.3142,5.9337,6.711,6.6832,6.8782,7.352,7.3065,7.4364,7.7656,8.1003,8.4591,8.8219,9.0077,9.1267,9.1935,9.3183,9.3735,9.3677,9.3096,9.0629,8.6913,8.4416,7.9656,7.3472,6.787,6.218,5.6636,5.231,4.8682,4.6069,4.7317,4.8217,4.8827,4.8943,5.0714,5.3181,5.5242,5.9045,6.3835,6.9583,7.4982,7.9975,8.43,8.7232,8.938,9.0513,9.0193,8.8887,8.6274,8.4097,8.1833,0.0,0.0,7.7711,8.2181,8.3168,8.491,8.9293,8.7348,8.4939,0.0,0.0,0.0,0.0,0.0,0.0,8.4649,8.671,8.8074,8.8829,8.8887,8.8858,8.8829,8.8248,8.7929,8.7871,8.7232,8.6245,8.4997,8.4358,8.372,8.3081,8.2413,8.1426,8.0178,7.8901,7.8001,7.7304,7.5998,7.5446,7.533,7.4053,7.356,7.356,7.356,7.2747,7.1685,0.0,0.0,0.0,0.0,0.0,0.0,0.0,0.0,0.0,0.0,0.0,0.0,0.0,0.0,0.0,0.0,0.0,0.0,4.4414,4.8893,5.3136,5.6926,6.1392,6.5405,6.8925,6.8972,7.1103,7.5335,7.5057,7.6224,7.893,7.9423,8.0004,8.0643,8.1426,8.1804,8.1775,8.163,7.9598,7.6375,7.4779,7.1702,6.7754,6.4357,6.009,5.5562,5.3007,4.9407,4.6011,4.6795,4.8449,5.0423,5.1846,5.3733,5.6258,6.0584,6.5344,7.0366,7.5679,8.1572,8.671,8.8829,9.0571,9.1441,9.0338,8.848,8.6013,8.2471,7.832,7.4372,0.0,0.0,0.0,7.8291,8.3284,0.0,9.0832,9.0977,0.0,8.5752,0.0,8.2065,8.0614,7.9917,0.0,8.4097,8.4794,8.6187,8.8742,8.8887,8.8655,8.819,8.8016,8.7697,8.7232,8.6129,8.4939,8.3662,8.3517,8.282,8.1688,8.1078,8.0323,7.9481,7.8204,7.7566,7.7275,7.5504,7.475,7.4634,7.3356,7.2863,7.2863,7.2863,7.205,7.0976,0.0,0.0,0.0,0.0,0.0,0.0,0.0,0.0,0.0,0.0,0.0,0.0,0.0,0.0,0.0,0.0,0.0,0.0,0.0,4.4811,4.7486,4.9189,5.1851,5.4743,5.7696,5.6934,5.9162,6.4612,6.394,6.566,6.9641,6.9931,7.0395,7.1034,7.1992,7.2398,7.234,7.2079,7.0105,0.0,0.0,6.2354,5.8987,5.6694,5.4081,5.1468,5.0104,4.9117,4.8682,5.0423,5.1991,5.3733,5.6752,5.9422,6.2383,6.7231,7.1876,7.6433,8.102,8.61,9.0309,9.1064,9.1558,9.1006,8.7668,8.5142,8.1862,7.6056,7.1876,6.8276,6.5083,6.6651,6.9844,0.0,0.0,0.0,8.9526,9.0396,8.9671,0.0,8.5723,0.0,8.3023,8.1833,8.2297,8.5142,8.4852,8.5549,8.7929,8.8306,8.8306,8.7929,8.7929,8.7493,8.6565,8.5578,8.4445,8.3197,8.3197,8.25,8.1194,8.0846,8.0033,7.8872,7.8146,7.7507,7.6898,7.5504,7.4953,7.4808,7.356,7.3066,7.3008,7.2718,7.1818,7.0715,0.0,0.0,0.0,0.0,0.0,0.0,0.0,0.0,0.0,0.0,4.0757,4.1087,0.0,0.0,0.0,0.0,0.0,0.0,0.0,0.0,4.2896,4.386,4.2255,4.2578,4.5282,4.3344,4.5191,5.1101,5.1638,5.4711,6.0206,6.0874,6.1483,6.2003,6.3283,6.3748,6.3603,6.3167,6.1251,5.8348,5.6142,5.3152,4.9892,0.0,4.7201,4.6621,4.6098,4.813,5.173,5.5794,5.739,5.8464,6.3051,6.6622,7.0047,7.4721,7.8582,8.2152,8.61,8.9729,9.2341,9.2196,9.1412,8.9322,8.4126,8.0904,7.6753,6.877,0.0,6.2906,5.9858,6.1251,6.4764,7.0715,0.0,8.1397,8.7464,8.8161,8.8074,8.8161,8.7058,8.61,8.5636,8.3981,8.4155,8.7029,8.6129,8.5955,8.7058,8.7639,8.7871,8.7813,8.7726,8.7116,8.5926,8.5258,8.4358,8.3197,8.311,8.2413,8.1194,8.102,8.0004,7.8407,7.832,7.7566,7.6479,7.5766,7.5446,7.5272,7.4082,7.356,7.3414,7.2718,7.1731,7.0715,0.0,0.0,0.0,0.0,0.0,0.0,0.0,0.0,0.0,0.0,4.1438,4.0849,0.0,0.0,0.0,0.0,0.0,0.0,0.0,0.0,0.0,4.2981,4.2178,4.2436,4.4008,4.3161,4.3944,4.6441,4.6553,4.7856,5.0278,5.0917,5.1265,5.141,5.2165,5.2194,5.173,5.2194,5.1439,4.9901,4.9465,4.8246,4.6679,4.633,0.0,0.0,4.5924,4.6998,4.9756,5.8232,6.2529,6.5199,7.0221,7.3618,7.684,8.2413,8.5258,8.7552,9.1935,9.4373,9.5418,9.4373,9.2051,8.8509,8.2878,7.6811,0.0,0.0,6.0322,5.7245,5.5068,5.8435,6.3748,7.057,7.5969,8.1891,8.9293,8.938,8.8916,0.0,8.8364,8.7755,8.819,8.7435,0.0,0.0,8.7842,8.7523,8.7755,8.7871,8.7697,8.7174,8.6652,8.6013,8.5258,8.4591,8.3894,8.3168,8.2617,8.1949,8.1165,8.0091,7.9191,7.8378,7.7827,7.7159,7.6479,7.5766,7.5185,7.4605,7.3908,7.3269,7.2718,7.2079,7.1353,7.0657,0.0,0.0,0.0,0.0,0.0,0.0,0.0,4.021,4.1644,4.4913,4.5888,4.5262,4.2521,4.1594,4.1219,0.0,0.0,0.0,0.0,0.0,0.0,0.0,4.2806,4.3227,4.3551,4.3054,4.4076,4.6585,0.0,4.5836,4.7782,4.7404,4.7259,4.7259,4.7579,4.7521,4.7259,4.7608,4.7375,4.6795,4.6795,4.6446,4.5895,0.0,0.0,0.0,0.0,4.7782,5.1178,5.7129,6.3283,6.9641,7.6462,8.0352,8.3255,8.7726,8.9671,9.118,9.4664,9.6028,9.6115,9.4519,9.0716,8.549,7.8378,0.0,0.0,0.0,5.591,5.4139,5.3181,5.7216,0.0,6.6941,7.1992,7.7914,8.5287,8.6071,0.0,8.9526,8.9584,8.9555,0.0,8.9003,8.8684,8.9322,8.848,8.7929,8.7929,8.761,8.729,8.7,8.6042,8.5403,8.5084,8.4416,8.3778,8.3168,8.25,8.1833,8.1165,8.0236,7.9307,7.8378,7.8059,7.7362,7.645,7.5388,7.4808,7.443,7.3472,7.2892,7.2544,7.1905,7.1469,7.1063,0.0,0.0,0.0,0.0,0.0,0.0,4.158,4.2023,4.3789,4.8728,5.0435,4.9921,4.6751,4.4412,4.2687,0.0,0.0,0.0,0.0,0.0,0.0,0.0,0.0,0.0,0.0,0.0,0.0,4.6864,4.537,0.0,0.0,0.0,0.0,0.0,4.5895,4.5895,4.5895,4.5895,4.5895,0.0,0.0,4.5895,0.0,0.0,0.0,0.0,0.0,4.8246,5.1875,5.5416,6.189,6.9844,7.7827,8.3284,8.7261,8.9816,9.1761,9.3648,9.6057,9.6725,9.6231,9.417,8.8916,8.2123,7.4053,6.7318,0.0,5.4458,5.2484,5.2042,5.2187,5.5678,5.9684,0.0,6.7347,7.295,8.0701,8.2442,8.4591,0.0,0.0,0.0,9.0832,9.0019,0.0,9.0019,8.8858,8.8016,8.7726,8.7261,8.6855,8.6594,8.5607,8.5026,8.4881,8.4358,8.3865,8.3371,8.2559,8.192,8.1368,8.0497,7.9481,7.8407,7.8262,7.7537,7.645,7.5214,7.4634,7.4401,7.3269,7.2747,7.2544,7.205,7.1702,7.1353,0.0,0.0,0.0,0.0,0.0,0.0,4.1053,4.2974,4.636,5.2292,5.2252,5.1908,5.2517,5.0591,4.7485,0.0,0.0,0.0,0.0,0.0,0.0,0.0,0.0,0.0,0.0,0.0,0.0,4.3776,4.5109,0.0,0.0,0.0,0.0,0.0,0.0,4.5895,4.5895,4.5895,0.0,0.0,0.0,0.0,0.0,0.0,0.0,0.0,0.0,4.6534,4.8362,5.4981,0.0,6.2325,6.8915,7.7972,8.6187,8.6477,0.0,0.0,9.687,9.7421,9.6812,9.4286,8.7552,7.9685,7.2515,0.0,5.7507,5.2775,5.0801,5.0133,5.0743,5.2165,5.5242,0.0,6.4154,6.9089,7.9075,0.0,0.0,0.0,0.0,0.0,9.0832,9.1238,9.1296,9.0774,8.9526,8.8277,8.7116,8.7,8.6448,8.5287,8.5142,8.4794,8.4184,8.4126,8.4068,8.3981,8.2762,8.2152,8.2036,8.0207,7.9017,7.8378,7.7769,7.7101,7.6479,7.5708,7.5069,7.443,7.3792,7.3153,7.2602,7.2544,7.1789,7.086,0.0,0.0,0.0,0.0,0.0,0.0,4.143,4.2565,4.5762,5.3209,5.4514,5.5034,5.5892,5.5082,5.1522,4.4343,0.0,0.0,0.0,0.0,0.0,0.0,0.0,0.0,0.0,0.0,4.557,4.492,4.557,0.0,0.0,0.0,0.0,0.0,0.0,4.5895,4.5895,4.5895,0.0,0.0,0.0,0.0,0.0,0.0,0.0,0.0,0.0,0.0,4.8914,5.1323,0.0,0.0,5.9219,6.636,0.0,0.0,8.671,9.1035,9.5651,9.7189,9.6899,9.4315,8.6536,7.7972,7.2079,0.0,5.562,5.231,5.0598,4.9921,5.0589,5.141,5.321,5.6926,5.7826,6.1135,6.9844,0.0,0.0,0.0,8.6332,0.0,0.0,0.0,9.1325,9.0309,8.9032,8.7755,8.6477,8.6419,8.6013,8.5113,8.4707,8.4358,8.4097,8.4097,8.3923,8.3546,8.2617,8.1978,8.1543,8.0004,7.8959,7.8378,7.7682,7.684,7.5824,7.5214,7.4547,7.3908,7.3269,7.3095,7.3211,7.3211,7.2892,7.2427,0.0,0.0,0.0,0.0,0.0,3.8894,4.1505,4.2916,4.6264,5.3368,5.5456,5.6771,5.827,5.6619,5.3035,4.7259,4.5946,0.0,0.0,0.0,0.0,0.0,0.0,0.0,0.0,0.0,4.5895,4.5895,4.5895,4.5895,0.0,0.0,4.5895,4.5895,0.0,0.0,0.0,0.0,0.0,0.0,0.0,0.0,0.0,0.0,0.0,0.0,0.0,0.0,0.0,0.0,0.0,0.0,5.2862,5.7187,6.488,0.0,8.1543,8.7058,9.2486,9.5128,9.5854,9.3648,8.5258,7.6259,0.0,0.0,5.4429,5.1875,5.0452,4.9814,5.0307,5.0743,5.1672,5.3617,5.4023,5.6636,6.3951,6.6012,0.0,0.0,0.0,8.4591,8.9061,9.0716,9.1035,8.9903,8.8829,8.7581,8.61,8.6042,8.5636,8.4823,8.4329,8.4097,8.4097,8.3923,8.3604,8.3168,8.2326,8.1659,8.1136,7.9685,7.8814,7.8349,7.7507,7.6608,7.5737,7.4895,7.4285,7.3792,7.295,7.2892,7.3327,7.3327,7.3211,7.3008,0.0,0.0,0.0,0.0,0.0,0.0,4.0949,4.4682,4.8806,5.3109,5.4588,5.6465,5.9797,5.4546,5.1207,5.2397,4.7498,0.0,0.0,0.0,0.0,0.0,0.0,0.0,0.0,0.0,4.5895,4.5895,4.5895,4.5895,4.5895,4.5895,4.5895,4.5895,0.0,0.0,0.0,0.0,0.0,0.0,0.0,0.0,4.7782,0.0,0.0,0.0,0.0,0.0,0.0,0.0,0.0,0.0,0.0,5.2543,5.5416,6.4415,7.4721,8.3923,8.7145,9.0803,9.3386,9.2109,8.3604,7.4372,0.0,6.1425,5.3791,5.1207,5.0182,4.9717,4.9746,4.9746,5.0386,5.2281,5.4168,5.7623,6.4067,6.7173,0.0,0.0,0.0,7.9249,8.372,8.8219,9.0542,8.9874,8.9235,8.8045,8.6129,8.6042,8.5432,8.4126,8.4097,8.4097,8.4097,8.3487,8.3197,8.3168,8.1833,8.1194,8.1136,7.9249,7.8407,7.832,7.7043,7.6538,7.6421,7.5098,7.4547,7.4372,7.3124,7.2602,7.2631,7.2631,7.2224,7.1789,0.0,0.0,0.0,0.0,0.0,0.0,4.0878,4.2888,4.5779,5.0015,5.1203,5.3211,5.7191,5.3849,5.1497,5.1875,4.7903,0.0,0.0,0.0,0.0,0.0,0.0,0.0,0.0,4.5895,4.6534,4.784,4.784,4.8072,4.8508,4.8043,4.7375,4.6505,4.6069,4.5895,0.0,0.0,0.0,0.0,0.0,4.8246,4.8478,0.0,0.0,0.0,0.0,0.0,0.0,0.0,0.0,0.0,0.0,0.0,0.0,5.6665,6.5489,7.4924,7.8988,8.2268,8.3923,8.131,7.5098,6.8799,6.5635,5.9161,5.3355,5.1672,5.0452,4.9717,4.9717,4.9717,5.0598,5.3442,5.44,5.6258,0.0,0.0,0.0,7.4227,8.1804,8.729,0.0,8.9816,9.0048,8.9845,8.8422,8.7116,8.61,8.5636,8.4997,8.4126,8.4097,8.3894,8.3487,8.3284,8.2733,8.1833,8.1397,8.0991,8.0556,7.9511,7.8785,7.8349,7.7478,7.6608,7.5737,7.4895,7.4285,7.3821,7.295,7.2892,7.3298,7.3298,7.3182,7.295,0.0,0.0,0.0,0.0,0.0,0.0,4.0889,4.2746,4.501,4.7678,4.8701,5.0892,5.5217,5.1962,5.0133,5.1817,4.8246,0.0,0.0,0.0,0.0,0.0,0.0,0.0,4.5895,4.5895,4.7172,4.9814,5.0046,5.0743,5.1875,5.1701,5.0307,4.7898,4.7753,4.7143,0.0,0.0,0.0,0.0,4.8827,4.9088,4.9117,0.0,0.0,0.0,0.0,0.0,0.0,0.0,0.0,0.0,0.0,0.0,0.0,0.0,5.8871,6.5606,7.1295,7.5272,7.7304,7.5301,7.0453,6.5548,6.3225,5.7942,5.321,5.2194,5.0946,5.0133,5.0365,5.0017,5.0481,5.3007,5.382,5.5271,5.8464,0.0,0.0,7.4169,8.2413,0.0,8.88,8.9235,8.9467,8.9467,8.7929,8.671,8.6071,8.5432,8.4765,8.4097,8.3865,8.3575,8.3197,8.2704,8.2007,8.1194,8.0962,8.0643,8.0265,7.9365,7.8756,7.8349,7.7449,7.6608,0.0,7.5156,7.4518,7.3908,7.324,7.3095,7.324,7.324,7.324,7.3153,0.0,0.0,0.0,0.0,0.0,0.0,0.0,4.3943,4.6095,4.6172,4.7042,4.9233,5.3442,4.9117,4.755,5.1781,4.8304,0.0,0.0,0.0,0.0,0.0,0.0,0.0,4.5895,4.5895,4.7782,5.1701,5.2281,5.3588,5.5562,5.6142,5.4023,4.9834,5.0394,4.9291,4.6981,0.0,0.0,0.0,4.9436,4.9717,0.0,0.0,0.0,0.0,0.0,0.0,0.0,0.0,0.0,0.0,0.0,0.0,0.0,0.0,0.0,0.0,0.0,6.9118,7.2427,7.2282,6.8218,6.3777,6.1977,5.739,0.0,5.2688,5.1585,5.0946,5.1585,5.0627,5.022,5.1643,5.2891,5.4749,5.7913,6.2616,6.8305,0.0,8.0004,8.3139,8.4184,8.7058,8.8858,8.88,8.7639,8.6652,8.5984,8.5374,8.4707,8.4039,8.3429,8.311,8.311,8.1891,8.1223,8.1136,8.0556,8.0265,8.0178,7.9017,7.8407,7.8262,7.7043,7.6567,7.6479,7.5766,7.5127,7.4488,7.385,7.3211,7.2602,7.2602,7.2602,7.2515,0.0,0.0,0.0,0.0,0.0,0.0,0.0,0.0,0.0,0.0,4.6194,4.6737,4.7811,4.6708,4.6301,0.0,0.0,0.0,0.0,0.0,0.0,0.0,0.0,0.0,4.5895,4.5895,4.8014,5.2339,5.2484,5.4052,5.6839,5.6549,5.4284,5.0502,5.0598,4.9785,4.8257,4.8547,0.0,0.0,4.9611,4.9717,0.0,0.0,0.0,0.0,4.9717,4.9717,0.0,0.0,0.0,0.0,0.0,0.0,0.0,0.0,5.2368,5.3733,5.6026,0.0,6.0787,5.9364,5.7971,5.6868,0.0,5.4865,5.3326,5.2688,5.1933,5.1585,5.2223,5.1294,5.1323,5.4081,5.4778,5.5939,5.8668,6.7144,7.5127,8.073,8.5316,8.7581,8.6419,8.7871,8.8684,8.819,8.6971,8.5984,8.5345,8.4678,8.4039,8.3429,8.2762,8.2442,8.2442,8.2123,8.1484,8.0497,8.0381,8.0033,7.9511,7.922,7.8553,7.7624,7.7304,7.6898,7.6479,7.5766,7.5127,7.4459,7.385,7.3211,7.2602,7.2602,7.2602,7.2515,0.0,0.0,0.0,0.0,0.0,0.0,0.0,0.0,0.0,0.0,4.5895,4.5895,4.5895,4.5895,4.5895,0.0,0.0,0.0,0.0,0.0,0.0,0.0,0.0,4.5895,4.5895,4.5895,4.8508,5.3878,5.4168,5.6258,5.9945,5.9626,5.6955,5.2368,5.0569,4.9553,4.9175,4.9494,4.964,4.9727,5.0336,0.0,0.0,0.0,0.0,0.0,4.9717,4.9717,0.0,5.117,5.1606,5.1606,0.0,0.0,0.0,0.0,5.1585,5.2572,5.263,5.4487,5.6258,5.5562,5.5155,5.4923,5.4923,5.4197,5.3413,5.3065,5.2484,5.2252,5.2891,5.1962,5.1846,5.4168,5.5039,5.7448,6.3283,7.0192,7.6985,8.3313,8.6187,8.7697,8.7842,8.7958,8.7871,8.7523,8.6332,8.5432,8.5113,8.4445,8.3807,8.3226,8.2849,8.2355,8.1746,8.1455,8.0991,8.0294,8.0294,7.9946,7.9278,7.9017,7.8349,7.7391,7.7101,7.6608,7.5998,7.565,7.5098,7.4459,7.385,7.3385,7.3037,7.2718,7.2602,7.2515,0.0,0.0,0.0,0.0,0.0,0.0,0.0,0.0,0.0,0.0,0.0,0.0,0.0,0.0,0.0,0.0,0.0,0.0,0.0,0.0,0.0,0.0,4.5895,4.6011,4.6301,4.6127,4.903,5.5126,5.6084,5.8697,6.2819,6.3196,6.0322,5.4633,5.1062,4.9524,4.9727,5.0444,5.0386,4.993,5.1149,0.0,0.0,0.0,0.0,0.0,0.0,0.0,0.0,5.1751,5.2333,5.2333,5.2333,0.0,0.0,0.0,0.0,0.0,5.2339,5.3936,5.5591,5.5794,5.5474,5.5126,5.5126,5.4284,5.35,5.35,5.3094,5.2891,5.3559,5.2862,5.2601,5.3762,5.5503,5.9974,6.9321,7.295,7.7159,8.3981,8.5316,8.6332,8.7987,8.7435,8.6913,8.671,8.5694,8.5055,8.4939,8.4387,8.3778,8.3052,8.3052,8.2413,8.1078,8.0643,8.0323,8.0149,8.0149,7.9743,7.8988,7.8494,7.7885,7.7217,7.6579,7.6056,7.565,7.5446,7.5011,7.4459,7.385,7.356,7.3385,7.2834,7.2602,7.2515,0.0,0.0,0.0,0.0,0.0,0.0,0.0,0.0,0.0,0.0,0.0,0.0,0.0,0.0,0.0,0.0,0.0,0.0,0.0,0.0,0.0,4.5895,4.5895,4.665,4.8246,4.7184,4.903,5.3791,5.6055,5.8639,6.1542,6.369,6.1629,5.6026,5.3791,5.1614,4.9727,5.0444,5.0627,5.0598,5.1323,0.0,0.0,0.0,0.0,0.0,0.0,0.0,0.0,5.0734,5.1025,5.1025,5.1025,0.0,0.0,0.0,0.0,0.0,5.4807,5.5968,5.5765,5.3675,5.3471,5.3791,5.3791,5.3646,5.35,5.35,5.3442,5.3559,5.4226,5.4604,5.5068,5.5852,5.9771,6.5519,7.3501,7.7304,8.0323,8.3139,8.6332,8.7377,8.5055,8.6129,8.6536,8.5461,8.52,8.4852,8.4271,8.4155,8.3546,8.2384,8.2355,8.1746,8.0439,8.0846,8.0527,7.9452,7.9452,7.8843,7.7682,7.7595,7.7217,7.6579,7.594,7.5911,7.623,7.5127,7.4605,7.4459,7.385,7.3269,7.2747,7.266,7.2602,7.2515,0.0,0.0,0.0,0.0,0.0,0.0,0.0,0.0,0.0,0.0,0.0,0.0,0.0,0.0,0.0,0.0,0.0,0.0,0.0,0.0,4.6505,4.7869,4.7608,4.784,4.8663,4.9175,5.1962,5.7129,6.0032,6.279,6.5286,6.3312,6.0264,5.6287,5.3297,5.1323,5.027,5.0589,5.0888,5.1236,0.0,0.0,0.0,0.0,0.0,0.0,0.0,0.0,0.0,0.0,5.1751,5.1751,5.1751,0.0,0.0,0.0,0.0,0.0,5.3849,5.4575,5.4807,5.4691,5.5387,5.5823,5.4778,5.4546,5.4546,5.4546,5.4546,5.4749,5.5416,5.6607,5.8639,6.2064,6.6012,7.0512,7.5795,7.8407,8.0875,8.3865,8.5432,8.6129,8.5694,8.5839,8.5723,8.5142,8.4765,8.4416,8.4097,8.4097,8.3517,8.2239,8.2181,8.1572,8.0323,8.0207,7.9888,7.9307,7.9307,7.864,7.7391,7.7391,7.6869,7.594,7.565,7.5272,7.4866,7.4285,7.4024,7.3966,7.3327,7.3095,7.3124,7.2747,7.2602,7.2573,0.0,0.0,0.0,0.0,0.0,0.0,0.0,0.0,0.0,0.0,0.0,0.0,0.0,0.0,0.0,0.0,0.0,0.0,0.0,4.6011,4.6969,4.8914,4.9262,4.9901,5.0946,5.2252,5.5707,6.1309,6.4677,6.7492,6.9583,6.4096,5.9945,5.6926,5.3355,5.1439,5.0917,5.1112,5.1381,5.1904,0.0,0.0,0.0,0.0,0.0,0.0,0.0,0.0,0.0,0.0,0.0,0.0,0.0,0.0,0.0,5.1614,5.1585,5.2333,5.3036,5.3471,5.4139,5.5765,5.6897,5.7448,5.6694,5.6287,5.62,5.6665,5.6636,5.6636,5.7013,5.9016,6.2529,6.8305,7.1905,7.5127,7.8494,7.9946,8.1804,8.4939,8.4852,8.5055,8.6419,8.5665,8.5026,8.4881,8.4387,8.4097,8.4097,8.4097,8.3517,8.2239,8.2181,8.1572,8.0323,7.9627,7.922,7.9075,7.893,7.8262,7.7159,7.7043,7.6433,7.5504,7.5185,7.4605,7.3792,7.3501,7.3472,7.356,7.2892,7.2921,7.3327,7.2805,7.2602,7.2602,0.0,0.0,0.0,0.0,0.0,0.0,0.0,0.0,0.0,0.0,0.0,0.0,0.0,0.0,0.0,0.0,0.0,0.0,0.0,4.6417,4.6807,4.6981,4.9794,5.3355,5.7536,5.7158,5.9451,6.4648,6.845,7.1005,7.2253,6.7667,6.3225,5.8987,5.6258,5.3762,5.1585,5.2194,5.2507,5.2594,5.3181,0.0,0.0,0.0,0.0,0.0,0.0,0.0,0.0,0.0,0.0,0.0,0.0,0.0,5.1149,5.2187,5.1722,5.1468,5.44,5.4836,5.4604,5.53,5.5562,5.6345,5.9219,5.8929,5.861,6.0409,6.0293,5.9684,5.919,6.2093,6.6476,7.2253,7.5882,7.9307,8.3081,8.4213,8.4997,8.5868,8.5926,8.5723,8.5258,8.5142,8.4823,8.4213,8.4126,8.4097,8.4097,8.4097,8.3517,8.2239,8.2181,8.1572,8.0323,7.9627,7.9017,7.8465,7.7827,7.7188,7.6521,7.5911,7.5592,7.5446,7.4256,7.4024,7.4343,7.3182,7.3066,7.356,7.2892,7.266,7.2689,7.2631,7.2602,7.2631,0.0,0.0,0.0,0.0,0.0,0.0,0.0,0.0,0.0,0.0,0.0,0.0,0.0,0.0,0.0,0.0,0.0,0.0,0.0,4.633,4.7317,4.9698,5.1352,5.3936,5.7594,6.0584,6.4793,7.0366,7.3385,7.4314,7.3095,6.6999,6.2209,5.8523,5.5155,5.3559,5.3384,5.2804,5.3239,5.4284,5.3733,5.35,0.0,0.0,0.0,0.0,0.0,0.0,0.0,0.0,5.0975,5.0888,5.1004,5.141,5.2013,5.2478,5.2274,5.2107,5.3326,5.4081,5.4749,5.5765,5.6316,5.7332,6.0177,6.1367,6.2296,6.3835,6.459,6.4764,6.4125,6.6506,7.0047,7.4634,7.8756,8.2297,8.491,8.5868,8.6361,8.6594,8.5926,8.5345,8.5113,8.4707,8.4358,8.4097,8.4097,8.3923,8.3546,8.3517,8.2936,8.1601,8.1572,8.0962,7.9685,7.9046,7.8407,7.7769,7.713,7.6491,7.5853,7.5185,7.4692,7.4314,7.3821,7.3501,7.3298,7.2805,7.2776,7.2979,7.2718,7.2602,7.2602,7.2602,7.2602,7.2631,0.0,0.0,0.0,0.0,0.0,0.0,0.0,0.0,0.0,0.0,0.0,0.0,0.0,0.0,0.0,0.0,0.0,0.0,4.6778,4.6621,4.7579,5.0017,5.1701,5.4052,5.7245,6.2964,6.8131,7.2689,7.5853,7.5795,7.2573,6.6302,6.2122,5.9655,5.5794,5.4894,5.62,5.4487,5.44,5.53,5.4023,5.35,0.0,0.0,0.0,0.0,0.0,0.0,0.0,0.0,5.1294,5.1352,5.1527,5.1904,5.2339,5.2746,5.2717,5.2565,5.231,5.3065,5.4168,5.5242,5.6578,5.8552,6.218,6.4009,6.5693,6.8392,6.8857,6.8625,6.8189,6.9699,7.2224,7.5853,8.0236,8.3865,8.5752,8.6245,8.639,8.639,8.5432,8.4765,8.4765,8.4358,8.401,8.3807,8.3807,8.3517,8.2907,8.2675,8.2065,8.0933,8.0701,8.0091,7.9017,7.8204,7.7566,7.7101,7.6056,7.5534,7.5475,7.4634,7.3995,7.3618,7.3385,7.3037,7.2602,7.2602,7.2602,7.2602,7.2602,7.2602,7.2602,7.2602,7.2602,7.2631,0.0,0.0,0.0,0.0,0.0,0.0,0.0,0.0,4.5895,4.5895,0.0,0.0,0.0,0.0,0.0,0.0,0.0,0.0,4.6836,4.7433,4.7491,4.6836,5.0511,5.4023,5.7158,6.4183,6.877,7.0744,7.5185,7.5069,7.057,6.6099,6.369,6.2906,5.9045,5.8406,6.0003,5.7477,5.6026,5.5329,5.4023,5.353,5.353,0.0,0.0,0.0,0.0,0.0,0.0,0.0,5.1781,5.1033,5.292,5.2659,5.1904,5.3152,5.3094,5.2455,5.1817,5.2107,5.2746,5.3384,5.5968,5.9858,6.5606,6.6912,6.8567,7.4343,7.3008,7.0773,7.0773,7.1295,7.2747,7.6044,8.0236,8.3865,8.5752,8.549,8.5084,8.5084,8.4474,8.4068,8.4097,8.4068,8.3836,8.3226,8.3168,8.2907,8.221,8.1543,8.0904,8.0294,7.9627,7.8988,7.8407,7.7101,7.6538,7.6479,7.4518,7.4285,7.5446,7.4169,7.3618,7.356,7.2892,7.2602,7.2602,7.2602,7.2602,7.2602,7.2602,7.2602,7.2602,7.2602,7.2602,7.2702,0.0,0.0,0.0,0.0,0.0,0.0,0.0,0.0,4.5895,4.5895,4.5895,0.0,0.0,0.0,0.0,0.0,0.0,0.0,4.8112,4.7491,4.7433,4.8083,5.0569,5.1904,5.1933,5.8464,6.5664,7.3414,7.4314,7.2195,6.7289,6.4619,6.2325,6.0409,5.9655,5.9161,5.8726,5.6607,5.6113,5.6607,5.4894,5.4226,5.4226,0.0,0.0,0.0,0.0,0.0,0.0,0.0,0.0,0.0,5.3181,5.3588,5.3733,5.411,5.4371,5.4226,5.2717,5.3413,5.4836,5.591,5.8581,6.247,6.8276,6.9583,7.1092,7.6433,7.5708,7.4082,7.4082,7.4605,7.565,7.7537,8.0439,8.3168,8.5084,8.52,8.5084,8.5084,8.4126,8.3633,8.4039,8.3284,8.2878,8.3168,8.2762,8.2007,8.0933,8.0672,8.0062,7.8988,7.832,7.7653,7.7043,7.6201,7.5563,7.5069,7.4082,7.3821,7.414,7.3298,7.2921,7.2892,7.2718,7.2602,7.2573,7.2137,7.1963,7.1963,7.1963,7.2224,7.2602,7.2602,7.2602,7.2544,0.0,0.0,0.0,0.0,0.0,0.0,0.0,0.0,4.5895,4.5895,4.6098,4.6417,0.0,0.0,0.0,0.0,0.0,0.0,4.8362,4.7637,4.755,4.8304,4.9959,5.1556,5.3065,5.8174,6.3341,6.8509,6.9641,6.8073,6.4067,6.4183,6.3545,6.2383,6.3748,6.337,6.16,5.9655,5.8552,5.7971,5.6578,5.5852,5.562,0.0,0.0,0.0,0.0,0.0,0.0,0.0,0.0,0.0,5.3326,5.3617,5.3791,5.4052,5.4371,5.44,5.3239,5.4342,5.6287,5.8348,6.1454,6.5577,7.1615,7.4198,7.6288,7.9917,7.893,7.742,7.742,7.7304,7.7653,7.8959,8.1078,8.3081,8.4474,8.4474,8.4329,8.4329,8.3429,8.2936,8.3284,8.2646,8.2152,8.2065,8.1659,8.0875,7.9627,7.9307,7.8698,7.7653,7.6985,7.6346,7.5679,7.5069,7.4547,7.414,7.3501,7.3211,7.3211,7.2805,7.2602,7.2602,7.2602,7.2456,7.2195,7.1818,7.1528,7.1295,7.1295,7.1528,7.1876,7.1876,7.1876,7.1818,0.0,0.0,3.9614,4.0947,0.0,0.0,0.0,0.0,0.0,0.0,4.6475,4.6836,0.0,0.0,0.0,0.0,0.0,0.0,0.0,4.7898,4.7927,4.8043,4.9427,5.2659,5.8087,6.0961,6.1222,5.8871,6.2616,6.3254,6.1019,6.4299,6.6186,6.6912,6.9408,6.9089,6.6476,6.4386,6.1803,5.9074,5.8523,5.7884,5.7216,0.0,0.0,0.0,0.0,0.0,0.0,0.0,0.0,0.0,5.3384,5.321,5.2862,5.3355,5.3588,5.3675,5.3675,5.5097,5.739,6.0787,6.4706,6.935,7.5417,7.9598,8.25,8.3604,8.2123,8.0614,8.0497,7.954,7.9104,8.0207,8.1862,8.3226,8.3836,8.3458,8.311,8.311,8.2471,8.2065,8.2181,8.2036,8.1484,8.0381,8.0178,7.9569,7.8291,7.7595,7.6956,7.6363,7.565,7.504,7.443,7.3821,7.3531,7.3501,7.2863,7.2544,7.2544,7.2573,7.2573,7.2515,7.2456,7.2079,7.1498,7.1498,7.115,7.0628,7.0628,7.0657,7.0715,7.0715,7.0715,7.0715,0.0,0.0,4.262,4.1926,0.0,0.0,0.0,0.0,0.0,0.0,0.0,0.0,0.0,0.0,0.0,0.0,0.0,0.0,0.0,4.8798,4.8972,5.0017,5.2252,5.4749,5.7448,5.7216,5.6578,5.5533,5.89,5.9974,5.9016,6.3225,6.5519,6.6215,6.8305,6.7522,6.4415,6.099,5.8842,5.7768,5.8145,5.7623,5.6665,5.7129,0.0,0.0,0.0,0.0,0.0,0.0,0.0,0.0,5.3936,5.4197,5.4023,5.3617,5.4226,5.501,5.501,5.6432,5.9016,6.3748,6.9699,7.5301,7.8698,8.0875,8.2123,8.1862,8.2588,8.2965,8.1978,8.1572,8.1281,8.1049,8.1339,8.1862,8.25,8.25,8.2413,8.2413,8.1397,8.1107,8.2094,8.0817,8.0033,8.0265,7.9365,7.8233,7.6956,7.6259,7.5621,7.4953,7.4343,7.3966,7.3792,7.3153,7.2834,7.2834,7.2166,7.1876,7.1905,7.2398,7.234,7.1847,7.1353,7.0773,7.0192,7.0192,7.0105,6.9989,6.9989,7.0279,7.0715,7.0715,7.0715,7.0657,0.0,0.0,0.0,0.0,0.0,0.0,0.0,0.0,0.0,0.0,0.0,0.0,0.0,0.0,0.0,0.0,0.0,0.0,0.0,4.8914,4.9582,5.1497,5.4052,5.5591,5.5968,5.5591,5.4662,5.3123,5.4807,5.6549,5.8406,6.2587,6.5519,6.7376,6.9002,6.7783,6.4328,6.1716,6.0032,5.9161,5.919,5.9016,5.8668,5.8377,5.6868,5.4865,5.4226,0.0,0.0,0.0,0.0,0.0,0.0,0.0,5.3965,5.3617,5.4226,5.5126,5.5707,5.8203,6.218,6.8857,7.4198,7.832,8.0294,8.1223,8.1717,8.1688,8.2965,8.3807,8.2849,8.2675,8.2442,8.1775,8.1659,8.1804,8.2152,8.192,8.1717,8.1717,8.0585,8.0091,8.0759,7.9627,7.8756,7.8465,7.7856,7.6898,7.5592,7.5214,7.475,7.4111,7.3472,7.3124,7.3124,7.2195,7.1847,7.2166,7.1528,7.1208,7.1237,7.1557,7.1528,7.1208,7.086,7.0366,6.9786,6.9786,6.9583,6.9321,6.9321,6.9525,6.9815,6.9815,6.9815,6.9757,0.0,0.0,0.0,0.0,0.0,0.0,0.0,0.0,0.0,0.0,0.0,0.0,0.0,0.0,0.0,0.0,0.0,0.0,0.0,0.0,0.0,5.263,5.5097,5.5968,5.501,5.5271,5.4342,5.2107,5.2223,5.4575,5.9016,6.2325,6.5693,6.9031,6.9728,6.8218,6.5025,6.308,6.1542,6.0351,6.0003,6.0003,6.009,5.9161,5.7332,5.5184,5.4575,5.3994,5.35,5.35,0.0,0.0,0.0,0.0,5.35,5.3384,5.382,5.4633,5.5881,6.0003,6.5722,7.3298,7.7188,7.9452,8.0614,8.1049,8.1339,8.1891,8.2965,8.3575,8.2965,8.2849,8.2646,8.1978,8.1775,8.1688,8.1688,8.1136,8.0701,8.0701,7.9685,7.8959,7.8959,7.8436,7.7566,7.6375,7.6201,7.5621,7.443,7.4227,7.3908,7.3298,7.2747,7.2398,7.2282,7.1237,7.0976,7.1498,7.086,7.0512,7.0395,7.0395,7.0453,7.0541,7.0453,7.0105,6.9612,6.9612,6.9292,6.8828,6.8828,6.8828,6.8828,6.8828,6.8828,6.8828,0.0,0.0,0.0,0.0,0.0,0.0,0.0,0.0,0.0,0.0,4.7259,4.7608,0.0,0.0,0.0,0.0,0.0,0.0,4.9553,0.0,0.0,5.3355,5.5329,5.6578,5.6926,5.5939,5.4981,5.411,5.4662,5.7187,6.16,6.2703,6.5519,6.9583,6.8073,6.6796,6.5519,6.0903,5.8203,5.7129,5.8145,5.7594,5.6229,5.6636,5.591,5.4546,5.3878,5.3588,5.35,5.35,5.35,0.0,0.0,0.0,5.3413,5.2862,5.3152,5.3936,5.5184,6.128,6.8305,7.2747,7.6201,7.8698,0.0,0.0,8.1223,8.131,8.192,8.2239,8.1572,8.1455,8.1252,8.0643,8.0062,7.9685,7.9685,7.9162,7.8785,7.8785,7.8117,7.7653,7.7653,7.7101,7.6404,7.5679,7.5098,7.4459,7.3763,7.3182,7.2573,7.1963,7.1847,7.1528,7.0976,7.0802,7.0773,7.0831,7.0192,6.9612,6.9089,6.9089,6.9379,6.9873,6.9321,6.9031,6.8944,6.8944,6.8886,6.8828,6.8828,6.8828,6.8828,6.8828,6.8828,6.8828,0.0,0.0,0.0,0.0,0.0,0.0,0.0,0.0,0.0,0.0,0.0,4.755,0.0,0.0,0.0,4.963,4.9717,4.9892,5.027,5.1381,5.2484,5.3471,5.4691,5.5474,5.5736,5.5184,5.4604,5.3965,5.4604,5.7739,6.3196,6.3864,6.6535,7.0715,6.7696,6.5809,6.4555,6.0584,5.8552,5.8,5.7826,5.7884,5.7971,5.6839,5.6055,5.5445,5.4429,5.3849,5.35,5.35,5.35,5.35,5.35,0.0,0.0,0.0,5.3559,5.4981,5.9132,6.3457,6.8044,0.0,7.5998,7.7566,7.8582,7.922,7.9627,7.9627,7.9859,8.0294,8.1049,8.1194,8.0875,7.9888,7.9481,7.9191,7.8843,7.8582,7.8407,7.8407,7.7507,7.6869,7.6869,7.5969,7.5127,7.4488,7.4169,7.3734,7.3095,7.2427,7.1963,7.1673,7.0976,7.0657,7.0715,7.0018,6.967,6.9641,6.9379,6.9089,6.8828,6.8828,6.8973,6.9234,6.8944,6.8828,6.8828,6.8828,6.8828,6.8828,6.8828,6.8828,6.8828,6.8828,6.8828,6.8886,0.0,0.0,0.0,0.0,0.0,0.0,0.0,0.0,0.0,0.0,0.0,0.0,0.0,0.0,0.0,0.0,4.9727,5.022,5.0888,5.1497,5.2281,5.3239,5.3907,5.4255,5.4255,5.4255,5.4023,5.35,5.4662,5.8581,6.5025,6.5838,6.9031,7.3879,6.9234,6.6447,6.5025,6.1513,6.0119,6.009,5.8116,5.7971,5.8813,5.7245,5.6345,5.5823,5.501,5.4226,5.35,5.35,5.35,5.35,5.35,5.35,0.0,0.0,0.0,5.5416,6.0671,0.0,6.5809,7.144,7.3937,7.5417,0.0,0.0,7.7943,7.8117,7.8146,7.8524,7.9772,8.0265,8.0178,7.922,7.8785,7.8407,7.7972,7.7624,7.742,7.742,7.655,7.5911,7.5766,7.4866,7.3966,7.3182,7.3124,7.2834,7.2166,7.1673,7.1353,7.1179,7.0279,6.9931,7.0221,6.9292,6.8828,6.8828,6.8828,6.8828,6.8828,6.8828,6.8828,6.8828,6.8828,6.8915,6.906,6.8886,6.8915,6.906,6.8886,6.8828,6.8828,6.8828,6.8944,6.9186,0.0,0.0,0.0,0.0,0.0,0.0,0.0,0.0,0.0,0.0,0.0,0.0,4.7753,4.7811,4.8043,4.8711,4.9901,5.0888,5.1527,5.2165,5.2594,5.2652,5.3239,0.0,5.3559,5.3559,5.3559,5.35,5.5968,6.0758,6.7696,6.8944,7.3531,8.041,7.3531,6.9757,6.8276,6.3835,6.2325,6.2558,5.8813,5.6636,5.5765,5.6839,5.6142,5.4691,5.5184,5.4575,5.35,5.35,5.35,5.35,5.35,5.35,5.35,0.0,0.0,0.0,0.0,5.861,0.0,6.4706,6.8305,7.1673,0.0,0.0,7.6724,7.7333,7.7449,7.7304,7.6782,7.7711,7.8524,7.8465,7.742,7.6608,7.6579,7.5475,7.4721,7.4721,7.4663,7.4401,7.3821,7.3705,7.3124,7.1876,7.176,7.1498,7.086,7.0802,7.0482,6.9902,6.9815,6.9495,6.8915,6.8857,6.8828,6.8828,6.8828,6.8828,6.8828,6.8828,6.8828,6.8828,6.8828,6.9176,6.967,6.906,6.9176,6.967,6.906,6.8828,6.8828,6.8828,6.9205,6.9777,0.0,0.0,0.0,0.0,0.0,0.0,0.0,0.0,0.0,0.0,0.0,0.0,0.0,4.8391,4.8827,4.9872,5.0772,5.1556,5.2194,5.2507,5.2746,5.3152,5.3384,5.35,5.35,5.35,5.3733,5.4168,5.5445,5.9277,6.546,6.7144,7.0686,7.5534,7.2195,7.0482,6.9641,6.3486,6.0787,6.0467,5.8203,5.7536,5.7826,5.7042,5.681,5.681,5.5765,5.5126,5.472,5.472,5.472,5.472,0.0,0.0,5.4662,5.4284,0.0,5.4023,0.0,0.0,0.0,6.337,6.6331,6.8828,7.0976,7.3124,7.4692,7.4924,7.5272,7.5475,7.5243,7.6288,7.7014,7.6608,7.6143,7.5708,7.5272,7.4808,7.4518,7.4518,7.3792,7.3385,7.3589,7.2485,7.1731,7.1673,7.1295,7.0947,7.0744,7.0337,7.0018,6.9786,6.9379,6.906,6.8828,6.8828,6.8828,6.8828,6.8828,6.8828,6.8828,6.8828,6.8828,6.8828,6.8828,6.8944,6.9147,6.8915,6.8944,6.9147,6.8915,6.8828,6.8828,6.8828,6.8973,6.9263,0.0,0.0,0.0,3.9697,0.0,4.2404,4.2744,4.3937,4.5338,4.6645,0.0,0.0,0.0,0.0,4.9349,5.0859,5.1381,5.1991,5.2833,5.2891,5.3181,5.382,5.3849,5.3849,5.3849,5.3849,5.3965,5.4168,5.5416,5.8668,6.3777,6.6128,6.9495,7.3472,7.0686,7.0395,7.1673,6.6302,6.3457,6.2296,5.9887,5.9335,5.9858,5.9219,5.8842,5.8552,5.7884,5.6839,5.5736,5.5736,5.5591,5.5416,0.0,0.0,0.0,0.0,0.0,0.0,5.5562,0.0,0.0,0.0,6.337,6.4909,6.8363,7.0279,7.1557,7.2195,7.2979,7.356,7.356,7.4082,7.4663,7.5098,7.5011,7.4634,7.3966,7.3676,7.3472,7.3269,7.2485,7.2166,7.2602,7.1469,7.0802,7.1005,7.0657,7.0308,7.0105,6.9699,6.9466,6.9466,6.906,6.8828,6.8828,6.8828,6.8828,6.8828,6.8828,6.8828,6.8828,6.8828,6.8828,6.8828,6.8828,6.8944,6.9118,6.8915,6.8944,6.9118,6.8915,6.8828,6.8828,6.8828,6.9157,6.9758,3.9697,3.9697,3.9697,3.9722,4.0593,4.1594,4.2652,4.2846,4.3835,4.6397,0.0,0.0,0.0,0.0,0.0,5.1527,5.173,5.2252,5.3442,5.35,5.382,5.4487,5.4517,5.4517,5.4546,5.4546,5.4226,5.3617,5.6055,5.9219,6.3051,6.6215,7.0366,7.4953,6.9408,6.9699,7.4169,7.2137,7.0308,6.8334,6.3835,6.1745,6.1542,6.3283,6.2093,5.9742,6.1483,5.9771,5.6665,5.6607,5.6171,0.0,0.0,0.0,0.0,0.0,0.0,0.0,0.0,0.0,0.0,0.0,5.9132,5.9916,6.6186,6.7173,6.7318,6.9263,7.0686,7.1586,7.1644,7.115,7.1528,7.3995,7.3908,7.3298,7.266,7.2021,7.1411,7.0802,7.0686,7.0686,7.0715,7.0686,7.0424,6.9815,6.9757,6.9466,6.8857,6.8828,6.8828,6.8828,6.8828,6.8828,6.8828,6.8828,6.8828,6.8828,6.8828,6.8828,6.8828,6.8828,6.8828,6.8828,6.8828,6.9176,6.9699,6.9089,6.9176,6.9699,6.906,6.8828,6.8828,6.8828,6.9884,7.119,3.9697,3.9697,3.9823,4.0224,4.1132,4.2054,4.278,4.4216,4.5157,0.0,0.0,0.0,4.7964,5.0925,5.3123,5.3675,5.411,5.411,5.3559,5.35,5.382,5.4487,5.4517,5.472,5.5155,5.5155,5.53,5.562,5.6316,5.7913,6.038,6.2209,6.4793,6.7899,6.816,6.8305,6.8044,6.3806,6.3835,6.6331,6.1861,6.189,6.4444,6.2645,6.2877,6.398,6.3109,6.2732,6.247,6.1542,6.0787,5.9916,0.0,0.0,0.0,0.0,0.0,0.0,5.4226,0.0,0.0,0.0,0.0,0.0,6.0438,6.2616,6.4677,6.6593,6.8015,6.935,7.0744,7.0831,7.0947,7.1644,7.1644,7.1469,7.1266,7.1092,7.0918,7.0744,7.0308,7.0221,7.0686,6.9902,6.9466,6.9757,6.935,6.9002,6.8828,6.8828,6.8828,6.8828,6.8828,6.8828,6.8828,6.8828,6.8828,6.8828,6.8828,6.8828,6.8828,6.8828,6.8828,6.8828,6.8828,6.8915,6.906,6.8886,6.8944,6.906,6.8886,6.8828,6.8828,6.8828,6.9234,6.998,3.9697,3.9873,4.0199,4.0752,4.194,4.3014,4.3491,4.4467,4.541,0.0,0.0,0.0,4.9374,5.3238,5.5474,5.4923,5.4981,5.472,5.3994,5.3936,5.4226,5.4865,5.5155,5.5474,5.5823,5.5823,5.5881,5.5997,5.6258,5.6984,5.8116,5.9684,6.1338,6.3051,6.4299,6.4822,6.4444,5.9829,6.07,6.5025,6.3486,6.4444,6.6651,6.5867,6.6389,6.7463,6.6883,6.6622,6.6389,6.5112,6.3516,0.0,0.0,0.0,0.0,0.0,0.0,0.0,0.0,0.0,0.0,0.0,0.0,0.0,5.8319,5.9945,6.1571,6.3196,6.4793,6.6389,6.8015,6.8334,6.8596,6.9408,6.9525,6.9728,7.025,7.0308,7.0221,6.996,6.9612,6.9525,6.9902,6.9263,6.8973,6.935,6.9031,6.8828,6.8828,6.8828,6.8828,6.8828,6.8828,6.8828,6.8828,6.8567,6.8567,6.8828,6.8567,6.8567,6.8828,6.8828,6.8828,6.8828,6.8828,6.8828,6.8828,6.8828,6.8828,6.8828,6.8828,6.8828,6.8828,6.8828,6.934,7.0065,0.0,4.0224,4.0852,4.1526,4.2911,4.413,4.4775,4.4576,4.5391,0.0,4.7109,4.7725,5.2545,5.5847,5.7303,5.6258,5.5416,5.4865,5.4749,5.4662,5.4894,5.5503,5.6084,5.6432,5.652,5.652,5.6229,5.562,5.6229,5.652,5.6549,5.8261,5.9364,5.9858,5.9393,6.0409,6.2238,5.9161,6.0177,6.4154,6.6651,6.8015,6.877,7.1092,7.1411,7.0744,7.1731,7.1063,6.9437,6.7841,6.517,0.0,0.0,0.0,0.0,0.0,5.6026,0.0,0.0,0.0,0.0,0.0,5.6374,0.0,5.8174,5.8464,5.8523,5.9742,6.1425,6.3109,6.4532,6.4822,6.5431,6.7086,6.758,6.8218,6.9495,6.967,6.9466,6.8886,6.8828,6.8828,6.8828,6.8828,6.8828,6.8828,6.8828,6.8828,6.8828,6.8828,6.8828,6.8828,6.8828,6.8828,6.8828,6.8189,6.8189,6.8828,6.8189,6.8218,6.8828,6.8828,6.8828,6.8828,6.8828,6.8828,6.8828,6.8828,6.8828,6.8828,6.8828,6.8828,6.8828,6.8828,6.965,7.0783,4.035,4.0802,4.1727,4.3664,4.4242,4.5079,4.698,4.759,4.805,4.8737,5.1432,5.5419,6.0991,6.0928,6.0526,6.0758,5.8813,5.7129,5.6113,5.5533,5.5533,5.62,5.6345,5.6636,5.71,5.7129,5.7071,5.6926,5.7071,5.7129,5.7129,5.7507,5.7768,5.7884,5.8319,5.8464,5.8552,6.038,6.1977,6.3457,6.5489,6.8799,7.2602,7.3618,7.4808,7.5824,7.504,7.4837,7.4459,7.1092,6.7841,6.4619,0.0,0.0,0.0,5.7477,0.0,0.0,0.0,0.0,0.0,0.0,0.0,0.0,5.5649,5.652,5.771,5.8523,5.9393,6.0729,6.3051,6.3893,6.4183,6.4038,6.5751,6.7522,6.8828,6.9002,6.8973,6.8828,6.8828,6.8828,6.8828,6.8828,6.8828,6.8828,6.8828,6.8828,6.8828,6.8828,6.8828,6.8828,6.8828,6.8828,6.8828,6.8189,6.8189,6.8828,6.8189,6.8218,6.8828,6.8828,6.8828,6.8828,6.8828,6.8828,6.8828,6.8828,6.8828,6.8828,6.8828,6.8828,6.8828,6.8828,6.9357,7.0223,4.0978,4.158,4.276,4.4719,4.5723,4.6828,4.8485,4.947,5.0333,5.1241,5.5617,5.9402,6.1239,6.1968,6.2005,6.122,5.9393,5.7768,5.649,5.6084,5.6055,5.6403,5.6694,5.7303,5.829,5.7652,5.7623,5.829,5.7623,5.7303,5.7303,5.7303,5.7303,5.7303,5.7652,5.7623,5.7419,5.9016,6.0467,6.2064,6.6883,7.0918,7.4256,7.5882,7.7246,7.8233,7.7275,7.6724,7.5766,7.1295,6.8915,0.0,6.2209,6.0932,6.0874,0.0,5.8319,5.771,0.0,0.0,0.0,5.6781,0.0,0.0,0.0,5.5939,5.6461,5.6781,5.7129,5.7942,5.9858,6.0729,6.1396,6.2035,6.3457,6.4938,6.6244,6.7551,6.8363,6.8363,6.8073,6.7841,6.7841,6.7841,6.7986,6.8334,6.8654,6.8683,6.8363,6.8363,6.8363,6.8363,6.8044,6.816,6.8828,6.7551,6.7551,6.8828,6.7841,6.7899,6.8828,6.8828,6.8828,6.8828,6.8828,6.8828,6.8828,6.8828,6.8828,6.8828,6.8828,6.8828,6.8828,6.903,6.9404,7.0024,4.163,4.2308,4.3539,4.5321,4.6903,4.836,4.9715,5.0795,5.2219,5.4478,5.8785,6.128,6.028,6.216,6.2906,6.1394,5.9648,5.8321,5.7427,5.6989,5.6723,5.6578,5.7042,5.7826,5.89,5.7855,5.7826,5.89,5.7826,5.7303,5.7303,5.7303,5.7303,5.7303,5.7303,5.7448,5.7681,5.7826,5.9335,6.2267,6.8973,7.2311,7.3647,7.6956,7.8436,7.8756,7.8756,7.7943,7.6114,7.1469,7.0018,6.9118,6.3167,6.2296,0.0,0.0,0.0,0.0,0.0,0.0,0.0,0.0,0.0,5.7303,0.0,0.0,0.0,5.5649,0.0,0.0,0.0,0.0,0.0,6.0061,0.0,0.0,0.0,6.5228,0.0,6.7115,6.6564,6.6244,6.6506,6.6418,6.6709,6.7638,6.7928,6.7957,6.7696,6.7812,6.787,6.787,6.7347,6.7638,6.8828,6.7028,6.7028,6.8828,6.7638,6.7696,6.8828,6.8828,6.8828,6.8828,6.8828,6.8828,6.8828,6.8828,6.8828,6.8828,6.8828,6.8828,6.8963,6.9203,6.9604,7.0097,4.2313,4.2559,4.3664,4.5824,4.7154,4.8636,5.077,5.1624,5.3427,5.7442,5.9417,6.1602,6.4814,6.4179,6.3943,6.4972,6.1925,6.0183,6.0698,5.9085,5.7826,5.7216,5.7274,5.7361,5.7536,5.739,5.739,5.7536,5.739,5.7303,5.7303,5.7303,5.7303,5.7303,5.7303,5.7971,5.9103,5.9626,6.2645,6.7289,7.0424,7.0453,6.9292,7.5243,7.7217,7.7072,7.9278,7.9278,7.774,0.0,7.2776,7.0715,0.0,6.5054,6.4502,6.3167,0.0,0.0,0.0,0.0,0.0,0.0,6.0322,0.0,0.0,0.0,5.7652,5.652,0.0,0.0,0.0,0.0,0.0,0.0,0.0,0.0,5.9974,6.1513,6.3167,6.4328,6.3893,6.398,6.5083,6.4677,6.5083,6.6854,6.6012,6.5867,6.6941,6.7551,6.787,6.787,6.7812,6.8102,6.8828,6.7463,6.7463,6.8828,6.8102,6.8131,6.8828,6.8828,6.8828,6.8828,6.8828,6.8828,6.8828,6.8828,6.8828,6.8828,6.8828,6.8963,6.927,6.927,6.9737,7.048,4.2766,4.3338,4.4443,4.6024,4.7205,4.8661,5.0946,5.3658,5.6312,5.8723,6.0584,6.2664,6.5156,6.5085,6.5149,6.5898,6.4434,6.3029,6.1879,6.0252,5.9277,5.8987,5.7913,5.8,5.9539,5.8087,5.7681,5.8464,5.7681,5.7303,5.7303,5.7303,5.7507,5.7884,5.7884,5.8813,6.0409,6.0671,6.2238,6.4764,6.7725,6.8044,6.7667,7.594,7.893,7.8843,7.9917,7.9481,7.7943,7.4982,7.3211,0.0,0.0,0.0,0.0,0.0,0.0,0.0,0.0,0.0,0.0,0.0,0.0,0.0,5.8029,0.0,5.7042,0.0,0.0,0.0,0.0,0.0,0.0,0.0,5.8058,0.0,0.0,0.0,6.0206,6.2616,0.0,6.2209,6.2732,6.2877,6.3254,6.4038,6.4648,6.5054,6.5228,6.6186,6.6912,6.7289,6.6941,6.7231,6.8276,6.7347,6.7347,6.8276,6.8015,6.8218,6.8828,6.8828,6.8828,6.8828,6.8828,6.8828,6.8828,6.8828,6.8895,6.9068,6.9068,6.9136,6.9337,6.9803,7.0134,7.0581,4.3438,0.0,4.497,4.6125,4.7205,4.8736,5.1147,5.4235,5.6972,5.8805,6.0337,6.2194,6.4823,6.5501,6.6178,6.7143,6.6728,6.555,6.3536,6.1736,6.0681,6.0496,5.8958,5.89,6.0642,5.8813,5.8145,5.8755,5.7768,5.7565,5.8087,5.7565,5.7855,5.8842,5.919,6.0322,6.2035,6.2906,6.4241,6.5983,6.8305,6.9495,7.0541,7.6666,7.954,8.0265,8.0091,7.9336,7.7972,7.5098,7.3676,7.2718,7.0366,6.9176,6.8509,0.0,0.0,0.0,6.4473,0.0,0.0,0.0,0.0,0.0,0.0,0.0,0.0,0.0,0.0,0.0,0.0,0.0,0.0,5.7303,0.0,5.7565,0.0,5.7245,0.0,0.0,0.0,0.0,6.0671,6.0903,6.128,6.1803,6.2819,6.3516,6.3777,6.4822,6.5867,6.6854,6.6418,6.6825,6.8131,6.7492,6.7492,6.8131,6.8131,6.8392,6.8828,6.8828,6.8828,6.8828,6.8828,6.8828,6.8828,6.8895,6.9068,6.9337,6.9537,6.9604,6.967,7.02,7.0462,7.0683,4.4568,4.4593,4.497,4.6125,4.7205,4.8837,5.1649,5.2201,5.3658,5.7449,5.7524,5.9257,6.4714,6.5585,6.6887,6.9887,6.8699,6.744,6.6872,6.3981,6.1917,6.122,6.0496,5.9858,0.0,5.9277,5.861,5.7361,5.7332,5.8261,6.0061,5.8174,5.8319,6.0177,6.1425,6.2703,6.4091,6.726,7.1092,7.5098,7.5185,7.7072,7.954,7.6724,7.7595,8.0207,7.9569,7.893,7.8117,7.6114,7.5011,7.4111,7.2195,7.115,0.0,0.0,0.0,0.0,0.0,0.0,0.0,6.3051,0.0,0.0,0.0,0.0,5.9742,0.0,0.0,0.0,0.0,0.0,0.0,5.7507,0.0,0.0,0.0,0.0,0.0,0.0,0.0,0.0,0.0,5.8784,5.919,6.1077,6.0148,6.0555,6.2993,6.3748,6.4967,6.6825,6.6854,6.7463,6.877,6.816,6.816,6.8799,6.8799,6.8799,6.8828,6.8828,6.8828,6.8828,6.8828,6.8828,6.8828,6.9136,6.927,6.9337,7.0068,7.0397,7.0397,7.0397,7.0593,7.1098,4.614,4.6215,4.6175,4.5824,4.6677,4.846,5.1624,5.303,5.5666,6.104,6.2169,6.4756,7.0681,7.2154,7.3159,7.4547,7.3822,7.2693,7.1305,6.7929,6.6367,6.7455,6.4038,6.2616,0.0,0.0,0.0,5.861,5.7739,5.8087,5.9568,5.8029,5.8348,6.0235,6.1106,6.2906,6.5396,6.8276,7.0831,7.3124,7.4808,7.7682,8.073,7.9249,7.9365,8.0207,7.954,7.8901,7.8233,7.713,7.5766,7.4488,7.4285,7.2892,7.1353,7.1324,7.0744,6.9989,6.9554,6.9583,6.8944,6.5489,6.4009,6.2645,0.0,0.0,0.0,0.0,0.0,0.0,0.0,0.0,0.0,0.0,0.0,0.0,0.0,0.0,0.0,0.0,0.0,0.0,0.0,0.0,0.0,0.0,5.9045,5.9684,6.0526,6.2383,6.3893,6.4967,6.5809,6.668,6.7522,6.7754,6.7986,6.8218,6.8625,6.8828,6.8828,6.8828,6.8828,6.8828,6.8828,6.8828,6.8828,6.9136,6.947,6.9737,7.02,7.0528,7.0694,7.0694,7.1123,7.1757,4.7431,4.7405,4.7179,4.6476,4.7431,4.9088,5.1448,5.4386,5.8102,6.3048,6.5484,6.8949,7.4674,7.6169,7.7177,7.8261,7.7487,7.596,7.3785,7.1442,7.0315,7.0663,6.7986,6.6622,0.0,0.0,0.0,0.0,0.0,5.9916,6.0932,5.9161,5.9248,6.0932,6.2267,6.4009,6.6215,7.0366,7.2892,0.0,0.0,7.8872,8.0846,8.0439,8.0294,8.0178,7.9307,7.8582,7.7972,7.7566,7.6433,7.5243,7.5446,7.4198,7.266,7.2631,7.205,7.1353,7.1121,7.1063,7.0395,6.7638,6.6186,6.4677,6.1861,0.0,6.2558,0.0,0.0,0.0,0.0,0.0,0.0,0.0,0.0,0.0,0.0,5.6984,0.0,0.0,0.0,0.0,0.0,0.0,0.0,0.0,0.0,0.0,0.0,6.128,6.2906,6.3946,6.5222,6.636,6.7231,6.7667,6.7986,6.8218,6.8625,6.8828,6.8828,6.8828,6.8828,6.8828,6.8828,6.8828,6.8828,6.9337,6.967,6.9936,7.0397,7.0724,7.0889,7.0889,7.1308,7.1996,4.8159,4.7958,4.7958,4.7958,4.9238,5.0519,5.1222,5.5942,6.0537,6.355,6.7317,7.1636,7.6657,7.7662,7.8842,8.0976,7.9645,7.7383,7.4554,7.4536,7.3564,0.0,7.2198,7.1619,6.9292,0.0,0.0,0.0,0.0,6.3399,6.3917,6.1425,6.0874,6.2122,6.4764,6.5925,6.6389,7.3385,7.7159,7.8611,8.041,8.0817,8.0323,8.0265,8.0265,8.0091,7.8872,7.803,7.7507,7.7449,7.7043,7.6404,7.5795,7.5127,7.4314,7.3124,7.2747,7.2573,7.1963,7.1789,7.1324,6.9437,6.845,6.7115,6.398,6.4706,6.5489,0.0,0.0,0.0,0.0,0.0,0.0,0.0,0.0,0.0,0.0,0.0,0.0,0.0,0.0,0.0,0.0,0.0,0.0,0.0,0.0,0.0,0.0,6.0438,6.1977,6.3772,6.5106,6.6476,6.7812,6.7841,6.816,6.8828,6.8828,6.8828,6.8828,6.8828,6.8828,6.8828,6.8828,6.8828,6.8895,6.9604,6.9936,7.0002,7.0658,7.0889,7.0889,7.0949,7.1338,7.1846,4.8611,4.856,4.856,4.856,4.856,4.9314,5.1548,5.5892,6.0964,6.6614,7.1083,7.5804,8.1202,8.193,8.2231,8.2809,8.1704,8.0319,7.8875,7.711,0.0,7.8306,7.5933,7.4772,7.514,7.1324,0.0,6.7086,0.0,0.0,6.3946,6.1919,6.0845,6.0845,0.0,6.5925,6.6331,7.2427,7.6579,7.9162,8.0149,8.0701,8.0875,7.9917,7.9569,7.9511,7.9191,7.8959,7.8727,7.8291,7.7711,7.713,7.6985,7.6143,7.5185,7.4866,7.4401,7.3995,7.3821,7.3443,7.2776,7.1295,6.9757,6.8102,6.6331,6.668,6.697,6.5519,0.0,0.0,0.0,0.0,0.0,0.0,0.0,0.0,0.0,0.0,0.0,5.7071,0.0,0.0,0.0,0.0,0.0,0.0,0.0,0.0,5.7797,5.948,6.0903,6.189,6.3603,6.5373,6.7115,6.7144,6.7696,6.8828,6.8828,6.8828,6.8828,6.8828,6.8828,6.8828,6.9068,6.9136,6.9203,7.0002,7.0265,7.0331,7.0724,7.0889,7.0949,7.1457,7.1427,7.1308,4.9188,4.9715,5.0067,4.959,5.1046,5.2879,5.4712,5.7725,6.1918,6.7844,7.269,7.6883,8.0248,8.2533,8.3864,8.3864,8.2608,8.1229,7.9996,7.9229,0.0,8.0917,7.9521,7.8746,7.9026,7.4866,0.0,6.9641,0.0,0.0,6.4822,6.2354,0.0,0.0,0.0,6.5519,6.5925,7.2253,7.6637,7.9307,7.9423,7.983,0.0,7.9278,7.8901,7.8901,7.8901,7.8727,7.8494,7.8727,7.8175,7.7391,7.7391,7.6724,7.594,7.594,7.565,7.5359,7.5359,7.4924,7.4198,7.3182,7.1905,7.0512,6.8915,6.8625,6.8421,6.7405,6.7609,6.7347,6.5193,6.3951,0.0,0.0,0.0,0.0,0.0,0.0,0.0,0.0,5.7565,0.0,0.0,0.0,0.0,0.0,0.0,0.0,5.7332,5.89,6.0235,6.1164,6.3312,6.5228,6.6854,6.7434,6.8102,6.8828,6.8828,6.8828,6.8828,6.8828,6.8828,6.8828,6.9136,6.927,6.9337,7.0134,7.0397,7.0462,7.0789,7.0889,7.0949,7.1308,7.1218,7.1009,4.969,5.1021,5.185,5.072,5.4612,5.8278,5.9408,6.124,6.4103,6.8673,7.3619,7.6908,7.7461,8.1403,8.3989,8.3989,8.2658,8.1125,7.9405,8.0597,8.1366,8.1351,8.2279,8.248,8.1775,7.8349,7.4779,0.0,0.0,0.0,6.5373,6.2529,0.0,0.0,0.0,0.0,0.0,7.2602,7.6724,7.8785,7.8524,7.8756,7.922,7.864,7.8349,7.8291,7.8378,7.803,7.7711,7.8814,7.8378,7.7391,7.7391,7.6985,7.6538,7.6538,7.6538,7.6538,7.6538,7.5998,7.5359,7.4692,7.4053,7.3124,7.1266,7.0424,6.9815,6.9089,6.8044,6.697,6.5983,6.3574,0.0,0.0,0.0,0.0,0.0,0.0,0.0,0.0,0.0,0.0,5.739,5.7913,0.0,5.7361,5.7855,5.7913,5.7332,5.8493,5.9742,6.1019,6.337,6.5344,6.6883,6.8015,6.8712,6.8944,6.8857,6.8828,6.8828,6.8828,6.8895,6.8895,6.927,6.947,6.947,7.02,7.0462,7.0528,7.0789,7.0889,7.0889,7.0889,7.0889,7.0889,4.9615,5.1322,5.2427,5.1322,5.4888,5.9307,6.35,6.7116,7.0154,7.2414,7.7059,8.0373,8.0876,8.1729,8.2257,8.2257,8.198,8.1282,8.0109,0.0,0.0,8.3112,8.2824,8.3265,8.4362,7.9685,7.5882,0.0,0.0,0.0,6.2732,6.1687,0.0,0.0,0.0,0.0,6.9205,7.3095,0.0,7.6317,7.7798,7.8756,7.922,7.864,7.8059,7.7653,7.8204,7.832,7.8262,7.8494,7.8059,7.7391,7.7391,7.6985,7.6538,7.6538,7.6538,7.6538,7.6538,7.5998,7.5359,7.4692,7.4053,7.324,7.1818,7.1411,7.1005,6.9844,6.9437,6.8421,6.5664,6.2209,5.9248,0.0,0.0,0.0,0.0,0.0,0.0,0.0,0.0,5.8639,0.0,0.0,0.0,5.7361,5.7419,5.7419,5.7303,5.8058,5.9074,6.0322,6.1832,6.398,6.6854,6.7115,6.8015,6.9612,6.906,6.8828,6.8828,6.9098,6.9203,6.927,6.9936,7.02,7.0265,7.0658,7.0854,7.0854,7.0919,7.0889,7.0889,7.0889,7.0889,7.0889,5.2553,5.3457,5.4411,5.5039,5.8805,6.3023,6.6865,7.1234,7.387,7.3242,7.5753,7.7687,7.7938,8.0022,8.1403,8.1403,8.1152,8.075,8.0248,7.9947,8.0651,8.2455,8.2993,8.3446,8.402,8.0339,7.6985,7.4082,0.0,6.4328,6.3051,6.0758,0.0,0.0,0.0,6.5635,0.0,0.0,7.3821,7.5127,7.6753,7.7769,7.8291,7.8001,7.7478,7.7014,7.7653,7.7682,7.7507,7.8175,7.7943,7.7391,7.7391,7.6985,7.6538,7.6538,7.6538,7.6538,7.6538,7.5737,7.4924,7.4576,7.3792,7.2921,7.2311,7.1905,7.1411,7.0453,7.0018,6.8886,6.6012,6.2877,6.0526,5.9887,0.0,0.0,0.0,0.0,0.0,0.0,0.0,0.0,0.0,0.0,0.0,0.0,0.0,5.7826,5.7826,5.7797,5.8523,6.0148,6.1774,6.3835,6.636,6.7376,6.8363,6.9292,6.8973,6.8828,6.8828,6.9136,6.927,6.9337,7.0068,7.0397,7.0462,7.0789,7.0889,7.0889,7.0889,7.0889,7.0889,7.0889,7.0889,7.0889,5.5968,5.647,5.7424,5.9433,6.3425,6.7116,6.9451,7.392,7.6306,7.4272,7.4849,7.5477,7.5477,7.8591,8.0675,8.0675,8.0273,7.9997,7.9871,7.9444,7.9963,8.1727,8.2868,8.3619,8.3924,8.1048,7.7798,0.0,0.0,6.459,6.2964,0.0,0.0,0.0,0.0,6.4619,6.8363,7.0686,7.2689,7.4459,7.5882,7.684,7.7391,7.7246,7.6898,7.6521,7.7014,7.6869,7.6608,7.7653,7.7653,7.7217,7.7217,7.6869,7.6538,7.6538,7.6538,7.6538,7.6538,7.5708,7.4895,7.475,7.385,7.2979,7.2863,7.2224,7.1498,7.086,6.9989,6.8683,6.636,6.4154,6.2558,6.2151,6.1367,0.0,0.0,0.0,0.0,0.0,0.0,0.0,5.7419,5.8029,5.8464,5.8319,5.8435,5.8406,5.8116,5.7855,5.8435,5.9974,6.1745,6.3748,6.5896,6.758,6.8625,6.9031,6.8886,6.8828,6.8828,6.9203,6.9404,6.947,7.02,7.0528,7.0528,7.0759,7.0889,7.0889,7.0889,7.0889,7.0889,7.0889,7.0889,7.0889,5.8202,6.001,6.1768,6.3023,6.6865,7.0054,7.0807,7.4749,7.7712,7.7963,7.854,7.8917,7.8917,7.9294,7.9545,7.9545,7.9495,7.9243,7.8716,7.8641,7.9849,8.2523,8.2818,8.4041,8.6571,8.2419,7.8059,0.0,0.0,6.4328,5.9742,0.0,0.0,6.0206,6.2732,6.4735,6.6447,7.0105,7.2456,7.385,7.5708,7.684,7.7333,7.6753,7.6596,7.6538,7.6521,7.6596,7.6567,7.6683,7.6683,7.655,7.655,7.6596,7.6538,7.6538,7.6538,7.6538,7.6538,7.645,7.6143,7.5563,7.4866,7.4198,7.3647,7.2573,7.1498,7.086,6.9292,6.7609,6.6186,6.5257,6.4125,6.2383,6.2499,0.0,0.0,0.0,6.1861,0.0,0.0,0.0,0.0,5.8464,5.8958,5.8348,5.8871,5.8668,5.7448,5.8493,5.919,5.9393,6.0671,6.2848,6.5896,6.668,6.7957,6.967,6.9089,6.8828,6.8828,6.9537,6.9869,6.9869,7.0593,7.0854,7.0854,7.0919,7.0889,7.0889,7.0889,7.0889,7.0889,7.0889,7.0889,7.0889,6.3525,6.3827,6.4856,6.7643,6.9049,7.0732,7.3619,7.613,7.7888,7.844,7.9018,7.9394,7.9394,7.9394,7.9394,7.9394,7.9394,7.9294,7.9068,7.9043,7.9202,7.9695,8.1989,8.3332,8.3394,8.2101,7.9423,0.0,0.0,0.0,6.2674,6.1164,6.0758,6.1396,6.2848,6.4822,6.7289,7.0366,7.2427,7.3792,7.5708,7.6608,7.684,7.6985,7.6782,7.6596,7.6898,7.6782,7.6538,7.6538,7.6538,7.6538,7.6538,7.6538,7.6538,7.6538,7.6538,7.6538,7.6538,7.6172,7.5824,7.5563,7.4721,7.3908,7.3676,7.2892,7.1963,7.0918,6.9495,6.8276,6.7754,6.6825,6.6012,6.5635,6.5141,0.0,0.0,0.0,0.0,0.0,0.0,0.0,0.0,5.7797,5.8319,5.8871,5.8406,5.8058,5.7913,5.8406,5.89,5.9306,6.0874,6.2906,6.5344,6.636,6.7667,6.9205,6.8944,6.8828,6.8828,6.9537,7.0134,7.0528,7.0759,7.0889,7.0889,7.0889,7.0889,7.0889,7.0889,7.0889,7.0889,7.0889,7.0889,7.0889,6.8196,6.7769,6.8371,7.1937,7.1912,7.2489,7.5804,7.7084,7.7888,7.844,7.9018,7.9394,7.9394,7.9394,7.9394,7.9394,7.9394,7.9319,7.9143,7.8992,7.8745,7.8363,8.1456,0.0,8.1927,8.251,8.0962,7.7304,7.3182,0.0,6.5489,6.2935,6.2267,6.3254,6.4125,6.6186,6.9147,7.1324,7.2979,7.4314,7.5853,7.6538,7.6596,7.6956,7.684,7.6521,7.6956,7.684,7.6538,7.6538,7.6538,7.6538,7.6538,7.6538,7.6538,7.6538,7.6538,7.6538,7.6538,7.6114,7.5795,7.5795,7.4837,7.3879,7.3879,7.3066,7.1963,7.0715,6.9728,6.906,6.8857,6.8073,6.7551,6.7841,6.726,0.0,0.0,6.4648,0.0,0.0,5.9858,5.8929,5.771,5.7768,5.8203,5.8958,5.8145,5.7884,5.8552,5.8755,5.8987,5.9306,6.1106,6.3022,6.4967,6.6244,6.7588,6.8963,6.8828,6.8895,6.9136,6.9737,7.0397,7.0889,7.0889,7.0889,7.0889,7.0889,7.0889,7.0889,7.0889,7.0889,7.0889,7.0889,7.0889,7.0889,7.1309,7.1836,7.2715,7.5502,7.5979,7.618,7.6783,7.7335,7.7888,7.844,7.9018,7.9394,7.9394,7.9394,7.9394,7.9394,7.9394,7.9143,7.8566,7.8013,7.8338,7.9788,8.1231,8.2649,8.3956,8.4073,8.25,7.9278,0.0,7.1847,6.6796,6.427,6.4067,6.5954,6.7231,6.9234,7.1702,7.3037,7.4314,7.5534,7.6201,7.6538,7.6538,7.6538,7.6538,7.6538,7.6538,7.6538,7.6538,7.6538,7.6538,7.6538,7.6538,7.6538,7.6538,7.6538,7.6538,7.6538,7.6538,7.6462,7.6538,7.6538,7.5475,7.4488,7.4488,7.3037,7.1324,7.0047,6.9786,6.9583,6.8944,6.8828,6.8596,6.7986,6.8392,0.0,0.0,6.6447,0.0,6.1629,6.1687,6.1048,5.8523,5.89,5.9016,5.8348,5.829,5.8581,5.9248,5.9858,5.9916,5.9335,6.1106,6.3022,6.4967,6.6244,6.772,6.927,6.8963,6.9136,6.9869,7.0265,7.0593,7.0889,7.0889,7.0889,7.0889,7.0889,7.0889,7.0889,7.0889,7.0889,7.0889,7.0889,7.0889,7.0889,7.3946,7.4473,7.5025,7.5904,7.6055,7.6105,7.6281,7.7109,7.7762,7.7938,7.844,7.8942,7.9344,7.9394,7.9394,7.9394,7.9394,7.9143,7.8566,7.8365,7.8141,7.7878,7.965,8.1231,8.2649,8.2662,8.2075,8.0585,7.7827,7.4082,6.9466,6.8683,6.8625,6.9234,7.0076,7.1644,7.3676,7.4547,7.5388,7.6172,7.6375,7.6538,7.6538,7.6538,7.6724,7.7043,7.6608,7.6724,7.7043,7.6608,7.6538,7.6538,7.6538,7.6538,7.6538,7.6538,7.6538,7.6538,7.6538,7.6538,7.6538,7.6538,7.5504,7.4547,7.4518,7.2689,7.0918,7.0512,6.9728,6.906,6.8857,6.8828,6.877,6.8567,6.8334,6.7667,6.6157,0.0,6.4009,0.0,6.0961,6.0322,5.9103,5.919,5.9568,6.0235,5.948,5.8871,5.8639,5.9626,6.0322,6.0584,6.2848,6.4561,6.5606,6.7174,6.8252,6.8963,6.9337,6.9803,7.0265,7.0331,7.0593,7.0889,7.0889,7.0889,7.0889,7.0889,7.0889,7.0889,7.0889,7.0889,7.0889,7.0889,7.0889,7.0889,7.5477,7.5829,7.6055,7.6055,7.6055,7.6055,7.6055,7.6808,7.7385,7.7385,7.7862,7.834,7.8716,7.8741,7.8842,7.9043,7.8867,7.8591,7.8239,7.8013,7.7989,7.8051,7.9042,8.0517,8.2685,8.2525,8.2426,8.2268,7.9017,7.5737,7.2515,7.2021,7.205,7.2544,7.295,7.3908,7.5272,7.5679,7.623,7.6782,7.655,7.6608,7.6782,7.655,7.6695,7.6985,7.6608,7.6724,7.6985,7.6608,7.6538,7.6538,7.6538,7.6538,7.6538,7.6538,7.6538,7.6538,7.6538,7.6538,7.6538,7.6538,7.5679,7.4779,7.4285,7.2747,7.1353,7.1121,7.025,6.9466,6.9234,6.9002,6.8828,6.8828,6.8276,6.7434,6.6128,0.0,6.3341,0.0,0.0,6.0671,6.0061,6.0438,6.0845,6.1164,6.0671,6.0061,5.9422,6.0148,6.0874,6.1513,6.3777,6.5402,6.6273,6.7545,6.8456,6.903,6.9737,7.02,7.0367,7.0528,7.0724,7.0889,7.0889,7.0889,7.0889,7.0889,7.0889,7.0889,7.0889,7.0889,7.0889,7.0889,7.0889,7.0889,7.6055,7.6055,7.6055,7.6055,7.6055,7.6055,7.6055,7.6532,7.6883,7.6883,7.731,7.7662,7.7687,7.7637,7.7812,7.8365,7.7963,7.7687,7.7637,7.7159,7.7728,7.9587,7.9136,8.0362,8.3746,8.319,8.3249,8.3894,7.9627,7.6898,7.5679,7.4488,7.4547,7.565,7.5679,7.5998,7.6521,7.6579,7.6927,7.742,7.6782,7.6869,7.7333,7.6695,7.6567,7.6521,7.6567,7.6567,7.6521,7.6538,7.6538,7.6538,7.6538,7.6538,7.6538,7.6538,7.6538,7.6538,7.6538,7.6538,7.6538,7.6538,7.5998,7.5185,7.3908,7.3095,7.2427,7.1789,7.115,7.0541,6.996,6.9321,6.8886,6.8886,6.8247,6.7318,6.6041,6.4735,6.3225,6.1425,6.1716,6.1861,6.1309,6.2383,6.2616,6.1483,6.1861,6.1948,6.1425,6.1425,6.1716,6.2267,6.4183,6.5751,6.6941,6.7675,6.8515,6.9404,7.0097,7.0456,7.0522,7.0908,7.1009,7.0979,7.0979,7.0949,7.0889,7.0889,7.0889,7.0889,7.0889,7.0889,7.0889,7.0889,7.0889,7.0889,7.6055,7.6055,7.6055,7.6055,7.6055,7.6055,7.6055,7.6532,7.6883,7.6883,7.6984,7.7235,7.7662,7.6959,7.6657,7.721,7.7536,7.7511,7.7109,7.6959,7.6981,7.702,7.6868,7.8605,8.2429,8.139,8.1191,8.1891,7.9859,7.8465,7.7711,7.742,7.7159,7.6985,7.7507,7.7507,7.7217,7.774,7.803,7.8117,7.7449,7.7275,7.7333,7.6695,7.6753,7.713,7.6637,7.6782,7.7101,7.6637,7.6538,7.6538,7.6538,7.6538,7.6538,7.6538,7.6538,7.6538,7.6538,7.6538,7.6538,7.6538,7.5998,7.5185,7.3908,7.3095,7.2427,7.1789,7.115,7.0686,7.0512,6.9989,6.9554,6.9554,6.7783,6.6128,6.5315,6.369,6.2209,6.1309,6.1716,6.2035,6.189,6.2616,6.3167,6.3341,6.3051,6.2993,6.3341,6.3835,6.4154,6.4299,6.6186,6.7347,6.7638,6.8877,6.9788,7.0528,7.0997,7.1272,7.1536,7.2139,7.2146,7.1637,7.1637,7.1368,7.0889,7.0889,7.0889,7.0889,7.0889,7.0889,7.0889,7.0889,7.0889,7.0889,7.6055,7.6055,7.6055,7.6055,7.6055,7.6055,7.6055,7.6306,7.6507,7.6507,7.6507,7.6607,7.6908,7.6406,7.618,7.6482,7.6783,7.6833,7.6532,7.6507,7.6851,7.7379,7.627,7.7524,8.1595,8.0428,8.0395,8.1659,8.0962,8.0149,7.9249,7.8959,7.8611,7.8262,7.8349,7.8204,7.7885,7.8262,7.8407,7.8349,7.7682,7.7217,7.6898,7.6259,7.6056,7.6027,7.5679,7.5998,7.6433,7.5795,7.5969,7.6479,7.6114,7.623,7.6538,7.6538,7.6538,7.6538,7.6538,7.6538,7.6538,7.6538,7.5766,7.4866,7.4169,7.3298,7.2515,7.2166,7.1586,7.1063,7.0773,7.0192,6.9495,6.8596,6.7028,6.5519,6.4299,6.2964,6.1977,6.1658,6.2412,6.3109,6.3399,6.427,6.4735,6.4502,6.4415,6.4415,6.4473,6.5473,6.5915,6.5431,6.716,6.8282,6.8573,6.9428,7.0134,7.0658,7.1146,7.1427,7.1457,7.2445,7.2535,7.1906,7.2206,7.1966,7.1368,7.1368,7.1188,7.0889,7.0889,7.1098,7.1308,7.1009,7.1098,7.1308,7.6055,7.6055,7.6055,7.6055,7.6055,7.6055,7.6055,7.6055,7.6055,7.6055,7.6055,7.6055,7.6055,7.6055,7.6055,7.6055,7.6055,7.6055,7.6055,7.6055,7.6792,7.8465,7.6822,7.7426,8.1107,8.0398,8.0806,8.2355,8.2152,8.1484,8.041,7.9743,7.9394,7.9278,7.8872,7.864,7.8553,7.864,7.864,7.8494,7.7827,7.7159,7.6521,7.5882,7.5301,7.4808,7.4808,7.5185,7.5563,7.4982,7.5534,7.6375,7.5824,7.6027,7.6538,7.6538,7.6538,7.6538,7.6538,7.6538,7.6538,7.6538,7.5621,7.475,7.4576,7.3676,7.2834,7.266,7.2195,7.1615,7.0976,7.0337,6.9321,6.7463,6.6389,6.5199,6.352,6.2648,6.2122,6.2299,6.3462,6.4508,6.5083,6.6251,6.6542,6.5489,6.5902,6.5961,6.5496,6.6902,6.7224,6.6374,6.7838,6.8943,6.947,6.9803,7.0163,7.0611,7.1176,7.1397,7.1398,7.2535,7.2684,7.2056,7.2654,7.2475,7.1727,7.1727,7.1398,7.0889,7.0889,7.1308,7.1816,7.1248,7.1487,7.1966,7.6055,7.6055,7.6055,7.6055,7.6055,7.6055,7.6055,7.6055,7.6055,7.6055,7.6055,7.6055,7.6055,7.6055,7.6055,7.6055,7.6055,7.6055,7.6055,7.6055,7.6252,7.6523,7.7737,7.9219,8.0988,8.2562,8.3228,8.3023,8.1891,8.1252,8.1049,8.0439,7.983,7.9307,7.9801,7.9685,7.9191,7.9772,7.9685,7.9104,7.8494,7.7856,7.7188,7.655,7.6259,7.6172,7.6172,7.623,7.6288,7.6201,7.6363,7.6433,7.6346,7.645,7.6538,7.6538,7.6538,7.6538,7.6538,7.6538,7.6538,7.6538,7.6317,7.5882,7.4808,7.4372,7.3908,7.2834,7.2544,7.2282,7.1644,7.1005,7.0134,6.8741,6.6622,6.4978,6.4356,6.3033,6.2419,6.3275,6.4506,6.5402,6.5722,6.6708,6.7356,6.7472,6.7262,6.737,6.7867,6.84,6.856,6.8471,6.9273,6.9818,7.0265,7.0331,7.0796,7.1661,7.1781,7.2379,7.3432,7.3642,7.3373,7.2774,7.2864,7.2206,7.1068,7.1068,7.1009,7.0889,7.0889,7.1308,7.1876,7.1757,7.2176,7.2744,7.6055,7.6055,7.6055,7.6055,7.6055,7.6055,7.6055,7.6055,7.6055,7.6055,7.6055,7.6055,7.6055,7.6055,7.6055,7.6055,7.6055,7.6055,7.6055,7.6055,7.6055,7.6055,7.6403,7.7493,7.9551,8.1598,8.2755,8.3197,8.2559,8.1891,8.1194,8.0904,8.0439,7.9859,8.0149,8.012,7.983,7.9772,7.9569,7.922,7.8262,7.7478,7.684,7.6201,7.5737,7.5359,7.504,7.5127,7.5359,7.504,7.5388,7.594,7.594,7.6172,7.6538,7.6538,7.6538,7.6375,7.6056,7.6201,7.6375,7.6027,7.5679,7.5272,7.4663,7.3995,7.3327,7.2747,7.2602,7.2427,7.1789,7.115,7.0192,6.8567,6.6578,6.4993,6.4096,6.3392,6.3185,6.395,6.5343,6.6439,6.6912,6.7683,6.8165,6.8136,6.8042,6.8115,6.8635,6.9057,6.9335,6.966,7.0052,7.0331,7.0658,7.0658,7.1087,7.1876,7.1876,7.2206,7.2834,7.3193,7.3013,7.2385,7.2744,7.2355,7.1427,7.1427,7.1218,7.0889,7.0889,7.1308,7.1876,7.1876,7.2325,7.2924,7.6055,7.6055,7.6055,7.6055,7.6055,7.6055,7.6055,7.6055,7.6055,7.6055,7.6055,7.6055,7.6055,7.6055,7.6055,7.6055,7.6055,7.6055,7.6055,7.6055,7.6004,7.5879,7.562,7.6688,7.9257,8.109,8.2477,8.34,8.311,8.25,8.1659,8.1194,8.0817,8.0497,8.0352,8.0294,8.0265,7.9743,7.9365,7.9017,7.803,7.7159,7.6404,7.5911,7.5417,7.4895,7.443,7.4576,7.4895,7.443,7.4924,7.5737,7.5737,7.6056,7.6538,7.6538,7.6346,7.6172,7.5824,7.5969,7.6172,7.5824,7.5243,7.475,7.475,7.3879,7.3066,7.3066,7.295,7.266,7.1992,7.1266,7.0105,6.8323,6.665,6.5295,6.4279,6.4041,6.4272,6.5157,6.6516,6.764,6.8282,6.8873,6.9065,6.8796,6.8804,6.9001,6.9263,6.9619,7.0022,7.0498,7.0528,7.0658,7.0889,7.1038,7.1457,7.2116,7.2116,7.2295,7.2595,7.2984,7.2864,7.2385,7.2924,7.2654,7.1876,7.1876,7.1487,7.0889,7.0889,7.1398,7.2116,7.2116,7.2654,7.3373,7.6055,7.6055,7.6055,7.6055,7.6055,7.6055,7.6055,7.6055,7.6055,7.6055,7.6055,7.6055,7.6055,7.6055,7.6055,7.6055,7.6055,7.6055,7.6055,7.6055,7.5829,7.5327,7.7599,7.9879,8.1904,8.3244,8.3985,8.401,8.2849,8.253,8.2994,8.1194,8.0643,8.1107,8.0556,8.0294,8.0294,8.0236,7.954,7.8465,7.8378,7.7566,7.6462,7.6479,7.6421,7.6392,7.6259,7.6288,7.6392,7.6259,7.6392,7.6479,7.6479,7.6433,7.6538,7.6538,7.6056,7.5708,7.623,7.5998,7.5708,7.6259,7.5911,7.5446,7.5446,7.4895,7.4372,7.4372,7.3937,7.3327,7.266,7.1557,7.0174,6.8656,6.6934,6.5892,6.5853,6.5295,6.5571,6.7442,6.8301,6.9008,6.9685,7.0104,7.017,6.981,7.0045,7.0242,7.0308,7.0634,7.0794,7.0824,7.0824,7.0919,7.0889,7.1517,7.2146,7.2834,7.2834,7.3462,7.4629,7.4091,7.3791,7.3762,7.3791,7.3073,7.1876,7.1876,7.1487,7.0889,7.0889,7.1697,7.2834,7.2834,7.3642,7.4719,7.6055,7.6055,7.6055,7.6055,7.6055,7.6055,7.6055,7.6055,7.6055,7.6055,7.6055,7.6055,7.6055,7.6055,7.6055,7.6055,7.6055,7.6055,7.6055,7.6055,7.5653,7.4774,7.6524,7.8227,7.9806,8.1461,8.2958,8.4097,8.3226,8.2733,8.2559,8.1397,8.0788,8.0614,8.041,8.0294,8.0236,7.9452,7.9075,7.8843,7.7682,7.713,7.7014,7.6608,7.6538,7.6538,7.6538,7.6201,7.5998,7.6782,7.6521,7.5998,7.6811,7.6782,7.6538,7.6538,7.5998,7.565,7.6288,7.5998,7.5563,7.5824,7.5679,7.5504,7.5504,7.4982,7.4518,7.4547,7.4343,7.3966,7.3356,7.2485,7.1411,7.001,6.8685,6.7601,6.7241,6.7123,6.7476,6.8389,6.9103,6.9619,6.9825,6.9972,7.0068,6.9936,7.02,7.0706,7.1291,7.184,7.2146,7.2146,7.2146,7.1936,7.1517,7.2176,7.2864,7.3522,7.3103,7.3402,7.424,7.3582,7.3283,7.3283,7.3283,7.2984,7.2535,7.2535,7.2116,7.1517,7.1517,7.1816,7.2325,7.2744,7.3492,7.433,7.5578,7.5829,7.6004,7.5829,7.5929,7.6055,7.6055,7.6055,7.6055,7.6055,7.6055,7.6055,7.6055,7.6055,7.6055,7.6055,7.6055,7.6055,7.6055,7.5879,7.5377,7.4448,7.6483,7.7881,7.842,8.1115,8.299,8.4097,8.3284,8.2762,8.2471,8.1426,8.0788,8.0556,8.0381,8.0294,8.0236,7.9365,7.9017,7.8901,7.7595,7.7072,7.7072,7.6637,7.6538,7.6567,7.6666,7.6491,7.623,7.7101,7.6811,7.623,7.6898,7.6811,7.6538,7.6538,7.5998,7.565,7.6288,7.5998,7.5563,7.5766,7.565,7.5563,7.5766,7.5301,7.4895,7.5098,7.4982,7.4634,7.4024,7.3211,7.2195,7.1057,6.9913,6.9038,6.87,6.8838,6.9234,6.9781,7.0356,7.0644,7.0476,7.0496,7.0407,7.02,7.0641,7.1255,7.2176,7.2654,7.2924,7.2924,7.3103,7.2984,7.2535,7.2984,7.3462,7.3881,7.3642,7.3762,7.418,7.3732,7.3522,7.3522,7.3522,7.3402,7.3223,7.3223,7.2834,7.2206,7.2206,7.2325,7.2565,7.3043,7.3642,7.427,7.4523,7.5301,7.5879,7.5327,7.5703,7.6055,7.6055,7.6055,7.6055,7.6055,7.6055,7.6055,7.6055,7.6055,7.6055,7.6055,7.6055,7.6055,7.6055,7.5552,7.5,7.4448,7.8036,7.9551,7.8447,8.2767,8.4736,8.4068,8.282,8.253,8.3139,8.1194,8.0614,8.1165,8.0556,8.0294,8.0294,8.0294,7.9569,7.8407,7.8407,7.7624,7.6538,7.6538,7.6538,7.655,7.7188,7.742,7.7391,7.742,7.742,7.7304,7.6666,7.6538,7.6538,7.6538,7.6027,7.5679,7.6288,7.5998,7.5679,7.6317,7.5998,7.5679,7.6317,7.5969,7.5708,7.6317,7.594,7.533,7.4692,7.3501,7.2266,7.1334,7.0399,6.9923,7.0234,7.0302,7.0672,7.1659,7.2155,7.2254,7.1966,7.1876,7.1607,7.0949,7.1517,7.2206,7.2894,7.2924,7.2924,7.2924,7.3552,7.3911,7.3911,7.3911,7.3911,7.3911,7.4569,7.4869,7.4869,7.4869,7.4869,7.4869,7.4869,7.451,7.3911,7.3911,7.3522,7.2924,7.2924,7.3313,7.3881,7.3881,7.43,7.4869,7.4448,7.5,7.5427,7.5276,7.5703,7.6055,7.6055,7.6055,7.6055,7.6055,7.6055,7.6055,7.6055,7.6055,7.6055,7.6055,7.6055,7.6055,7.6055,7.5552,7.5,7.4448,7.5144,7.6441,7.8332,7.9757,8.118,8.2762,8.2384,8.1833,8.1136,8.0556,8.041,8.0556,8.0381,8.0294,8.0236,7.9365,7.8756,7.832,7.742,7.6811,7.6596,7.6956,7.713,7.7275,7.8349,7.8175,7.7624,7.8959,7.8524,7.7362,7.7188,7.713,7.713,7.713,7.7333,7.7595,7.7769,7.7333,7.6782,7.6521,7.6317,7.623,7.6479,7.6317,7.623,7.6433,7.594,7.533,7.4692,7.3879,7.2892,7.1726,7.1487,7.1472,7.1375,7.1317,7.1718,7.2717,7.2557,7.2379,7.254,7.2179,7.1751,7.1308,7.2103,7.2894,7.3582,7.4031,7.43,7.43,7.448,7.4569,7.4569,7.4569,7.4569,7.4569,7.4779,7.4869,7.4869,7.4869,7.4869,7.4869,7.4869,7.4779,7.4569,7.4569,7.421,7.3612,7.3612,7.3732,7.3881,7.3881,7.43,7.4869,7.4096,7.4523,7.4975,7.5201,7.5502,7.5804,7.603,7.6055,7.6055,7.6055,7.6055,7.6055,7.6055,7.6055,7.6055,7.6055,7.6055,7.6055,7.6055,7.5552,7.5,7.4448,7.3895,7.5129,7.8332,7.9345,8.0951,8.2936,8.2442,8.1804,8.1049,8.0788,8.0527,8.0323,8.0556,8.0527,8.0236,7.9191,7.8611,7.832,7.7246,7.684,7.6869,7.7246,7.7566,7.7943,7.893,7.8814,7.8291,7.922,7.8436,7.7014,7.7014,7.7014,7.7014,7.7014,7.7304,7.7624,7.7624,7.7537,7.7304,7.6927,7.6637,7.6538,7.6538,7.6538,7.6538,7.6538,7.6143,7.5679,7.504,7.4634,7.4024,7.2979,7.3132,7.3181,7.2845,7.2965,7.33,7.3625,7.3504,7.3325,7.3269,7.2894,7.2618,7.238,7.2939,7.3582,7.424,7.4659,7.4869,7.4869,7.4869,7.4869,7.4869,7.4869,7.4869,7.4869,7.4869,7.4869,7.4869,7.4869,7.4869,7.4869,7.4869,7.4869,7.4869,7.4869,7.4629,7.43,7.43,7.43,7.43,7.43,7.454,7.4869,7.3519,7.3971,7.4523,7.5075,7.5201,7.5427,7.5979,7.6055,7.6055,7.6055,7.6055,7.6055,7.6055,7.6055,7.6055,7.6055,7.6055,7.6055,7.6055,7.5552,7.5025,7.4523,7.392,7.5129,7.8413,8.0668,8.254,8.3923,8.282,8.2239,8.2094,8.1543,8.0962,8.041,8.0933,8.0846,8.0265,7.954,7.893,7.8407,7.7624,7.7362,7.7391,7.7391,7.7827,7.8494,7.9075,7.9307,7.922,7.8611,7.7653,7.677,7.6666,7.6637,7.6637,7.6637,7.6637,7.6637,7.6637,7.7014,7.7391,7.7391,7.6927,7.6538,7.6521,7.6567,7.6538,7.6538,7.6479,7.6201,7.5621,7.5417,7.5156,7.4605,7.4766,7.4749,7.4382,7.4834,7.509,7.4496,7.4752,7.4719,7.4061,7.3941,7.3881,7.3881,7.3881,7.418,7.4839,7.4869,7.4869,7.4869,7.4869,7.4869,7.4869,7.4869,7.4869,7.4869,7.4869,7.4869,7.4869,7.4869,7.4869,7.4869,7.4869,7.4869,7.4869,7.4869,7.4869,7.4869,7.4869,7.4869,7.4869,7.4869,7.4869,7.4869,7.2916,7.3368,7.3946,7.4498,7.495,7.5427,7.5979,7.6055,7.6055,7.6055,7.6055,7.6055,7.6055,7.6055,7.6055,7.6055,7.6055,7.6055,7.6055,7.5552,7.5201,7.5075,7.4121,7.5335,7.9063,7.9128,8.0384,8.2617,8.2849,8.2442,8.1426,8.1804,8.163,8.0991,8.1136,8.0846,8.0236,7.9075,7.8785,7.8959,7.7333,7.6956,7.7391,7.7391,7.7827,7.8494,7.9075,7.9307,7.922,7.8611,7.8524,7.8611,7.8117,7.7972,7.7972,7.7972,7.7972,7.7972,7.7972,7.7711,7.7391,7.7391,7.6927,7.6579,7.7101,7.6811,7.6538,7.6538,7.6056,7.5679,7.5534,7.4692,7.414,7.4459,7.3964,7.4001,7.5239,7.5029,7.4998,7.5498,7.5369,7.5101,7.4719,7.421,7.3881,7.3881,7.3881,7.418,7.4839,7.4869,7.4869,7.4869,7.4869,7.4869,7.4869,7.4869,7.4869,7.4869,7.4869,7.4869,7.4869,7.4869,7.4869,7.4869,7.4869,7.4869,7.4869,7.4869,7.4869,7.4869,7.4869,7.4869,7.4869,7.4869,7.4869,7.4869,7.3142,7.3393,7.377,7.4322,7.4448,7.4724,7.5527,7.5653,7.5653,7.5653,7.5653,7.5653,7.5653,7.5653,7.5778,7.603,7.6055,7.6055,7.6055,7.5552,7.5126,7.4849,7.4928,7.6137,7.8819,7.9192,8.056,8.311,8.2849,8.2355,8.1659,8.1717,8.1194,8.0294,8.0614,8.041,7.9743,7.8814,7.8582,7.8756,7.7449,7.7101,7.7391,7.7391,7.7827,7.8494,7.9075,7.9307,7.922,7.8611,7.8407,7.8291,7.7682,7.7478,7.7478,7.7478,7.7682,7.7856,7.7566,7.7682,7.7885,7.7885,7.7391,7.6927,7.6956,7.6695,7.6375,7.6056,7.5737,7.5417,7.5098,7.475,7.4678,7.5144,7.4867,7.5024,7.6276,7.5608,7.5228,7.5817,7.5448,7.5051,7.4899,7.4569,7.436,7.436,7.436,7.451,7.4869,7.4869,7.4869,7.4869,7.4869,7.4869,7.4869,7.4869,7.4869,7.4869,7.4869,7.4869,7.4869,7.4869,7.4869,7.4869,7.4869,7.4869,7.4869,7.4869,7.4869,7.4869,7.4869,7.4869,7.4869,7.4869,7.4869,7.4869,7.3443,7.3443,7.3619,7.4171,7.3895,7.392,7.495,7.5101,7.5101,7.5101,7.5101,7.5126,7.5226,7.5327,7.5578,7.603,7.6055,7.6055,7.6055,7.5628,7.5126,7.4573,7.5541,7.6849,7.8494,7.947,8.1293,8.3923,8.2762,8.2181,8.2181,8.163,8.073,7.9627,8.0091,7.9917,7.9249,7.8524,7.8291,7.8349,7.7682,7.7391,7.742,7.7537,7.7856,7.832,7.9046,7.9365,7.9365,7.8756,7.8262,7.7769,7.7014,7.6782,7.6782,7.6666,7.6985,7.7275,7.6637,7.7333,7.8204,7.8088,7.7653,7.7101,7.6579,7.6538,7.6317,7.5795,7.5592,7.5388,7.4924,7.5201,7.5639,7.6138,7.6212,7.6416,7.7233,7.6349,7.5687,7.5996,7.5347,7.4869,7.4869,7.4869,7.4869,7.4869,7.4869,7.4869,7.4869,7.4869,7.4869,7.4869,7.4869,7.4929,7.5048,7.5048,7.5108,7.5198,7.5198,7.5138,7.5048,7.4929,7.4929,7.5048,7.4929,7.4869,7.4869,7.4869,7.4869,7.4869,7.4869,7.4869,7.4869,7.4869,7.4869,7.4869,7.2841,7.2841,7.3042,7.3594,7.3644,7.382,7.4423,7.4523,7.4523,7.4523,7.4523,7.4699,7.5201,7.5653,7.5979,7.6055,7.6055,7.6055,7.6055,7.5979,7.5703,7.5151,7.4767,7.6133,7.9145,7.8876,8.0213,8.3313,8.2559,8.2181,8.2181,8.2094,8.1659,8.0904,8.0497,7.9917,7.922,7.803,7.7885,7.8349,7.7682,7.7391,7.7478,7.8059,7.7972,7.7682,7.8872,7.9685,8.0062,7.9394,7.9511,7.9685,7.8524,7.8146,7.803,7.7449,7.7333,7.7275,7.6637,7.6985,7.742,7.6869,7.6666,7.6579,7.6567,7.6538,7.6433,7.6346,7.5882,7.565,7.6114,7.5626,7.5525,7.6768,7.6591,7.6711,7.7912,7.7247,7.6624,7.6694,7.5617,7.4869,7.4869,7.4869,7.4869,7.4869,7.4869,7.4869,7.4869,7.4869,7.4869,7.4869,7.4869,7.5168,7.5766,7.5766,7.6036,7.6574,7.6574,7.6275,7.5736,7.5138,7.5198,7.5736,7.5138,7.4869,7.4869,7.4869,7.4869,7.4869,7.4869,7.4869,7.4869,7.4869,7.4869,7.4869,7.2791,7.2991,7.3192,7.3117,7.3117,7.3293,7.387,7.3946,7.3946,7.3946,7.3946,7.4046,7.4297,7.5075,7.5603,7.5603,7.5879,7.5929,7.5628,7.5603,7.5226,7.4347,7.6065,7.7638,7.8738,7.9932,8.1228,8.2646,8.2326,8.2007,8.163,8.1281,8.0585,7.9627,7.9365,7.8872,7.8204,7.7653,7.7566,7.7856,7.7943,7.774,7.7478,7.8146,7.8233,7.8088,7.8988,7.9743,8.0207,7.954,7.9511,7.9511,7.8233,7.7856,7.7769,7.7507,7.7682,7.7885,7.7624,7.774,7.7885,7.7624,7.7014,7.655,7.6898,7.6724,7.6259,7.5534,7.5156,7.4924,7.4895,7.4809,7.5247,7.6652,7.6181,7.6175,7.7742,7.6502,7.5458,7.5736,7.5228,7.4869,7.4869,7.4869,7.4869,7.4869,7.4869,7.4869,7.4869,7.4869,7.4869,7.4869,7.4869,7.5198,7.5886,7.5916,7.6215,7.6814,7.6814,7.6694,7.6425,7.6096,7.5946,7.5886,7.5587,7.5228,7.4869,7.4869,7.4869,7.4869,7.4869,7.4869,7.4869,7.4869,7.4869,7.4869]}]]